[[{"header":{"parameterUnit":"m.s-1","parameterCategory":1,"la1":30.6,"la2":28.766,"lo1":-90.7593,"lo2":-88.6598,"dy":0.0162,"dx":0.0183,"nx":116,"ny":114,"refTime":"2023-04-06T06:00:00:Z","depth":0,"parameterNumber":2,"parameterNumberName":"U-component_of_WINDS"},"data":[0.0,0.0,0.0,0.0,0.0,0.0,0.0,0.0,0.0,0.0,0.0,0.0,0.0,0.0,0.0,0.0,0.0,0.0,0.0,0.0,0.0,0.0,0.0,0.0,0.0,0.0,0.0,0.0,0.0,0.0,0.0,0.0,0.0,0.0,0.0,0.0,0.0,0.0,0.0,0.0,0.0,0.0,0.0,0.0,0.0,0.0,0.0,0.0,0.0,0.0,0.0,0.0,0.0,0.0,0.0,0.0,0.0,0.0,0.0,0.0,0.0,0.0,0.0,0.0,0.0,0.0,0.0,0.0,0.0,0.0,0.0,0.0,0.0,0.0,0.0,0.0,0.0,0.0,0.0,0.0,0.0,0.0,0.0,0.0,0.0,0.0,0.0,0.0,0.0,0.0,0.0,0.0,0.0,0.0,0.0,0.0,0.0,0.0,0.0,0.0,0.0,0.0,0.0,0.0,0.0,0.0,0.0,0.0,0.0,0.0,0.0,0.0,0.0,0.0,0.0,0.0,0.0,0.0,0.0,0.0,0.0,0.0,0.0,0.0,0.0,0.0,0.0,0.0,0.0,0.0,0.0,0.0,0.0,0.0,0.0,0.0,0.0,0.0,0.0,0.0,0.0,0.0,0.0,0.0,0.0,0.0,0.0,0.0,0.0,0.0,0.0,0.0,0.0,0.0,0.0,0.0,0.0,0.0,0.0,0.0,0.0,0.0,0.0,0.0,0.0,0.0,0.0,0.0,0.0,0.0,0.0,0.0,0.0,0.0,0.0,0.0,0.0,0.0,0.0,0.0,0.0,0.0,0.0,0.0,0.0,0.0,0.0,0.0,0.0,0.0,0.0,0.0,0.0,0.0,0.0,0.0,0.0,0.0,0.0,0.0,0.0,0.0,0.0,0.0,0.0,0.0,0.0,0.0,0.0,0.0,0.0,0.0,0.0,0.0,0.0,0.0,0.0,0.0,0.0,0.0,0.0,0.0,0.0,0.0,0.0,0.0,0.0,0.0,0.0,0.0,0.0,0.0,0.0,0.0,0.0,0.0,0.0,0.0,0.0,0.0,0.0,0.0,0.0,0.0,0.0,0.0,0.0,0.0,0.0,0.0,0.0,0.0,0.0,0.0,0.0,0.0,0.0,0.0,0.0,0.0,0.0,0.0,0.0,0.0,0.0,0.0,0.0,0.0,0.0,0.0,0.0,0.0,0.0,0.0,0.0,0.0,0.0,0.0,0.0,0.0,0.0,0.0,0.0,0.0,0.0,0.0,0.0,0.0,0.0,0.0,0.0,0.0,0.0,0.0,0.0,0.0,0.0,0.0,0.0,0.0,0.0,0.0,0.0,0.0,0.0,0.0,0.0,0.0,0.0,0.0,0.0,0.0,0.0,0.0,0.0,0.0,0.0,0.0,0.0,0.0,0.0,0.0,0.0,0.0,0.0,0.0,0.0,0.0,0.0,0.0,0.0,0.0,0.0,0.0,0.0,0.0,0.0,0.0,0.0,0.0,0.0,0.0,0.0,0.0,0.0,0.0,0.0,0.0,0.0,0.0,0.0,0.0,0.0,0.0,0.0,0.0,0.0,0.0,0.0,0.0,0.0,0.0,0.0,0.0,0.0,0.0,0.0,0.0,0.0,0.0,0.0,0.0,0.0,0.0,0.0,0.0,0.0,0.0,0.0,0.0,0.0,0.0,0.0,0.0,0.0,0.0,0.0,0.0,0.0,0.0,0.0,0.0,0.0,0.0,0.0,0.0,0.0,0.0,0.0,0.0,0.0,0.0,0.0,0.0,0.0,0.0,0.0,0.0,0.0,0.0,0.0,0.0,0.0,0.0,0.0,0.0,0.0,0.0,0.0,0.0,0.0,0.0,0.0,0.0,0.0,0.0,0.0,0.0,0.0,0.0,0.0,0.0,0.0,0.0,0.0,0.0,0.0,0.0,0.0,0.0,0.0,0.0,0.0,0.0,0.0,0.0,0.0,0.0,0.0,0.0,0.0,0.0,0.0,0.0,0.0,0.0,0.0,0.0,0.0,0.0,0.0,0.0,0.0,0.0,0.0,0.0,0.0,0.0,0.0,0.0,0.0,0.0,0.0,0.0,0.0,0.0,0.0,0.0,0.0,0.0,0.0,0.0,0.0,0.0,0.0,0.0,0.0,0.0,0.0,0.0,0.0,0.0,0.0,0.0,0.0,0.0,0.0,0.0,0.0,0.0,0.0,0.0,0.0,0.0,0.0,0.0,0.0,0.0,0.0,0.0,0.0,0.0,0.0,0.0,0.0,0.0,0.0,0.0,0.0,0.0,0.0,0.0,0.0,0.0,0.0,0.0,0.0,0.0,0.0,0.0,0.0,0.0,0.0,0.0,0.0,0.0,0.0,0.0,0.0,0.0,0.0,0.0,0.0,0.0,0.0,0.0,0.0,0.0,0.0,0.0,0.0,0.0,0.0,0.0,0.0,0.0,0.0,0.0,0.0,0.0,0.0,0.0,0.0,0.0,0.0,0.0,0.0,0.0,0.0,0.0,0.0,0.0,0.0,0.0,0.0,0.0,0.0,0.0,0.0,0.0,0.0,0.0,0.0,0.0,0.0,0.0,0.0,0.0,0.0,0.0,0.0,0.0,0.0,0.0,0.0,0.0,0.0,0.0,0.0,0.0,0.0,0.0,0.0,0.0,0.0,0.0,0.0,0.0,0.0,0.0,0.0,0.0,0.0,0.0,0.0,0.0,0.0,0.0,0.0,0.0,0.0,0.0,0.0,0.0,0.0,0.0,0.0,0.0,0.0,0.0,0.0,0.0,0.0,0.0,0.0,0.0,0.0,0.0,0.0,0.0,0.0,0.0,0.0,0.0,0.0,0.0,0.0,0.0,0.0,0.0,0.0,0.0,0.0,0.0,0.0,0.0,0.0,0.0,0.0,0.0,0.0,0.0,0.0,0.0,0.0,0.0,0.0,0.0,0.0,0.0,0.0,0.0,0.0,0.0,0.0,0.0,0.0,0.0,0.0,0.0,0.0,0.0,0.0,0.0,0.0,0.0,0.0,0.0,0.0,0.0,0.0,0.0,0.0,0.0,0.0,0.0,0.0,0.0,0.0,0.0,0.0,0.0,0.0,0.0,0.0,0.0,0.0,0.0,0.0,0.0,0.0,0.0,0.0,0.0,0.0,0.0,0.0,0.0,0.0,0.0,0.0,0.0,0.0,0.0,0.0,0.0,0.0,0.0,0.0,0.0,0.0,0.0,0.0,0.0,0.0,0.0,0.0,0.0,0.0,0.0,0.0,0.0,0.0,0.0,0.0,0.0,0.0,0.0,0.0,0.0,0.0,0.0,0.0,0.0,0.0,0.0,0.0,0.0,0.0,0.0,0.0,0.0,0.0,0.0,0.0,0.0,0.0,0.0,0.0,0.0,0.0,0.0,0.0,0.0,0.0,0.0,0.0,0.0,0.0,0.0,0.0,0.0,0.0,0.0,0.0,0.0,0.0,0.0,0.0,0.0,0.0,0.0,0.0,0.0,0.0,0.0,0.0,0.0,0.0,0.0,0.0,0.0,0.0,0.0,0.0,0.0,0.0,0.0,0.0,0.0,0.0,0.0,0.0,0.0,0.0,0.0,0.0,0.0,0.0,0.0,0.0,0.0,0.0,0.0,0.0,0.0,0.0,0.0,0.0,0.0,0.0,0.0,0.0,0.0,0.0,0.0,0.0,0.0,0.0,0.0,0.0,0.0,0.0,0.0,0.0,0.0,0.0,0.0,0.0,0.0,0.0,0.0,0.0,0.0,0.0,0.0,0.0,0.0,0.0,0.0,0.0,0.0,0.0,0.0,0.0,0.0,0.0,0.0,0.0,0.0,0.0,0.0,0.0,0.0,0.0,0.0,0.0,0.0,0.0,0.0,0.0,0.0,0.0,0.0,0.0,0.0,0.0,0.0,0.0,0.0,0.0,0.0,0.0,0.0,0.0,0.0,0.0,0.0,0.0,0.0,0.0,0.0,0.0,0.0,0.0,0.0,0.0,0.0,0.0,0.0,0.0,0.0,0.0,0.0,0.0,0.0,0.0,0.0,0.0,0.0,0.0,0.0,0.0,0.0,0.0,0.0,0.0,0.0,0.0,0.0,0.0,0.0,0.0,0.0,0.0,0.0,0.0,0.0,0.0,0.0,0.0,0.0,0.0,0.0,0.0,0.0,0.0,0.0,0.0,0.0,0.0,0.0,0.0,0.0,0.0,0.0,0.0,0.0,0.0,0.0,0.0,0.0,0.0,0.0,0.0,0.0,0.0,0.0,0.0,0.0,0.0,0.0,0.0,0.0,0.0,0.0,0.0,0.0,0.0,0.0,0.0,0.0,0.0,0.0,0.0,0.0,0.0,0.0,0.0,0.0,0.0,0.0,0.0,0.0,0.0,0.0,0.0,0.0,0.0,0.0,0.0,0.0,0.0,0.0,0.0,0.0,0.0,0.0,0.0,0.0,0.0,0.0,0.0,0.0,0.0,0.0,0.0,0.0,0.0,0.0,0.0,0.0,0.0,0.0,0.0,0.0,0.0,0.0,0.0,0.0,0.0,0.0,0.0,0.0,0.0,0.0,0.0,0.0,0.0,0.0,0.0,0.0,0.0,0.0,0.0,0.0,0.0,0.0,0.0,0.0,0.0,0.0,0.0,0.0,0.0,0.0,0.0,0.0,0.0,0.0,0.0,0.0,0.0,0.0,0.0,0.0,0.0,0.0,0.0,0.0,0.0,0.0,0.0,0.0,0.0,0.0,0.0,0.0,0.0,0.0,0.0,0.0,0.0,0.0,0.0,0.0,0.0,0.0,0.0,0.0,0.0,0.0,0.0,0.0,0.0,0.0,0.0,0.0,0.0,0.0,0.0,0.0,0.0,0.0,0.0,0.0,0.0,0.0,0.0,0.0,0.0,0.0,0.0,0.0,0.0,0.0,0.0,0.0,0.0,0.0,0.0,0.0,0.0,0.0,0.0,0.0,0.0,0.0,0.0,0.0,0.0,0.0,0.0,0.0,0.0,0.0,0.0,0.0,0.0,0.0,0.0,0.0,0.0,0.0,0.0,0.0,0.0,0.0,0.0,0.0,0.0,0.0,0.0,0.0,0.0,0.0,0.0,0.0,0.0,0.0,0.0,0.0,0.0,0.0,0.0,0.0,0.0,0.0,0.0,0.0,0.0,0.0,0.0,0.0,0.0,0.0,0.0,0.0,0.0,0.0,0.0,0.0,0.0,0.0,0.0,0.0,0.0,0.0,0.0,0.0,0.0,0.0,0.0,0.0,0.0,0.0,0.0,0.0,0.0,0.0,0.0,0.0,0.0,0.0,0.0,0.0,0.0,0.0,0.0,0.0,0.0,0.0,0.0,0.0,0.0,0.0,0.0,0.0,0.0,0.0,0.0,0.0,0.0,0.0,0.0,0.0,0.0,0.0,0.0,0.0,0.0,0.0,0.0,0.0,0.0,0.0,0.0,0.0,0.0,0.0,0.0,0.0,0.0,0.0,0.0,0.0,0.0,0.0,0.0,0.0,0.0,0.0,0.0,0.0,0.0,0.0,0.0,0.0,0.0,0.0,0.0,0.0,0.0,0.0,0.0,0.0,0.0,0.0,0.0,0.0,0.0,0.0,0.0,0.0,0.0,0.0,0.0,0.0,0.0,0.0,0.0,0.0,0.0,0.0,0.0,0.0,0.0,0.0,0.0,0.0,0.0,0.0,0.0,0.0,0.0,0.0,0.0,0.0,0.0,0.0,0.0,0.0,0.0,0.0,0.0,0.0,0.0,0.0,0.0,0.0,0.0,0.0,0.0,0.0,0.0,0.0,0.0,0.0,0.0,0.0,0.0,0.0,0.0,0.0,0.0,0.0,0.0,0.0,0.0,0.0,0.0,0.0,0.0,0.0,0.0,0.0,0.0,0.0,0.0,0.0,0.0,0.0,0.0,0.0,0.0,0.0,0.0,0.0,0.0,0.0,0.0,0.0,0.0,0.0,0.0,0.0,0.0,0.0,0.0,0.0,0.0,0.0,0.0,0.0,0.0,0.0,0.0,0.0,0.0,0.0,0.0,0.0,0.0,0.0,0.0,0.0,0.0,0.0,0.0,0.0,1.4123,1.3995,0.0,0.0,0.0,0.0,0.0,0.0,0.0,0.0,0.0,0.0,0.0,0.0,0.0,0.0,0.0,0.0,0.0,0.0,0.0,0.0,0.0,0.0,0.0,0.0,0.0,0.0,0.0,0.0,0.0,0.0,0.0,0.0,0.0,0.0,0.0,0.0,0.0,1.1474,1.1966,1.2536,1.3187,1.5758,1.6996,1.7094,0.0,0.0,0.0,0.0,0.0,0.0,0.0,0.0,0.0,0.0,0.0,0.0,0.0,0.0,0.0,0.0,0.0,0.0,0.0,0.0,0.0,0.0,0.0,0.0,0.0,0.0,0.0,0.0,0.0,0.0,0.0,0.0,0.0,0.0,0.0,0.0,0.0,0.0,0.0,0.0,0.0,0.0,0.0,0.0,0.0,0.0,0.0,0.0,0.0,0.0,0.0,0.0,0.0,0.0,0.0,0.0,0.0,0.0,0.0,0.0,0.0,0.0,0.0,0.0,0.0,0.0,0.0,0.0,0.0,0.0,1.4868,1.4535,0.0,0.0,0.0,0.0,0.0,0.0,0.0,0.0,0.0,0.0,0.0,0.0,0.0,0.0,0.0,0.0,0.0,0.0,0.0,0.0,0.0,0.0,0.0,1.3395,1.2766,1.2293,1.1982,1.1567,0.0,0.0,0.0,0.0,0.0,0.0,1.0568,1.0568,1.0694,1.0937,1.1196,1.1963,1.317,1.343,1.3514,1.3501,1.5606,0.0,0.0,0.0,0.0,0.0,0.0,0.0,0.0,0.0,0.0,0.0,0.0,0.0,0.0,0.0,0.0,0.0,0.0,0.0,0.0,0.0,0.0,0.0,0.0,0.0,0.0,0.0,0.0,0.0,0.0,0.0,0.0,0.0,0.0,0.0,0.0,0.0,0.0,0.0,0.0,0.0,0.0,0.0,0.0,0.0,0.0,0.0,0.0,0.0,0.0,0.0,0.0,0.0,0.0,0.0,0.0,0.0,0.0,0.0,0.0,0.0,0.0,0.0,1.5386,1.5562,1.5517,1.5916,1.5814,1.5417,1.6327,1.5948,1.4676,1.549,0.0,0.0,0.0,0.0,0.0,0.0,0.0,0.0,0.0,0.0,0.0,0.0,0.0,0.0,0.0,0.0,0.0,0.0,0.0,1.2746,1.2599,1.2033,1.1525,1.1232,1.1153,1.1031,1.085,0.0,0.0,0.0,0.0,0.9422,0.8848,0.8832,0.904,0.9482,0.9752,1.0149,1.0671,1.0604,1.0733,1.1131,1.3344,1.4472,1.4766,0.0,0.0,0.0,0.0,0.0,0.0,0.0,0.0,0.0,0.0,0.0,0.0,0.0,0.0,0.0,0.0,0.0,0.0,0.0,0.0,0.0,0.0,0.0,0.0,0.0,0.0,0.0,0.0,0.0,0.0,0.0,0.0,0.0,0.0,0.0,0.0,0.0,0.0,0.0,0.0,0.0,0.8301,0.8077,0.0,0.0,0.0,0.0,0.0,0.0,0.0,0.0,0.0,0.0,0.0,0.0,0.0,1.1882,1.2764,1.3523,1.3913,1.3913,1.529,1.5947,1.5964,1.7664,1.84,1.8385,1.903,0.0,1.5098,1.4824,0.0,0.0,0.0,0.0,0.0,0.0,0.0,0.0,0.0,0.0,0.0,0.0,0.0,0.0,0.0,0.0,0.0,0.0,0.0,0.0,0.0,1.1551,1.1254,1.0869,1.0907,1.0647,0.995,0.9898,0.0,0.0,0.8942,0.8778,0.845,0.829,0.8347,0.8592,0.8691,0.9075,0.9688,0.9639,1.006,1.091,1.1897,1.258,1.2976,1.2951,0.0,0.0,0.0,0.0,0.0,0.0,0.0,0.0,0.0,0.0,0.0,0.0,0.0,0.0,0.0,0.0,0.0,0.0,0.0,0.0,0.0,0.0,0.0,0.0,0.0,0.0,0.0,0.0,0.0,0.0,0.0,0.0,0.0,0.0,0.0,0.0,0.0,0.0,0.0,0.8066,0.8138,0.7483,0.7582,0.7449,0.0,0.0,0.0,0.0,0.0,0.0,0.0,0.0,0.0,1.0079,1.1507,1.2951,1.4363,1.5538,1.6295,1.6628,1.7151,1.747,1.7653,1.8374,1.8671,1.8712,1.9111,1.863,1.7532,1.7092,1.6729,1.6404,0.0,0.0,0.0,0.0,1.674,1.6754,0.0,0.0,0.0,0.0,0.0,0.0,0.0,0.0,0.0,0.0,0.0,0.0,1.1156,1.1096,1.0935,1.0523,1.0583,1.0217,0.9267,0.9046,0.8726,0.8259,0.8079,0.7949,0.7865,0.7857,0.7921,0.811,0.8214,0.8631,0.9309,0.9309,0.9834,1.077,1.0989,1.146,1.202,1.1992,1.1859,1.1716,0.0,0.0,0.0,0.0,0.0,0.0,0.0,0.0,0.0,0.0,0.0,0.0,0.0,0.0,0.0,0.0,0.0,0.0,0.0,0.0,0.0,0.0,0.0,0.0,0.0,0.0,0.0,0.0,0.0,0.0,0.0,0.0,0.0,0.0,0.0,0.0,0.0,0.8232,0.8316,0.7221,0.7579,0.7753,0.0,0.0,0.0,0.0,0.0,0.0,0.8016,0.8691,0.9815,1.1448,1.275,1.4348,1.6315,1.7529,1.8345,1.8809,1.8668,1.8709,1.8904,1.8789,1.8746,1.8759,1.9001,1.9253,1.9456,1.875,1.7783,1.6757,1.6765,1.6818,1.6933,1.7257,1.7445,1.75,0.0,0.0,0.0,0.0,0.0,0.0,0.0,0.0,0.0,0.0,0.0,1.078,1.0567,1.0375,1.0168,0.9948,0.9946,0.9745,0.9241,0.8607,0.8047,0.7578,0.6944,0.6545,0.6407,0.709,0.7637,0.811,0.8557,0.8941,0.9309,0.9309,0.9507,0.9904,1.0743,1.1671,1.2642,1.2649,1.2323,1.1796,1.1925,0.0,0.0,0.0,0.0,0.0,0.0,0.0,0.0,0.0,0.0,0.0,0.0,0.0,0.0,0.0,0.0,0.0,0.0,0.0,0.0,0.0,0.0,0.0,0.0,0.0,0.0,0.0,0.0,0.0,0.0,0.0,0.0,0.0,0.0,0.0,0.0,0.0,0.0,0.8011,0.8274,0.0,0.0,0.0,0.0,0.8942,0.9023,0.8908,0.8566,0.9388,1.0843,1.3012,1.4013,1.5748,1.8329,1.8437,1.8477,1.8518,1.8771,1.8905,1.8918,1.9227,1.9348,1.9377,1.965,1.9766,1.9658,1.8114,1.8119,1.8955,1.7136,1.6951,1.7629,1.6777,1.6463,1.6397,0.0,0.0,0.0,0.0,0.0,0.0,0.0,0.0,1.1618,1.0769,1.0582,1.0321,0.9729,1.0107,1.0365,1.0287,1.0564,1.033,0.9334,0.8759,0.8079,0.7223,0.6535,0.6197,0.6233,0.6755,0.7012,0.7015,0.7247,0.7487,0.7691,0.7783,0.8216,0.8975,0.9278,1.0248,1.1671,1.1731,1.1614,1.1376,1.1047,1.0413,0.0,0.0,0.0,0.0,0.0,0.0,0.0,0.0,0.0,0.0,0.0,0.0,0.0,0.0,0.0,0.0,0.0,0.0,0.0,0.0,0.0,0.0,0.0,0.0,0.0,0.0,0.0,0.0,0.0,0.0,0.0,0.0,0.0,0.0,0.0,0.0,0.0,0.853,0.8925,0.0,0.8488,0.8212,0.8255,0.8731,0.9095,0.9282,0.925,1.0121,1.135,1.3009,1.42,1.5693,1.7519,1.8364,1.8865,1.908,1.9187,1.9212,1.9241,1.9508,1.9562,1.943,1.9909,1.9982,1.9796,1.9612,1.9708,1.9878,1.9168,1.9229,1.9634,1.9302,1.9319,1.9447,0.0,0.0,0.0,0.0,0.0,0.0,0.0,1.1768,1.1109,1.0373,1.0245,1.0084,0.9687,1.0299,1.0736,1.0736,1.1024,1.0589,0.917,0.8553,0.7676,0.6388,0.579,0.5689,0.609,0.6316,0.6438,0.6471,0.6553,0.6703,0.6866,0.6948,0.7374,0.8069,0.8374,0.9313,1.0683,1.1019,1.1331,1.1541,1.0948,1.0206,0.9496,0.0,0.0,0.0,0.0,0.0,0.0,0.0,0.0,0.0,0.0,0.0,0.0,0.0,0.0,0.0,0.0,0.0,0.0,0.0,0.0,0.0,0.0,0.0,0.0,0.0,0.0,0.0,0.0,0.0,0.0,0.0,0.0,0.0,0.0,0.8604,0.8985,0.8823,0.9235,0.9443,0.9188,0.8822,0.8836,0.9372,0.973,0.9999,1.0134,1.0729,1.1697,1.3088,1.4378,1.5715,1.716,1.8422,1.9172,1.9401,1.9401,1.9401,1.9401,1.9591,1.9562,1.943,1.9938,2.0011,1.9837,2.0357,2.0515,2.0443,2.0558,2.0701,2.0874,2.0874,2.1003,2.1203,0.0,0.0,0.0,0.0,0.0,0.0,1.2504,1.1339,1.0649,1.1089,1.0424,1.0054,1.0464,1.0915,1.1198,1.1198,1.1198,1.0459,0.8709,0.7955,0.6821,0.5086,0.474,0.5014,0.5902,0.5791,0.6022,0.6596,0.6601,0.6752,0.7013,0.7018,0.7078,0.7238,0.8125,0.8975,0.9849,1.0743,1.1591,1.2343,1.1744,1.1129,1.0451,0.0,0.0,0.0,0.0,0.0,0.0,0.0,0.0,0.0,0.0,0.0,0.0,0.0,0.0,0.0,0.0,0.0,0.0,0.0,0.0,0.0,0.0,0.0,0.0,0.0,0.0,0.0,0.0,0.0,0.0,0.0,0.0,0.0,0.7743,0.8995,0.9639,0.8934,0.9196,0.9559,0.9909,0.9632,0.9894,1.0927,1.1008,1.1082,1.1195,1.1203,1.1893,1.3372,1.4645,1.5991,1.7484,1.8765,1.9401,1.9401,1.9401,1.9401,1.9401,1.9401,1.9401,1.943,1.9707,1.9809,1.9837,2.0184,2.0472,2.0745,2.106,2.1175,2.1203,2.1203,2.1203,2.1203,0.0,0.0,0.0,0.0,0.0,0.0,1.1694,1.0783,1.0176,1.025,1.0053,1.0054,1.0464,1.0915,1.1198,1.1198,1.1198,1.0363,0.836,0.7757,0.6835,0.5421,0.6024,0.6466,0.6621,0.6435,0.6433,0.6596,0.6796,0.6921,0.7013,0.7095,0.7155,0.7238,0.8125,0.8975,0.9849,1.0743,1.1591,1.239,1.2217,1.1684,1.101,0.0,0.0,0.0,0.0,0.0,0.0,0.0,0.0,0.0,0.0,0.0,0.0,0.0,0.0,0.0,0.0,0.0,0.0,0.0,0.0,0.0,0.0,0.0,0.0,0.0,0.0,0.0,0.0,0.0,0.0,0.0,0.8718,0.9211,0.91,0.9348,0.9689,1.014,1.0264,1.0447,1.0675,1.061,1.0724,1.1118,1.1151,1.1232,1.1411,1.1419,1.209,1.358,1.4853,1.6152,1.7484,1.8765,1.9401,1.9401,1.9401,1.9401,1.9401,1.9591,1.9591,1.943,1.9938,2.0155,2.0184,2.0472,2.0788,2.106,2.0902,2.0988,2.1203,2.1203,2.1203,2.1203,0.0,0.0,0.0,0.0,0.0,0.0,1.1482,1.0807,1.052,1.1076,1.0594,1.0501,1.1329,1.1283,1.1198,1.1198,1.0948,1.0048,0.8292,0.7423,0.6869,0.6599,0.7267,0.7528,0.7291,0.724,0.7079,0.6774,0.6915,0.7035,0.7084,0.7536,0.7737,0.7792,0.8644,0.9526,1.0378,1.088,1.1591,1.2409,1.2409,1.1971,1.1355,1.1453,1.0975,1.0273,1.045,1.0439,1.0321,1.0158,0.0,0.0,0.0,0.0,0.0,0.0,0.0,0.0,0.0,0.0,0.0,0.0,0.0,0.0,0.0,0.0,0.0,0.0,0.0,0.0,0.0,0.0,0.0,0.0,0.9104,0.9857,1.0158,1.0108,1.0251,1.0772,1.0867,1.0956,1.1062,1.1078,1.1151,1.1321,1.1338,1.1645,1.2391,1.2429,1.3067,1.4441,1.5747,1.675,1.7484,1.8765,1.9401,1.9401,1.9401,1.9401,1.9401,1.9678,1.9707,1.9591,2.0213,2.0472,2.05,2.0788,2.1031,2.1175,0.0,0.0,0.0,0.0,2.1203,2.1203,0.0,0.0,0.0,0.0,0.0,0.0,1.1635,1.1181,1.1357,1.2713,1.1594,1.1176,1.2552,1.18,1.1198,1.1198,1.0621,0.9702,0.8423,0.7343,0.7207,0.8213,0.8503,0.8473,0.8115,0.8112,0.7798,0.7148,0.7051,0.7139,0.7376,0.8125,0.854,0.8678,0.9554,1.0378,1.1099,1.1208,1.17,1.2409,1.2409,1.208,1.1598,1.1598,1.1124,1.0468,1.0637,1.0525,1.0333,1.0745,0.0,0.0,0.0,0.0,0.0,0.0,0.0,0.0,0.0,0.0,0.0,0.0,0.0,0.0,0.0,0.0,0.0,0.0,0.0,0.0,0.0,0.0,0.0,0.0,0.9275,1.0061,1.0911,1.1041,1.1049,1.1033,1.1135,1.1203,1.1219,1.1228,1.133,1.1516,1.1533,1.2154,1.3625,1.3695,0.0,0.0,0.0,1.7572,1.7718,1.8823,1.9401,1.9401,1.9401,1.9401,1.9401,1.9678,1.9809,1.9837,2.04,2.0658,2.0716,2.1031,2.1175,2.1203,2.1203,2.1203,2.1203,2.1203,2.1203,2.1203,0.0,0.0,0.0,0.0,0.0,0.0,1.1622,1.1365,1.1617,1.2739,1.1799,1.1446,1.2573,1.18,1.1198,1.1198,1.0746,0.9912,0.8622,0.8811,0.9078,0.9293,0.9859,1.0144,1.0051,0.8872,0.8186,0.8056,0.7457,0.7548,0.8263,0.8429,0.8865,0.9581,1.046,1.0935,1.1154,1.1837,1.2246,1.2409,1.2409,1.2342,1.2227,1.2227,1.2132,1.199,1.2016,1.198,1.1886,1.1482,1.1342,1.1182,1.0357,0.9861,0.0,0.0,0.0,0.0,0.0,0.0,0.0,0.0,0.0,0.0,0.0,0.0,0.0,0.0,0.0,0.0,0.0,0.0,0.0,0.8779,0.9948,1.0944,1.1151,1.1305,1.1346,1.1191,1.1171,1.1252,1.1435,1.1443,1.1524,1.1741,1.1749,1.2299,1.3635,1.3695,1.4758,1.7073,1.7367,1.7994,1.901,1.9272,1.9401,1.9401,1.9401,0.0,1.9401,1.9678,1.9809,1.9809,2.0213,2.05,2.0716,2.0773,2.096,2.1203,2.1203,2.1203,2.1203,2.1203,2.1203,2.1203,0.0,0.0,0.0,0.0,0.0,0.0,1.216,1.2123,1.2344,1.3196,1.2331,1.1986,1.2867,1.1805,1.1014,1.0902,1.0449,0.9893,0.9235,0.982,1.0348,1.0681,1.1132,1.116,1.0712,1.0031,0.9492,0.9049,0.8687,0.8727,0.9168,0.9581,1.0029,1.0488,1.1373,1.1755,1.1782,1.2219,1.2409,1.2409,1.2409,1.2409,1.2409,1.2409,1.2409,1.2409,1.2409,1.2409,1.2352,1.2042,1.1951,1.1808,1.0958,1.0571,1.0176,0.0,0.0,0.0,0.0,0.0,0.0,0.0,0.0,0.0,0.0,0.0,0.0,0.0,0.0,0.798,0.778,0.0,0.9673,0.9397,1.0485,1.1362,1.1362,1.1524,1.1573,1.1378,1.1443,1.1533,1.163,1.1638,1.197,1.2685,1.2754,1.3584,1.5499,1.5588,1.6474,1.8386,1.8444,1.8823,1.9591,1.9591,1.9678,1.9851,1.9851,1.9851,1.988,2.0293,2.0494,2.0537,2.1028,2.1334,2.1452,2.1452,2.154,2.1701,2.1701,2.1496,2.1203,2.1203,2.1203,2.1203,0.0,0.0,0.0,0.0,0.0,0.0,0.0,1.2805,1.3056,1.3688,1.294,1.2597,1.326,1.1978,1.0908,1.0462,1.0141,0.9911,0.9824,1.06,1.1277,1.1824,1.206,1.1844,1.1139,1.1105,1.077,1.0049,0.9884,0.9884,1.0076,1.077,1.1181,1.1373,1.2082,1.2409,1.2409,1.2409,1.2409,1.2409,1.2409,1.2409,1.2409,1.2409,1.2409,1.2409,1.2409,1.2305,1.2192,1.2362,1.2305,1.2079,1.1595,1.1321,1.0899,0.9437,0.9217,0.0,0.0,0.0,0.0,0.0,0.0,0.0,0.0,0.8292,0.8476,0.8861,0.9079,0.9095,0.882,0.9632,1.0255,1.0015,1.085,1.1549,1.1549,1.1717,1.1749,1.1573,1.1717,1.1897,1.216,1.216,1.2694,1.3963,1.4083,1.5055,1.7367,1.7542,1.8169,1.9446,1.9533,1.9678,1.9895,1.9895,2.004,2.0299,2.0369,2.0397,2.0426,2.1028,2.1289,2.1332,2.1947,2.2214,2.2214,2.2214,2.2214,2.2214,2.2214,2.1862,2.1393,2.1393,2.1393,2.1393,0.0,0.0,0.0,0.0,0.0,0.0,0.0,0.0,1.322,1.388,1.3286,1.3087,1.3749,1.2605,1.1258,0.9922,1.0236,1.033,0.9913,1.1182,1.1985,1.2043,1.2268,1.2326,1.2209,1.1473,1.1044,1.0962,1.0186,1.0213,1.0962,1.1044,1.1509,1.2246,1.2355,1.2409,1.2409,1.2409,1.2409,1.2409,1.2409,1.2409,1.2409,1.2409,1.2409,1.2409,1.2409,1.1938,1.1444,1.2164,1.1919,1.1444,1.207,1.1794,1.1057,1.0321,0.9423,0.8511,0.7915,0.8088,0.829,0.7727,0.83,0.8836,0.0,0.8322,0.8533,0.8427,0.8398,0.8468,0.8598,0.9494,1.0202,1.0162,1.1065,1.1774,1.1774,1.179,1.1798,1.1782,1.179,1.2251,1.3375,1.3495,1.4023,1.5302,1.5391,1.6013,1.7425,1.7735,1.8448,1.9722,2.004,2.0213,2.0241,2.0241,2.027,2.0299,2.0608,2.0749,2.0749,2.1356,2.1648,2.1648,2.2035,2.2214,2.2214,2.2214,2.2214,2.2214,2.2214,2.214,2.2111,2.2111,2.2111,2.2111,0.0,0.0,0.0,0.0,0.0,0.0,0.0,0.0,1.3764,1.3603,1.332,1.3176,1.3247,1.2246,1.1193,1.025,1.1246,1.1859,1.1666,1.3322,1.4008,1.3361,1.3389,1.3115,1.2409,1.2028,1.1864,1.1864,1.15,1.15,1.1864,1.1864,1.2055,1.2409,1.2409,1.2409,1.2409,1.2409,1.2409,1.2409,1.2409,1.2409,1.2409,1.2409,1.2409,1.2343,1.1862,1.1567,0.0,1.163,1.1567,1.1498,1.2181,1.1921,1.1201,1.0371,0.9772,0.9334,0.9179,0.8874,0.8641,0.8859,0.9242,0.9502,0.9331,0.9404,0.9616,0.9925,1.0079,1.0184,1.0257,1.0756,1.1131,1.1131,1.1513,1.1806,1.1806,1.1806,1.1806,1.1806,1.2595,1.3276,1.3665,1.452,1.5588,1.6856,1.712,1.7806,1.9071,1.9232,1.9535,2.0068,2.0241,2.0385,2.0515,2.0728,2.0915,2.1104,2.1464,2.1608,2.1622,2.2045,2.2322,2.2526,2.2649,2.2725,2.2725,2.2725,2.2725,2.2725,2.2725,2.2725,2.2681,2.2315,2.2214,2.2214,0.0,0.0,0.0,0.0,0.0,0.0,0.0,0.0,0.0,0.0,1.3512,1.3357,1.2907,1.2034,1.1296,1.0819,1.1782,1.2598,1.2955,1.4461,1.5167,1.4685,1.467,1.4266,1.3376,1.3376,1.3376,1.3376,1.3376,1.3376,1.3376,1.3376,1.3376,1.3376,1.3376,1.3376,1.3376,1.3376,1.3376,1.3376,1.3376,1.3376,1.3376,1.3376,1.3063,1.251,1.159,1.1264,1.123,1.1067,1.098,1.1073,1.1686,1.1573,1.1032,1.0088,0.9582,0.9358,0.9437,0.9127,0.8959,0.9648,0.9998,1.0243,1.0382,1.0447,1.0669,1.1298,1.1461,1.1546,1.1684,1.1747,1.1806,1.1889,1.1837,1.1867,1.201,1.2281,1.2483,1.2573,1.4103,1.5104,1.5025,1.6002,1.7196,1.8464,1.8797,1.9332,2.0241,2.0385,2.0414,2.0414,2.0585,2.0772,2.0975,2.132,2.1612,2.1832,2.2154,2.2301,2.2315,2.2623,2.2855,2.3106,2.3106,2.3106,2.3106,2.3106,2.3106,2.3106,2.3106,2.3106,2.3047,2.2608,2.2432,2.2432,0.0,0.0,0.0,0.0,0.0,0.0,0.0,0.0,0.0,0.0,0.0,1.3794,1.3059,1.2385,1.1844,1.1508,1.1335,1.1793,1.3109,1.3683,1.4527,1.5786,1.5861,1.5835,1.5781,1.5781,1.5781,1.5781,1.5781,1.5781,1.5781,1.5781,1.5781,1.5781,1.5781,1.5781,1.5781,1.5781,1.5781,1.5781,1.5781,1.5781,1.5781,1.5781,1.471,1.3023,1.1903,1.1128,1.0622,1.0548,1.0136,0.9757,1.0375,1.0542,1.0371,0.9555,0.8543,0.7706,0.7824,0.833,0.8927,0.947,1.029,1.0968,1.0968,1.107,1.1335,1.1862,1.1736,1.1638,1.2102,1.1971,1.1897,1.2152,1.1979,1.201,1.2603,1.3446,1.4153,1.449,1.6462,1.791,1.8244,1.8302,1.8855,2.0126,2.0241,2.027,2.0299,2.0558,2.0687,2.0687,2.1336,2.1657,2.1686,2.2008,2.2169,2.2199,2.2462,2.2578,2.2592,2.2914,2.3106,2.3106,2.3106,2.3106,2.3106,2.3106,2.3106,2.3106,2.3106,2.3106,2.3106,2.3091,2.3076,2.3076,0.0,0.0,0.0,0.0,0.0,0.0,0.0,0.0,0.0,0.0,0.0,0.0,0.0,0.0,0.0,0.0,1.3822,1.454,1.46,1.6325,1.7216,1.6921,1.7338,1.72,1.6433,1.6433,1.6433,1.6433,1.6433,1.6327,1.6168,1.6168,1.6062,1.5888,1.5888,1.5888,1.5888,1.5888,1.5888,1.5888,1.5888,1.5888,1.5827,1.5321,1.4636,1.3845,0.0,1.1201,0.9847,0.9687,0.9595,0.9584,0.9885,0.975,0.9262,0.805,0.7714,0.7825,0.8229,0.8924,0.9689,1.0355,1.1001,1.1511,1.1645,1.1866,1.2076,1.2107,1.1694,1.1234,1.1045,1.1025,1.1138,1.1309,1.246,1.3476,1.3894,1.4955,1.5744,1.5862,1.743,1.8538,1.8639,1.9261,1.991,2.0515,2.0759,2.0975,2.122,2.1322,2.1467,2.1685,2.1905,2.2023,2.2023,2.2315,2.2476,2.2476,2.2798,2.2914,2.2945,2.3062,2.3106,2.3106,2.3106,2.3106,2.3106,2.3106,2.3106,2.3106,2.3106,2.3106,2.3106,2.3106,2.3106,2.3106,0.0,0.0,0.0,0.0,0.0,0.0,0.0,0.0,0.0,0.0,0.0,0.0,0.0,0.0,0.0,0.0,0.0,1.5613,1.5763,1.7075,1.7792,1.7664,1.7997,1.7869,1.7213,1.7139,1.7139,1.7213,1.7369,1.7406,1.7316,1.7538,1.7568,1.7397,1.7292,1.7266,1.7239,1.716,1.6912,1.6574,1.6574,1.6393,1.6031,1.5571,1.4851,0.0,1.3424,1.1753,0.9857,0.9875,0.9855,0.979,0.9611,0.9084,0.8419,0.7828,0.7821,0.8184,0.899,0.9623,1.02,1.0894,1.1364,1.1703,1.1946,1.22,1.2426,1.2547,1.1937,1.1354,1.1135,1.0776,1.0627,1.0993,1.1991,1.3149,1.4417,1.5584,1.6625,1.7411,1.8655,1.9591,1.9815,2.0308,2.0757,2.1047,2.1263,2.1525,2.1862,2.1876,2.1964,2.2169,2.2286,2.2345,2.2345,2.2637,2.2767,2.2767,2.3003,2.3106,2.3106,2.3106,2.3106,2.3106,2.3106,2.3106,2.3106,2.3106,2.3106,2.3106,2.3106,2.3106,2.3106,2.3106,2.3106,2.3106,0.0,0.0,0.0,0.0,0.0,0.0,0.0,0.0,0.0,0.0,0.0,0.0,0.0,0.0,0.0,0.0,0.0,0.0,1.6517,1.6066,1.6461,1.8099,1.8013,1.8045,1.8224,1.8045,1.8045,1.8224,1.8649,1.8949,1.9115,1.9725,2.001,1.9985,1.9703,1.9574,1.9548,1.928,1.8584,1.7726,1.7726,1.7194,1.6426,1.658,1.5356,1.3644,1.4113,1.271,1.0645,1.0973,1.0794,1.0342,0.9704,0.8745,0.802,0.886,0.8836,0.8797,1.0004,1.0382,1.0559,1.1106,1.1466,1.1744,1.2077,1.2324,1.2616,1.3179,1.2502,1.191,1.2206,1.1176,1.0554,1.1292,1.0973,1.1632,1.4436,1.5666,1.7045,1.9183,2.0226,2.1018,2.1657,2.1437,2.1378,2.1715,2.173,2.1862,2.2184,2.2213,2.2213,2.2258,2.2506,2.2621,2.2621,2.2959,2.3106,2.3106,2.3106,2.3106,2.3106,2.3106,2.3106,2.3106,2.3106,2.3106,2.3106,2.3106,2.3106,2.3106,2.3106,2.3106,2.3106,2.3106,2.3106,2.3106,0.0,0.0,0.0,0.0,0.0,0.0,0.0,0.0,0.0,0.0,0.0,0.0,0.0,0.0,0.0,0.0,0.0,0.0,1.6947,1.7418,1.8127,1.911,1.9581,1.9837,1.99,1.9837,1.9837,1.99,1.9618,1.9402,1.9249,1.9015,1.8784,1.8603,1.8079,1.785,1.7804,1.7337,1.6983,1.6763,1.6763,1.6706,1.655,1.601,1.5303,1.4568,1.427,1.3228,1.1879,1.1122,1.093,1.1162,1.2058,1.1318,1.0141,1.0471,1.0391,1.0275,1.0571,1.1282,1.197,1.2136,1.3006,1.3886,1.4242,1.5083,1.5569,1.4894,1.3462,1.22,1.1786,1.1606,1.1889,1.292,1.5065,1.6953,1.7963,1.9132,2.0175,2.1002,2.1292,2.1613,2.2023,2.1992,2.205,2.2344,2.2184,2.2184,2.2491,2.2506,2.2623,2.2857,2.2945,2.2988,2.2988,2.3062,2.3106,2.3106,2.3106,2.3106,2.3106,2.3106,2.3106,2.3106,2.3106,2.3106,2.3106,2.3106,2.3106,2.3106,2.3106,2.3106,2.3106,2.3106,2.3106,2.3106,0.0,0.0,0.0,0.0,0.0,0.0,0.0,0.0,0.0,0.0,0.0,0.0,0.0,0.0,0.0,0.0,0.0,0.0,0.0,1.8468,1.8766,1.9353,1.9467,1.9545,1.9621,1.9545,1.9545,1.9621,1.9522,1.9333,1.9046,1.9031,1.8823,1.8418,1.7782,1.7453,1.7355,1.6845,1.6268,0.0,0.0,1.5627,1.5058,1.4839,1.4396,1.3905,1.3892,1.366,1.3334,1.3107,1.2885,1.2837,1.3696,1.309,1.2204,1.2812,1.2912,1.2794,1.2614,1.303,1.3508,1.3446,1.4025,1.4685,1.5002,1.5614,1.5805,1.4772,1.3472,1.236,1.1738,1.2082,1.2621,1.3168,1.542,1.7555,1.8916,1.9752,2.0614,2.1774,2.1906,2.2037,2.2345,2.2374,2.2506,2.2813,2.255,2.2506,2.2782,2.2811,2.2915,2.3106,2.3106,2.3106,2.3106,2.3106,2.3106,2.3106,2.3106,2.3106,2.3106,2.3106,2.3106,2.3106,2.3106,2.3106,2.3106,2.3106,2.3106,2.3106,2.3106,2.3106,2.3106,2.3106,2.3106,2.3106,0.0,0.0,0.0,0.0,0.0,0.0,0.0,0.0,0.0,0.0,0.0,0.0,0.0,0.0,0.0,0.0,0.0,0.0,0.0,0.0,1.9096,1.9501,1.896,1.8684,1.8809,1.866,1.8603,1.871,1.9064,1.9051,1.8788,1.9294,1.9306,1.8828,1.8155,1.7734,1.7472,1.7086,1.6098,1.4801,1.5308,1.4544,1.3132,0.0,1.3325,1.2718,1.3294,1.3908,1.4607,1.5604,1.5498,1.5007,1.5281,1.4829,1.4397,1.5484,1.5732,1.5538,1.5219,1.5119,1.5107,1.5003,1.5074,1.5213,1.5294,1.5411,1.5187,1.41,1.3282,1.2641,1.2249,1.275,1.3272,1.3401,1.4673,1.65,1.8938,1.9314,2.0046,2.2007,2.2242,2.2359,2.2621,2.2651,2.2798,2.3091,2.2842,2.2782,2.3091,2.3106,2.3106,2.3106,2.3106,2.3106,2.3106,2.3106,2.3106,2.3106,2.3106,2.3106,2.3106,2.3106,2.3106,2.3106,2.3106,2.3106,2.3106,2.3106,2.3106,2.3106,2.3106,2.3106,2.3106,2.3106,2.3106,2.3106,0.0,0.0,0.0,0.0,0.0,0.0,0.0,0.0,0.0,0.0,2.2957,2.292,0.0,0.0,0.0,0.0,0.0,0.0,0.0,0.0,0.0,2.1154,2.1068,2.0853,2.0494,2.046,2.0233,1.9829,1.9456,1.924,1.9192,1.8864,1.8668,1.8525,1.799,1.7457,1.7027,1.7045,1.5909,1.417,1.5236,1.479,1.3532,1.3727,1.3635,0.0,1.3056,1.3499,1.443,1.5662,1.6419,1.7083,1.8484,1.8131,1.7317,1.7822,1.7416,1.6794,1.6732,1.6825,1.6944,1.6932,1.753,1.7954,1.7153,1.7595,1.7601,1.5731,1.4451,1.3752,1.405,1.4261,1.5021,1.6944,1.8582,1.9979,2.1046,2.1438,2.1831,2.2461,2.2519,2.2667,2.2988,2.3018,2.3047,2.3106,2.3062,2.3047,2.3106,2.3106,2.3106,2.3106,2.3106,2.3106,2.3106,2.3106,2.3106,2.3106,2.3106,2.3106,2.3106,2.3106,2.3106,2.3106,2.3106,2.3106,2.3106,2.3106,2.3106,2.3106,2.3106,2.3106,2.3106,2.3106,2.3106,2.3106,0.0,0.0,0.0,0.0,0.0,0.0,0.0,2.3176,2.3088,2.3332,2.3154,2.3001,2.3001,2.274,2.2534,0.0,0.0,0.0,0.0,0.0,0.0,2.1957,2.1712,2.1489,2.1271,2.1249,2.114,2.0887,0.0,2.0207,1.9649,1.9396,1.9002,1.8472,1.7999,1.7617,1.7315,1.7362,1.6568,1.5365,1.6,1.5459,1.4218,1.422,1.3848,0.0,1.3133,1.3559,1.4329,1.5103,1.6425,1.7958,1.9353,1.9508,1.9219,1.9542,1.9332,1.8876,1.8365,1.8304,1.8389,1.8389,1.8739,1.8836,1.7749,1.7754,1.7388,1.5162,1.4393,1.4075,1.3995,1.5043,1.6154,1.702,1.9102,2.0773,2.1257,2.195,2.252,2.2811,2.2871,2.2914,2.3091,2.3106,2.3106,2.3106,2.3106,2.3106,2.3106,2.3106,2.3106,2.3106,2.3106,2.3106,2.3106,2.3106,2.3106,2.3106,2.3106,2.3106,2.3106,2.3106,2.3106,2.3106,2.3106,2.3106,2.3106,2.3106,2.3106,2.3106,2.3106,2.3106,2.3106,2.3106,2.3106,2.3106,0.0,0.0,0.0,0.0,0.0,0.0,0.0,2.3241,2.3176,2.3637,2.3288,2.3045,2.3154,2.3067,2.3001,0.0,0.0,0.0,0.0,0.0,0.0,0.0,0.0,0.0,2.1756,0.0,0.0,2.1599,2.1599,0.0,0.0,0.0,0.0,0.0,1.8832,1.8569,1.8372,1.8454,1.7918,0.0,0.0,1.6508,1.5028,0.0,0.0,0.0,0.0,1.3714,1.4178,1.4643,1.6044,1.7767,1.8836,1.9462,1.9874,2.0269,2.0342,2.0221,1.9816,1.9708,1.9708,1.9708,1.9708,1.9333,1.7877,1.7396,1.6646,1.4387,1.4119,1.4234,1.3987,1.545,1.6649,1.6499,1.8454,2.022,2.0853,2.1715,2.249,2.3047,2.3106,2.3106,2.3106,2.3106,2.3106,2.3106,2.3106,2.3106,2.3106,2.3106,2.3106,2.3106,2.3106,2.3106,2.3106,2.3106,2.3106,2.3106,2.3106,2.3106,2.3106,2.3106,2.3106,2.3106,2.3106,2.3106,2.3106,2.3106,2.3106,2.3106,2.3106,2.3106,2.3106,2.3106,2.3106,2.3137,0.0,0.0,0.0,0.0,0.0,0.0,0.0,2.3023,2.3176,2.3637,2.3288,2.3157,2.3594,2.3263,2.3001,0.0,0.0,0.0,0.0,0.0,0.0,0.0,0.0,0.0,0.0,0.0,0.0,2.1599,2.1599,0.0,0.0,0.0,0.0,0.0,0.0,2.0989,2.0554,2.1168,0.0,0.0,0.0,0.0,0.0,0.0,0.0,0.0,0.0,1.3797,1.3972,1.4862,1.5506,1.6068,1.6904,1.7774,1.8599,1.9254,1.9199,1.926,2.0653,2.1031,2.1031,2.1031,2.1031,2.0391,1.7901,1.7302,1.6727,1.4675,1.4268,1.4573,1.5512,1.5699,1.6097,1.7198,1.7709,1.8607,2.0483,2.1072,2.1774,2.2974,2.3106,2.3106,2.3106,2.3106,2.3106,2.3106,2.3106,2.3106,2.3106,2.3106,2.3106,2.3106,2.3106,2.3106,2.3106,2.3106,2.3106,2.3106,2.3106,2.3106,2.3106,2.3106,2.3106,2.3106,2.3106,2.3106,2.3106,2.3106,2.3106,2.3106,2.3106,2.3106,2.3106,2.3106,2.3106,2.3261,0.0,0.0,0.0,0.0,0.0,0.0,2.3375,2.3179,2.3176,2.3637,2.355,2.3485,2.3662,2.3528,2.331,2.3023,0.0,0.0,0.0,0.0,0.0,0.0,0.0,0.0,0.0,0.0,2.263,2.2433,2.2433,0.0,0.0,0.0,0.0,0.0,0.0,2.1476,2.1301,2.1647,0.0,0.0,0.0,0.0,0.0,0.0,0.0,0.0,0.0,0.0,1.3911,1.4709,1.5287,1.5643,1.5271,1.5657,1.6645,1.8712,1.921,1.9415,2.0823,2.1203,2.1203,2.1203,2.0618,1.9591,1.787,1.6785,1.5758,1.4298,1.4422,1.4881,1.5178,1.5799,1.6345,1.6606,1.7659,1.8607,1.9116,2.0116,2.1145,2.214,2.22,2.2377,2.3032,2.3106,2.3106,2.3106,2.3106,2.3106,2.3106,2.3106,2.3106,2.3106,2.3106,2.3106,2.3106,2.3106,2.3106,2.3106,2.3106,2.3106,2.3106,2.3106,2.3106,2.3106,2.3106,2.3106,2.3168,2.3961,2.4301,2.4363,2.5164,2.5454,2.5454,2.5454,2.4979,2.4363,0.0,0.0,0.0,0.0,0.0,2.311,2.3441,2.322,2.3176,2.3637,2.3594,2.3615,2.3899,2.3681,2.3419,2.3223,2.3088,0.0,0.0,0.0,0.0,0.0,0.0,0.0,0.0,0.0,2.3001,2.3001,2.3001,2.2826,0.0,0.0,2.2346,2.1996,0.0,0.0,0.0,0.0,0.0,0.0,0.0,0.0,0.0,0.0,0.0,0.0,0.0,0.0,0.0,0.0,0.0,1.5323,1.4428,1.4443,1.5227,1.7486,1.836,1.8887,2.0267,2.0925,2.1203,2.1203,2.0237,1.8986,1.7776,1.6411,1.5127,1.4149,1.4498,1.5017,1.5026,1.5791,1.6319,1.6025,1.7193,1.8124,1.8091,1.918,2.029,2.1139,2.1136,2.149,2.2509,2.2917,2.3106,2.3106,2.3106,2.3106,2.3106,2.3106,2.3106,2.3106,2.3106,2.3106,2.3106,2.3106,2.3106,2.3106,2.351,2.3697,2.3697,2.4085,2.424,2.424,2.424,2.424,2.4332,2.5286,2.5504,2.5307,2.6199,2.6388,2.6179,2.661,2.621,2.5529,0.0,0.0,0.0,0.0,0.0,0.0,2.3001,2.3001,2.3176,2.3637,2.3307,2.3394,2.4377,2.3591,2.3198,2.364,2.3266,0.0,0.0,0.0,0.0,0.0,0.0,0.0,0.0,0.0,2.3001,2.3001,2.3001,2.3001,2.3001,2.3001,2.3001,2.2979,0.0,0.0,0.0,0.0,0.0,0.0,0.0,0.0,1.7745,0.0,0.0,0.0,0.0,0.0,0.0,0.0,0.0,0.0,0.0,1.4511,1.4623,1.5256,1.6162,1.7284,1.8887,2.0237,2.1203,2.1203,2.0237,1.8961,1.7594,1.6323,1.5186,1.4436,1.4572,1.4957,1.5487,1.5659,1.572,1.5699,1.6061,1.6668,1.7657,1.8336,1.9064,2.0008,2.0116,2.0491,2.1429,2.248,2.3106,2.3106,2.3106,2.3106,2.3106,2.3106,2.3106,2.3106,2.3106,2.3106,2.3106,2.3106,2.3106,2.3106,2.4456,2.5071,2.5133,2.6385,2.6961,2.6961,2.6961,2.6961,2.6961,2.6991,2.6402,2.5486,2.5517,2.4946,2.4299,2.5688,2.62,2.6567,0.0,0.0,0.0,0.0,0.0,0.0,0.0,2.3442,2.3817,2.3934,2.4595,2.4978,2.4801,2.4495,2.4134,2.3741,2.3266,0.0,0.0,0.0,0.0,0.0,0.0,0.0,0.0,0.0,2.3001,2.3001,2.3001,2.3001,2.3001,2.3001,2.3001,2.3001,2.3001,2.3001,0.0,0.0,0.0,0.0,0.0,1.9205,1.8708,0.0,0.0,0.0,0.0,0.0,0.0,0.0,0.0,0.0,0.0,0.0,0.0,1.4726,1.5557,1.6751,1.8273,1.8795,1.892,1.877,1.7779,1.6677,1.6126,1.5008,1.4096,1.4102,1.4473,1.4878,1.5082,1.5593,1.5935,1.5843,1.6397,1.6935,1.7146,1.8183,1.9225,2.0065,2.1333,2.2259,2.2567,2.2902,2.3106,2.3106,2.3106,2.3106,2.3106,2.3106,2.3106,2.3106,2.3106,2.3106,2.3106,2.3106,2.3106,2.3106,2.3542,2.3848,2.4122,2.5483,2.6235,2.6495,2.7464,2.7899,2.7961,2.8826,2.9003,2.88,2.9732,2.9897,2.9697,3.0149,2.9728,2.9057,0.0,0.0,0.0,0.0,0.0,0.0,0.0,2.4258,2.4456,2.4126,2.4785,2.5175,2.4926,2.471,2.4482,2.4177,2.3694,0.0,0.0,0.0,0.0,0.0,0.0,0.0,0.0,2.3001,2.3001,2.3001,2.3001,2.3001,2.3001,2.3001,2.3038,2.3113,2.3038,2.3038,0.0,0.0,0.0,0.0,2.0388,1.9408,1.8703,0.0,0.0,0.0,0.0,0.0,0.0,0.0,0.0,0.0,0.0,0.0,0.0,0.0,1.5385,1.6078,1.7244,1.7707,1.7816,1.765,1.6595,1.5533,1.5423,1.4496,1.3759,1.3964,1.4442,1.485,1.4876,1.5513,1.5989,1.5898,1.6601,1.7206,1.7396,1.8392,1.936,2.0065,2.1553,2.2509,2.2509,2.2858,2.3324,2.3821,2.3837,2.4146,2.475,2.4797,2.4891,2.5047,2.3786,2.3414,2.405,2.4096,2.4392,2.5078,2.5561,2.5892,2.6149,2.7526,2.8268,2.8511,2.9386,2.9777,0.0,3.0642,3.0717,3.0475,3.1318,3.1382,3.114,3.1638,3.1308,3.0696,0.0,0.0,0.0,0.0,0.0,0.0,0.0,2.5335,2.5123,2.4361,2.4307,2.451,2.4964,2.4517,2.437,2.4801,0.0,0.0,0.0,0.0,0.0,0.0,0.0,0.0,0.0,2.3001,2.3001,2.3001,2.3001,2.3001,2.3001,2.3001,2.3113,2.3279,2.3094,2.3091,0.0,0.0,0.0,0.0,2.0766,1.9439,0.0,0.0,0.0,0.0,0.0,0.0,0.0,0.0,0.0,0.0,0.0,0.0,0.0,0.0,0.0,0.0,0.0,1.6862,1.7572,1.744,1.6389,1.5394,1.5344,1.4692,0.0,1.4067,1.4526,1.4944,1.4944,1.5475,1.5899,1.5928,1.6625,1.7411,1.8213,1.8943,1.9606,2.0253,2.1087,2.1608,2.1608,2.2524,2.3635,2.4888,2.5072,2.5832,2.7432,2.7604,2.7868,2.8274,2.5156,2.4251,2.5862,2.5862,2.6683,2.8323,2.9493,3.0069,3.0167,3.1497,3.2135,3.2124,3.2235,3.2296,3.2296,3.2296,3.1722,3.0899,3.0899,3.0323,2.9672,3.0968,3.1451,3.1643,0.0,0.0,0.0,0.0,0.0,0.0,0.0,0.0,0.0,0.0,2.6338,2.6525,2.6103,2.5443,2.4808,0.0,0.0,0.0,0.0,0.0,0.0,0.0,0.0,0.0,0.0,2.3001,2.3001,2.3001,2.3001,2.3001,2.3001,2.3001,2.3113,2.3279,2.3094,2.2915,0.0,0.0,0.0,0.0,2.1001,2.0549,0.0,0.0,0.0,0.0,1.617,1.5699,0.0,0.0,0.0,0.0,0.0,0.0,0.0,0.0,1.5406,1.5374,1.542,0.0,1.5608,1.5431,1.531,1.5151,0.0,1.4896,1.4993,1.4745,1.5022,1.5279,1.5279,1.5622,1.5994,1.625,1.6455,1.7095,1.8492,2.0072,2.1421,2.2288,2.2581,2.2713,2.2713,2.2961,2.3333,2.3899,2.4937,2.5831,2.6501,2.7558,2.8206,2.8292,2.7525,2.7286,2.7684,2.7684,2.7892,2.8292,2.8605,2.8888,2.9168,3.0558,3.1339,3.1556,3.2635,3.3125,3.3125,3.3125,3.2995,3.2789,3.2789,3.2625,3.2447,3.2765,3.2892,3.2956,0.0,0.0,0.0,0.0,0.0,0.0,0.0,0.0,0.0,0.0,0.0,2.6824,2.6432,2.6035,0.0,0.0,0.0,0.0,0.0,0.0,0.0,0.0,0.0,2.3001,2.3001,2.3001,2.3001,2.3001,2.3001,2.3001,2.3001,2.3001,2.315,2.3427,2.3316,2.3147,0.0,0.0,2.2352,2.1887,2.1237,0.0,0.0,0.0,0.0,0.0,1.5906,1.5741,0.0,1.5854,1.6189,1.6601,0.0,0.0,0.0,0.0,1.5624,1.5394,1.5306,1.5132,1.4939,1.4919,1.4993,1.5047,1.4931,1.5271,1.5534,1.5192,1.5402,1.5636,1.5636,1.5597,1.5757,1.6316,1.6713,1.751,1.9173,1.9968,2.0885,2.2215,2.2215,2.2691,2.416,2.4283,2.4937,2.6495,2.7342,2.8199,2.9179,2.9937,3.0435,3.0618,3.0618,3.0275,2.9497,2.9497,2.987,3.0618,3.0618,3.0746,3.0947,3.1677,3.2125,3.2301,3.307,3.3386,3.3386,3.3386,3.3386,3.3386,3.3386,3.3386,3.3386,3.3386,3.3386,3.3386,0.0,0.0,0.0,0.0,0.0,0.0,0.0,0.0,0.0,0.0,0.0,0.0,0.0,0.0,0.0,0.0,0.0,0.0,0.0,0.0,0.0,0.0,0.0,2.322,2.322,2.3154,2.311,2.311,2.3045,2.3001,2.3001,2.3001,2.3231,2.3612,2.3582,2.3464,0.0,0.0,2.2388,2.1899,2.1581,0.0,0.0,0.0,0.0,0.0,0.0,0.0,0.0,1.6431,1.6794,1.7228,1.7138,0.0,0.0,0.0,0.0,0.0,1.5475,1.5396,1.5335,1.5299,1.5247,1.5256,1.5446,1.5768,1.5914,1.549,1.5665,1.5862,1.5737,1.5593,1.5651,1.6146,1.7194,1.8626,2.059,2.0295,2.0487,2.2225,2.2166,2.3063,2.5827,2.6099,2.7169,2.9813,3.0173,3.0965,3.2478,3.2766,3.3047,3.3386,3.3386,3.2719,3.1301,3.1269,3.1992,3.3386,3.3386,3.3386,3.3386,3.3386,3.3386,3.3386,3.3386,3.3386,3.3386,3.3386,3.3386,3.3386,3.3386,3.3386,3.3386,3.3386,3.3386,3.3386,0.0,0.0,0.0,0.0,0.0,0.0,0.0,0.0,0.0,0.0,0.0,0.0,0.0,0.0,0.0,0.0,0.0,0.0,0.0,0.0,0.0,2.4268,2.4288,2.4288,2.4288,2.3812,2.3594,2.3594,2.3179,2.3001,2.3001,2.3001,2.3238,2.3667,2.346,2.3335,2.3279,0.0,2.2772,2.2473,2.2299,0.0,0.0,0.0,0.0,0.0,0.0,0.0,0.0,1.6981,1.7365,1.7774,1.7259,0.0,0.0,0.0,0.0,0.0,1.5826,1.6571,1.7083,1.6059,1.6213,1.6455,1.5928,1.6287,1.6484,1.5592,1.5665,1.5678,1.5018,1.5965,1.6562,1.5561,1.7687,2.059,2.3853,2.4232,2.4769,2.6449,2.6635,2.6945,2.7824,2.7892,2.8203,2.8963,3.0122,3.0998,3.15,3.267,3.3359,3.3386,3.3386,3.3284,3.3037,3.3037,3.317,3.3386,3.3386,3.3386,3.3386,3.3386,3.3386,3.3386,3.3386,3.3386,3.3386,3.3386,3.3386,3.3386,3.3386,3.3386,3.3386,3.3386,3.3386,3.3386,0.0,0.0,0.0,0.0,0.0,0.0,0.0,0.0,0.0,0.0,0.0,0.0,0.0,0.0,0.0,0.0,0.0,0.0,0.0,0.0,2.4755,2.5356,2.5301,2.488,2.4093,2.3572,2.331,2.331,2.311,2.3001,2.3001,2.3357,2.3523,2.3479,2.3618,2.3677,2.3636,2.3185,2.2948,2.2786,0.0,0.0,0.0,0.0,0.0,0.0,0.0,0.0,0.0,0.0,1.7774,1.7951,1.7683,0.0,0.0,0.0,0.0,0.0,1.6111,1.6616,1.7062,1.7179,1.7847,1.8419,1.8252,1.8442,1.8429,1.7568,1.7146,1.6655,1.5814,1.6913,1.8453,1.9929,2.0941,2.2404,2.4922,2.4634,2.4823,2.6533,2.6795,2.7591,2.9516,2.969,3.0153,3.1188,3.1891,3.2302,3.2428,3.3051,3.3386,3.3386,3.3386,3.3386,3.3386,3.3386,3.3386,3.3386,3.3386,3.3386,3.3386,3.3386,3.3386,3.3386,3.3386,3.3386,3.3386,3.3386,3.3386,3.3386,3.3386,3.3386,3.3386,3.3386,3.3386,3.3386,0.0,0.0,0.0,0.0,0.0,0.0,0.0,0.0,0.0,0.0,0.0,0.0,0.0,0.0,0.0,0.0,0.0,0.0,0.0,0.0,2.5032,2.5846,2.5781,2.5251,2.4248,2.3656,2.3351,2.3351,2.311,2.3001,2.3001,2.3545,2.3624,2.3422,2.3778,2.3913,2.3913,2.3517,2.3313,2.3141,0.0,0.0,0.0,0.0,0.0,0.0,0.0,0.0,0.0,0.0,0.0,0.0,0.0,0.0,0.0,1.6712,1.6491,1.6184,1.644,1.6719,1.7202,1.8174,1.8863,1.9454,1.9972,2.002,1.9792,1.9263,1.8853,1.823,1.704,1.7962,2.0181,2.4076,2.4089,2.4388,2.6524,2.5754,2.5625,2.7404,2.7679,2.8737,3.1246,3.1483,3.2024,3.3304,3.3386,3.3386,3.3386,3.3386,3.3386,3.3386,3.3386,3.3386,3.3386,3.3386,3.3386,3.3386,3.3386,3.3386,3.3386,3.3386,3.3386,3.3386,3.3386,3.3386,3.3386,3.3386,3.3386,3.3386,3.3386,3.3386,3.3386,3.3386,3.3386,3.3386,0.0,0.0,0.0,0.0,0.0,0.0,0.0,0.0,0.0,0.0,0.0,0.0,0.0,0.0,0.0,0.0,0.0,0.0,0.0,0.0,2.5182,2.5265,2.5268,2.5403,2.5732,2.4858,2.4377,2.4377,2.346,2.3001,2.3001,2.3063,2.3304,2.3678,2.3722,2.3703,2.3766,2.4203,2.4117,2.3549,2.2259,0.0,0.0,0.0,0.0,0.0,0.0,0.0,0.0,0.0,0.0,0.0,0.0,0.0,1.6778,1.6786,1.6803,1.6844,1.6859,1.7715,1.8668,1.873,1.8304,1.8202,1.955,1.9482,1.9206,1.9265,2.0184,2.0319,1.8171,1.8905,2.1087,2.4982,2.5534,2.6814,3.0546,3.028,3.0344,3.2104,3.2335,3.2549,3.3163,3.3221,3.3253,3.3386,3.3386,3.3386,3.3386,3.3386,3.3386,3.3386,3.3386,3.3386,3.3386,3.3386,3.3386,3.3386,3.3386,3.3386,3.3386,3.3386,3.3386,3.3386,3.3386,3.3386,3.3386,3.3386,3.3386,3.3386,3.3386,3.3386,3.3386,3.3386,3.3386,3.3386,0.0,0.0,0.0,0.0,0.0,0.0,0.0,0.0,0.0,0.0,0.0,0.0,0.0,0.0,0.0,0.0,0.0,0.0,0.0,2.5072,2.5058,2.5728,2.5407,2.5424,2.5884,2.4641,2.3875,2.3569,2.3176,2.3001,2.3001,2.3288,2.3528,2.3705,2.4052,2.4355,2.4618,2.455,2.4552,2.4458,2.247,2.1254,0.0,0.0,0.0,0.0,0.0,0.0,0.0,0.0,1.7632,1.7049,1.7595,1.7062,1.6322,1.6743,1.6735,1.6705,1.7254,1.7781,1.8405,1.9315,1.9319,1.9396,2.0696,2.1924,2.2761,2.2527,2.31,2.3279,2.216,2.3001,2.4724,2.7266,2.8611,2.9932,3.1707,3.1868,3.2053,3.2711,3.3027,3.3242,3.3367,3.3386,3.3386,3.3386,3.3386,3.3386,3.3386,3.3386,3.3386,3.3386,3.3386,3.3386,3.3386,3.3386,3.3386,3.3386,3.3386,3.3386,3.3386,3.3386,3.3386,3.3386,3.3386,3.3386,3.3386,3.3386,3.3386,3.3386,3.3386,3.3386,3.3386,3.3386,3.3386,3.3386,0.0,0.0,0.0,0.0,0.0,0.0,0.0,0.0,0.0,0.0,0.0,0.0,0.0,0.0,0.0,0.0,0.0,0.0,2.5193,2.4594,2.4574,2.5318,2.5098,2.5053,2.5207,2.4227,2.3637,2.346,2.3154,2.3001,2.3023,2.3485,2.3684,2.3705,2.4268,2.4681,2.4965,2.479,2.4638,2.4343,2.2443,2.1307,0.0,0.0,0.0,0.0,0.0,0.0,0.0,0.0,1.7213,1.6625,1.7676,1.7186,1.6433,1.7497,1.7145,1.6595,1.7493,1.756,1.7803,1.9503,2.0292,2.107,2.2579,2.383,2.4789,2.5139,2.5367,2.5576,2.5795,2.6543,2.7559,2.891,3.0703,3.2031,3.2324,3.2734,3.2988,3.2988,3.3242,3.3386,3.3386,3.3386,3.3386,3.3386,3.3386,3.3386,3.3386,3.3386,3.3386,3.3386,3.3386,3.3386,3.3386,3.3386,3.3386,3.3386,3.3386,3.3386,3.3386,3.3386,3.3386,3.3386,3.3386,3.3386,3.3386,3.3386,3.3386,3.3386,3.3386,3.3386,3.3386,3.3386,3.3386,3.3386,0.0,0.0,0.0,0.0,0.0,0.0,0.0,0.0,0.0,0.0,0.0,0.0,0.0,0.0,0.0,0.0,0.0,0.0,2.3886,2.3762,2.3684,2.3684,2.4203,2.4246,2.3705,2.3684,2.3943,2.4506,2.3482,2.3001,2.3023,2.3485,2.3725,2.3746,2.4268,2.4508,2.453,2.4989,2.4343,2.2928,2.2188,2.1379,2.034,0.0,0.0,0.0,0.0,0.0,0.0,0.0,1.7145,1.7057,1.8473,1.7995,1.7296,1.9251,1.8194,1.6639,1.7573,1.7212,1.7096,1.9284,2.1078,2.2924,2.5109,2.4695,2.4458,2.6594,2.6732,2.6929,2.8602,2.8918,2.9082,2.954,3.1387,3.2793,3.2793,3.3164,3.3386,3.3386,3.3386,3.3386,3.3386,3.3386,3.3386,3.3386,3.3386,3.3386,3.3386,3.3386,3.3386,3.3386,3.3386,3.3386,3.3406,3.3406,3.3406,3.3406,3.3406,3.3406,3.3386,3.3386,3.3386,3.3386,3.3386,3.3386,3.3386,3.3386,3.3386,3.3386,3.3386,3.3386,3.3386,3.3386,3.3386,3.3386,0.0,0.0,0.0,0.0,0.0,0.0,0.0,0.0,0.0,0.0,0.0,0.0,0.0,0.0,0.0,0.0,0.0,0.0,2.3298,2.3536,2.3684,2.3684,2.3856,2.403,2.4268,2.3899,2.3615,2.3438,2.3154,2.3176,2.3506,2.3618,2.4074,2.4749,2.4922,2.4816,2.4493,2.4345,2.3639,2.2547,2.1583,2.065,1.9726,0.0,0.0,0.0,0.0,0.0,0.0,0.0,0.0,0.0,1.9763,1.9546,1.9084,1.9866,1.9479,1.8886,1.9242,2.0222,2.1254,2.1712,2.3516,2.5588,2.7149,2.7454,2.782,2.9408,2.9868,2.9757,2.9038,3.0176,3.0957,3.0147,3.1582,3.2891,3.3184,3.3308,3.3386,3.3386,3.3386,3.3386,3.3386,3.3386,3.3386,3.3386,3.3386,3.3386,3.3386,3.3386,3.3386,3.3386,3.3386,3.3574,3.3887,3.3887,3.4023,3.4316,3.4316,3.4004,3.3386,3.3386,3.3386,3.3386,3.3386,3.3386,3.3386,3.3386,3.3386,3.3386,3.3386,3.3386,3.3386,3.3386,3.3386,3.3457,0.0,0.0,0.0,0.0,0.0,0.0,0.0,0.0,0.0,0.0,0.0,0.0,0.0,0.0,0.0,0.0,0.0,0.0,0.0,2.3266,2.3419,2.3419,2.3419,2.3572,2.3897,2.3984,2.3768,2.3266,2.3266,2.3419,2.3725,2.4096,2.4508,2.4922,2.5118,2.5029,2.4724,2.3949,2.2979,2.1872,2.1108,2.0039,1.8887,0.0,0.0,0.0,0.0,0.0,0.0,0.0,0.0,0.0,2.0978,2.074,2.0014,2.032,1.9467,1.8689,1.9783,2.0661,2.1737,2.3716,2.557,2.7395,2.9169,2.9766,3.0147,3.0976,3.1484,3.1504,3.0625,3.1523,3.2226,3.1572,3.2333,3.3125,3.3347,3.3386,3.3386,3.3386,3.3386,3.3386,3.3386,3.3386,3.3386,3.3386,3.3386,3.3386,3.3386,3.3594,3.3691,3.3691,3.3848,3.4062,3.4349,3.4349,3.4453,3.4707,3.4707,3.4434,3.3926,3.3926,3.3926,3.3926,3.3926,3.3926,3.3926,3.3926,3.3926,3.3926,3.3926,3.3926,3.3926,3.3926,3.3926,3.3965,0.0,0.0,0.0,0.0,0.0,0.0,0.0,0.0,0.0,0.0,0.0,0.0,0.0,0.0,0.0,0.0,0.0,0.0,0.0,0.0,2.3001,2.3001,2.3045,2.3067,2.3067,2.4006,2.429,2.3834,2.379,2.379,2.3856,2.4769,2.4987,2.4639,2.5031,2.5103,2.4855,2.3571,2.2188,2.0831,2.0492,1.942,1.7986,1.7626,0.0,0.0,0.0,0.0,0.0,0.0,0.0,0.0,2.2155,2.1689,2.0624,2.0839,1.9182,1.7744,1.9969,2.0033,2.0595,2.5444,2.7357,2.866,3.0976,3.1552,3.1621,3.1582,3.1914,3.2374,3.2734,3.2832,3.2969,3.3328,3.3386,3.3386,3.3386,3.3386,3.3386,3.3386,3.3386,3.3386,3.3386,3.3386,3.3386,3.3386,3.3425,3.3445,3.3445,3.3887,3.4153,3.4153,3.4492,3.4726,3.4766,3.4766,3.4785,3.4824,3.4824,3.4824,3.4824,3.4726,3.4707,3.4707,3.4707,3.4707,3.4707,3.4707,3.4707,3.4707,3.4707,3.4707,3.4707,3.4707,3.4707,3.4707,0.0,0.0,0.0,0.0,0.0,0.0,0.0,0.0,0.0,0.0,0.0,0.0,0.0,0.0,0.0,0.0,0.0,0.0,0.0,0.0,2.3001,2.3001,2.3354,2.355,2.355,2.4181,2.4618,2.4878,2.4508,2.4528,2.4878,2.5097,2.5337,2.5579,2.5315,2.4426,2.3014,2.2049,2.0663,1.9116,1.8661,1.8113,1.7631,1.8477,1.8083,0.0,0.0,0.0,0.0,0.0,0.0,0.0,2.3205,2.3244,2.3438,2.2782,2.3138,2.3741,2.3553,2.5068,2.6872,2.7704,2.9322,3.084,3.1387,3.2031,3.2422,3.212,3.2363,3.2695,3.2773,3.3066,3.3289,3.3367,3.3386,3.3386,3.3386,3.3386,3.3386,3.3386,3.3386,3.3386,3.3386,3.3386,3.3386,3.3386,3.375,3.3958,3.3958,3.4336,3.457,3.457,3.4648,3.4883,3.5234,3.5234,3.541,3.5708,3.5708,3.5708,3.5703,3.5019,3.4707,3.4707,3.4707,3.4707,3.4707,3.4707,3.4707,3.4707,3.4707,3.4707,3.4707,3.4707,3.4707,3.4746,0.0,0.0,0.0,0.0,0.0,0.0,0.0,0.0,0.0,0.0,0.0,0.0,0.0,0.0,0.0,0.0,0.0,0.0,0.0,0.0,2.311,2.3332,2.3831,2.3965,2.3725,2.4683,2.5054,2.4856,2.5054,2.5184,2.5206,2.5424,2.5446,2.5229,2.5206,2.4395,2.302,2.2169,2.0975,1.9586,1.896,1.8367,1.7891,1.8532,1.8786,1.8987,2.0383,0.0,0.0,0.0,0.0,0.0,0.0,0.0,2.4233,2.3001,2.301,2.3649,2.454,2.5676,2.7109,2.9292,3.0684,3.1621,3.2031,3.248,3.2793,3.2773,3.2949,3.3105,3.3105,3.3281,3.3386,3.3386,3.3386,3.3386,3.3386,3.3386,3.3386,3.3386,3.3386,3.3386,3.3386,3.3613,3.373,3.373,3.4121,3.4375,3.4375,3.4785,3.5039,3.5039,3.5234,3.5449,3.5684,3.5703,3.5801,3.5982,3.5982,3.5982,3.5962,3.5547,3.5332,3.5332,3.5332,3.5332,3.5332,3.5332,3.5332,3.5332,3.5332,3.5332,3.5332,3.5332,3.5332,3.5371,0.0,0.0,0.0,0.0,0.0,0.0,0.0,0.0,0.0,0.0,0.0,0.0,0.0,0.0,0.0,0.0,0.0,0.0,0.0,0.0,0.0,2.3572,2.4093,2.4159,2.3725,2.4989,2.5273,2.4506,2.536,2.5599,2.5206,2.5666,2.5448,2.4637,2.4943,2.4492,2.3453,2.2572,2.1605,2.0586,1.9899,1.9095,1.8364,1.8849,1.9832,2.102,2.1665,2.2977,2.4451,2.5009,0.0,0.0,0.0,0.0,2.4447,2.3033,2.2327,2.2463,2.4665,2.5153,2.6085,3.0431,3.1591,3.1914,3.2637,3.2851,3.3008,3.3308,3.3386,3.3386,3.3386,3.3386,3.3386,3.3386,3.3386,3.3386,3.3386,3.3386,3.3386,3.3386,3.3464,3.3535,3.3535,3.3926,3.4212,3.4212,3.457,3.4824,3.4824,3.5254,3.5508,3.5508,3.584,3.5982,3.5982,3.5982,3.5982,3.5982,3.5982,3.5982,3.5982,3.5982,3.5982,3.5982,3.5982,3.5982,3.5982,3.5982,3.5982,3.5982,3.5982,3.5982,3.5982,3.5982,3.5982,3.5982,0.0,0.0,0.0,0.0,0.0,0.0,0.0,0.0,0.0,0.0,0.0,0.0,0.0,0.0,0.0,0.0,0.0,0.0,0.0,0.0,0.0,2.3088,2.355,2.3768,2.3684,2.4355,2.4637,2.4506,2.5031,2.525,2.5206,2.5666,2.5621,2.5097,2.4747,2.3872,2.2574,2.1503,2.0604,1.9929,1.9765,1.9155,1.8653,2.1102,2.1139,2.0331,2.3536,2.4345,2.4029,2.4892,2.5424,0.0,0.0,0.0,2.5592,2.4967,2.5482,2.6177,2.5737,2.7182,2.9213,3.1055,3.207,3.2656,3.2773,3.3066,3.3359,3.3386,3.3386,3.3386,3.3386,3.3386,3.3386,3.3386,3.3386,3.3386,3.3386,3.3386,3.3386,3.3386,3.375,3.4016,3.4016,3.4375,3.4609,3.4609,3.5039,3.5293,3.5293,3.5703,3.5937,3.5937,3.5962,3.5982,3.5982,3.5982,3.5982,3.5982,3.5982,3.5982,3.5982,3.5982,3.5982,3.5982,3.5982,3.5982,3.5982,3.5982,3.5982,3.5982,3.5982,3.5982,3.5982,3.5982,3.5982,3.5982,0.0,0.0,0.0,0.0,0.0,0.0,0.0,0.0,0.0,0.0,0.0,0.0,0.0,0.0,0.0,0.0,0.0,0.0,0.0,0.0,0.0,2.3809,2.3746,2.3834,2.4159,2.4377,2.4355,2.4052,2.4672,2.5062,2.5206,2.5562,2.541,2.4812,2.4594,2.4006,2.3163,2.2973,2.2169,2.1096,2.1109,2.0985,2.0835,2.1142,2.1992,2.3142,2.3839,2.4472,2.5079,2.5744,2.6109,2.6282,2.6365,0.0,0.0,0.0,2.6012,2.6197,2.6958,2.8522,3.0306,3.1858,3.2519,3.2851,3.3086,3.325,3.3386,3.3386,3.3386,3.3386,3.3386,3.3386,3.3386,3.3386,3.3386,3.3386,3.3386,3.3386,3.3516,3.375,3.3977,3.4192,3.4394,3.4824,3.5078,3.5078,3.5488,3.5742,3.5742,3.5884,3.5982,3.5982,3.5982,3.5982,3.5982,3.5982,3.5982,3.5982,3.5982,3.5982,3.5982,3.5982,3.5982,3.5982,3.5982,3.5982,3.5982,3.5982,3.5982,3.5982,3.5982,3.5982,3.5982,3.5982,3.5982,3.5982,0.0,0.0,0.0,0.0,0.0,0.0,0.0,0.0,0.0,0.0,0.0,0.0,0.0,0.0,0.0,0.0,0.0,0.0,0.0,0.0,0.0,2.4246,2.3899,2.3943,2.4506,2.4506,2.4312,2.3899,2.4568,2.5001,2.5206,2.539,2.5195,2.4681,2.4681,2.4377,2.3921,2.4154,2.3526,2.2391,2.2859,2.2925,2.2665,2.1814,2.296,2.4842,0.0,2.4074,2.5352,2.6149,2.6411,2.6563,2.7238,2.7064,0.0,0.0,0.0,2.5806,2.7668,2.8923,3.0132,3.2008,3.2518,3.2653,3.3242,3.3386,3.3386,3.3386,3.3386,3.3386,3.3386,3.3386,3.3386,3.3386,3.3386,3.3386,3.3386,3.3516,3.3711,3.4055,3.431,3.4564,3.4844,3.5293,3.5547,3.5547,3.584,3.5982,3.5982,3.5982,3.5982,3.5982,3.5982,3.5982,3.5982,3.5982,3.5982,3.5982,3.5982,3.5982,3.5982,3.5982,3.5982,3.5982,3.5982,3.5982,3.5982,3.5982,3.5982,3.5982,3.5982,3.5982,3.5982,3.5982,3.5982,3.5982,0.0,0.0,0.0,0.0,0.0,0.0,0.0,0.0,0.0,0.0,0.0,0.0,0.0,0.0,0.0,2.2402,2.2402,2.2572,2.2964,2.3001,2.3223,2.3725,2.3705,0.0,2.4506,2.4506,2.4506,2.4463,2.4923,2.5184,2.5184,2.5228,2.5206,2.5162,2.5162,2.49,2.4403,2.3805,2.3364,2.3186,2.4721,2.4346,2.3042,2.4431,2.418,2.315,2.3204,2.3269,2.3614,2.5352,2.5936,2.6171,2.754,2.7348,2.6671,0.0,0.0,0.0,2.7547,2.7931,2.8536,3.1051,3.1656,3.1978,3.314,3.3386,3.3386,3.3386,3.3386,3.3386,3.3386,3.3386,3.3386,3.3386,3.3386,3.3386,3.3386,3.3769,3.4075,3.4114,3.4805,3.5332,3.5351,3.5742,3.5996,3.5996,3.5982,3.5982,3.5982,3.5982,3.5982,3.5982,3.5982,3.5982,3.5982,3.5982,3.5982,3.5982,3.5982,3.5982,3.5982,3.5982,3.5982,3.5982,3.5982,3.5982,3.5982,3.5982,3.5982,3.5982,3.5982,3.5982,3.5982,3.5982,3.5982,3.5982,0.0,0.0,0.0,0.0,0.0,0.0,0.0,0.0,0.0,0.0,0.0,0.0,0.0,2.2025,2.1987,2.2195,2.2717,2.317,2.3491,2.3785,2.4159,2.4639,2.4377,2.4443,2.4943,2.4659,2.4506,2.4506,2.4804,2.5041,2.5206,2.5388,2.554,2.5643,2.5337,2.5097,2.4923,2.468,2.4191,2.3639,2.4791,2.5182,2.4967,2.3875,2.5156,2.7237,2.479,2.464,2.5722,2.6669,2.6498,2.6087,2.7216,2.7326,2.6998,2.6737,2.6411,2.6433,2.7741,2.8389,2.9048,3.0492,3.145,3.2076,3.2207,3.2852,3.3386,3.3386,3.3386,3.3386,3.3386,3.3386,3.3386,3.3386,3.3386,3.3386,3.3386,3.3789,3.4212,3.4434,3.5019,3.5508,3.5762,3.5937,3.5982,3.5982,3.5982,3.5982,3.5982,3.5982,3.5982,3.5982,3.5982,3.5982,3.5982,3.5982,3.5982,3.5982,3.5982,3.5982,3.5982,3.5982,3.5982,3.5982,3.5982,3.5982,3.5982,3.5982,3.5982,3.5982,3.5982,3.5982,3.5982,3.5982,3.5982,3.5982,0.0,0.0,0.0,0.0,0.0,0.0,0.0,0.0,0.0,0.0,0.0,0.0,0.0,0.0,2.239,2.2661,2.3266,2.3743,2.4006,2.4328,2.4725,2.5162,2.49,2.4965,2.5424,2.4987,2.4812,2.4967,2.4956,2.5128,2.5446,2.5628,2.578,2.5884,2.5403,2.5184,2.5184,2.5184,2.4643,2.3883,2.5378,2.6202,2.628,2.4332,2.5677,2.8249,2.5324,2.5101,2.6427,2.7732,2.7869,2.7557,2.7777,2.7608,2.7151,2.6476,2.6497,2.6947,2.7699,2.8223,2.8789,2.9776,3.0452,3.1042,3.1556,3.2346,3.3054,3.3332,3.3481,3.3544,3.3418,3.3386,3.3386,3.3386,3.3386,3.3476,3.3613,3.4004,3.4453,3.4883,3.5332,3.5723,3.5962,3.5982,3.5982,3.5982,3.5982,3.5982,3.5982,3.5982,3.5982,3.5982,3.5982,3.5982,3.5982,3.5982,3.5982,3.5982,3.5982,3.5982,3.5982,3.5982,3.5982,3.5982,3.5982,3.5982,3.5982,3.5982,3.5982,3.5982,3.5982,3.5982,3.5982,3.5982,3.5982,3.5982,0.0,0.0,0.0,0.0,0.0,0.0,0.0,0.0,0.0,0.0,0.0,0.0,0.0,0.0,0.0,2.3748,2.3968,2.4207,2.4489,2.4508,2.4725,2.5184,2.5206,2.5446,2.5884,2.5448,2.5426,2.5885,2.5426,2.5448,2.5885,2.5885,2.5884,2.5863,2.5403,2.5184,2.5162,2.5162,2.4596,2.3935,2.6616,2.7365,2.6819,2.6074,2.5808,2.5745,2.4717,2.4682,2.5523,2.838,2.9914,3.0393,2.9259,2.8165,0.0,0.0,2.6928,2.7637,0.0,0.0,0.0,2.8844,2.8657,2.8796,3.1248,3.1931,3.2318,3.3175,3.3591,3.3737,3.3481,3.3418,3.3386,3.3386,3.3386,3.3574,3.4036,3.4466,3.4863,3.5332,3.5762,3.5982,3.5982,3.5982,3.5982,3.5982,3.5982,3.5982,3.5982,3.5982,3.5982,3.5982,3.5982,3.5982,3.5982,3.5982,3.5982,3.5982,3.5982,3.5982,3.5982,3.5982,3.5982,3.5982,3.5982,3.5982,3.5982,3.5982,3.5982,3.5982,3.5982,3.5982,3.5982,3.5982,3.5982,3.5982,0.0,0.0,0.0,0.0,0.0,0.0,2.2538,0.0,0.0,0.0,0.0,0.0,0.0,0.0,0.0,2.3366,2.3688,2.4056,2.4479,2.4805,2.5228,2.5709,2.5585,2.5607,2.5906,2.544,2.5356,2.5696,2.5356,2.5377,2.5696,2.5696,2.5585,2.5381,2.525,2.4812,2.4117,2.4117,2.3965,2.3911,2.6466,2.7246,2.6938,2.7297,2.8608,3.0055,2.8477,2.8567,2.9606,3.0684,2.9631,2.7757,2.6974,2.691,0.0,0.0,0.0,0.0,2.7319,0.0,0.0,0.0,0.0,0.0,2.9147,3.0048,3.1159,3.2239,3.2334,3.2535,3.3559,3.3544,3.3386,3.3386,3.3386,3.3574,3.4036,3.4466,3.4863,3.5332,3.5762,3.5982,3.5982,3.5982,3.5982,3.5982,3.5982,3.5982,3.5982,3.5982,3.5982,3.5982,3.5982,3.5982,3.5982,3.5982,3.5982,3.5982,3.5982,3.5982,3.5982,3.5982,3.5982,3.5982,3.5982,3.5982,3.5982,3.5982,3.5982,3.5982,3.5982,3.5982,3.5982,3.5982,3.5982,3.5982,0.0,0.0,0.0,0.0,0.0,2.2418,2.248,2.2666,0.0,0.0,0.0,0.0,0.0,0.0,0.0,2.3739,2.3773,2.3995,2.4475,2.4759,2.5118,2.5599,2.5371,2.548,2.5906,2.525,2.5166,2.5738,2.5166,2.5187,2.5717,2.5654,2.5457,2.5184,2.4987,2.4465,2.3684,2.3684,2.3684,2.3933,2.6461,2.7465,2.7594,2.8599,2.992,3.1122,3.0213,3.0445,3.1347,3.2202,3.047,2.7951,2.7912,2.7489,2.7016,2.6994,0.0,0.0,0.0,0.0,2.7454,2.7101,0.0,0.0,2.9023,2.9995,3.123,3.2745,3.3043,3.3196,3.3993,3.3953,3.3827,3.3827,3.3827,3.395,3.4322,3.4551,3.4941,3.5586,3.5879,3.5982,3.5982,3.5982,3.5982,3.5982,3.5982,3.5982,3.5982,3.5982,3.5982,3.5982,3.5982,3.5982,3.5982,3.5982,3.5982,3.5982,3.5982,3.5982,3.5982,3.5982,3.5982,3.5982,3.5982,3.5982,3.5982,3.5982,3.5982,3.5982,3.5982,3.5982,3.5982,3.5982,3.5982,3.5982,0.0,0.0,2.2522,2.2563,2.2873,2.3018,2.2625,2.2997,0.0,0.0,0.0,0.0,0.0,0.0,0.0,0.0,2.3999,2.3922,2.434,2.4399,2.4618,2.5097,2.4873,2.5027,2.569,2.4908,2.4888,2.5714,2.4888,2.493,2.5801,2.5567,2.5327,2.5097,2.4703,2.4203,2.3705,2.3749,2.3885,2.429,2.6757,2.7959,2.8457,2.9908,3.0494,3.059,3.0926,3.1302,3.1799,3.3039,3.1898,3.0025,3.0202,2.8967,2.7402,2.6972,2.7457,0.0,0.0,0.0,0.0,2.6654,2.6858,0.0,2.9647,3.0533,3.1479,3.3403,3.3973,3.4105,3.4013,3.3961,3.3961,3.3961,3.4112,3.4375,3.4766,3.4838,3.5119,3.5952,3.605,3.605,3.5982,3.5982,3.5982,3.5982,3.5982,3.5982,3.5982,3.5982,3.5982,3.5982,3.5982,3.5982,3.5982,3.5982,3.5982,3.5982,3.5982,3.5982,3.5982,3.5982,3.5982,3.5982,3.5982,3.5982,3.5982,3.5982,3.5982,3.5982,3.5982,3.5982,3.5982,3.5982,3.5982,3.5982,0.0,2.2501,2.2625,2.3018,2.2831,2.2729,2.3018,2.3473,2.3764,2.3764,2.4136,2.4404,0.0,0.0,0.0,0.0,2.357,2.3526,2.3604,2.3759,2.4074,2.4616,2.4376,2.434,2.4526,2.4361,2.4345,2.4534,2.4345,2.4639,2.5316,2.4691,2.4485,2.4637,2.455,2.4203,2.3746,2.4159,2.5159,2.6568,2.8,2.847,2.8574,3.1137,3.2366,3.2744,3.3075,3.3629,3.4012,3.2934,3.2475,3.1833,2.8404,2.88,2.9941,2.6776,2.737,2.8764,2.7416,2.6854,2.6631,2.6614,2.7072,0.0,2.7668,2.7896,2.8461,2.9777,2.9585,2.9671,3.1291,3.1347,3.1181,3.1181,3.2264,3.37,3.536,3.5608,3.5798,3.6352,3.6384,3.6302,3.6016,3.5982,3.5982,3.5982,3.5982,3.5982,3.5982,3.5982,3.5982,3.5982,3.5982,3.5982,3.5982,3.5982,3.5982,3.5982,3.5982,3.5982,3.5982,3.5982,3.5982,3.5982,3.5982,3.5982,3.5982,3.5982,3.5982,3.5982,3.5982,3.5982,3.5982,3.5982,3.5982,3.5982,0.0,2.2501,2.2646,2.3121,2.3204,2.3287,2.3515,2.3908,2.4219,2.4219,2.4219,2.4219,2.4219,0.0,0.0,0.0,0.0,0.0,0.0,2.3297,2.3572,2.4093,2.3879,2.3928,2.4346,2.4123,2.4235,2.4715,2.4468,2.4764,2.5549,2.5074,2.4381,2.3573,2.4209,2.3863,2.2842,2.4013,2.559,2.7443,2.8441,2.9305,3.0186,3.2426,3.3375,3.3636,3.3977,3.4459,3.4789,3.4084,3.2746,3.1177,3.0107,2.9728,2.9395,2.8041,2.8438,2.8976,2.7534,2.6777,2.6387,2.6281,2.6887,0.0,0.0,2.8441,2.9087,3.002,2.9884,2.9838,3.0637,3.0669,3.0647,3.0855,3.2058,3.3087,3.3511,3.4847,3.598,3.639,3.6669,3.6742,3.6539,3.6369,3.6166,3.6016,3.5982,3.5982,3.5982,3.5982,3.5982,3.5982,3.5982,3.5982,3.5982,3.5982,3.5982,3.5982,3.5982,3.5982,3.5982,3.5982,3.5982,3.5982,3.5982,3.5982,3.5982,3.5982,3.5982,3.5982,3.5982,3.5982,3.5982,3.5982,3.5982,3.5982,2.2418,2.2501,2.2666,2.3246,2.3639,2.3929,2.3991,2.428,2.4466,2.4383,2.4033,2.3763,2.3701,2.3426,2.3291,0.0,0.0,0.0,2.3455,2.3395,2.3435,2.3572,2.3467,2.3667,2.4215,2.4031,2.4289,2.5001,2.4715,2.4992,2.5822,2.5481,2.4471,2.301,2.4358,2.3887,2.2284,2.4183,2.6088,2.7906,2.869,3.012,3.1939,3.3432,3.4047,3.4141,3.4485,3.4766,3.4984,3.486,3.2737,3.0381,3.1339,3.0354,2.8778,2.8583,2.9025,2.9192,2.7451,2.6541,2.6088,2.604,2.6628,2.7519,0.0,0.0,0.0,3.0504,3.0474,3.0236,2.9963,2.9916,3.0019,3.0355,3.155,3.2011,3.0815,3.3301,3.5263,3.5298,3.6426,3.7018,3.6561,3.6203,3.6049,3.6078,3.5726,3.5653,3.5962,3.5982,3.5982,3.5982,3.5982,3.5982,3.5982,3.5982,3.5982,3.5982,3.5982,3.5982,3.5982,3.5982,3.5982,3.5982,3.5982,3.5982,3.5982,3.5982,3.5982,3.5982,3.5982,3.5982,3.5982,3.5982,3.5982,3.5982,2.248,2.2501,2.277,2.366,2.3867,2.4012,2.4384,2.4466,2.4384,2.4012,2.3679,2.3322,2.2964,2.4071,2.4851,2.4872,2.6088,2.6366,2.5187,2.4892,2.4271,2.3135,2.3294,2.3361,2.3248,2.4019,2.4385,2.4303,2.4632,2.5054,2.5612,2.4708,2.427,2.4342,2.5803,2.5338,2.3628,2.585,2.7547,2.8798,2.9182,3.0603,3.2605,3.3861,3.4517,3.4828,3.517,3.5294,3.5076,3.3272,3.2516,3.1636,2.7646,2.9032,3.1117,2.5772,2.7216,2.9862,2.6647,2.572,2.5827,2.6388,2.678,2.7234,2.7955,0.0,2.7673,2.7738,0.0,2.665,2.6998,0.0,0.0,2.6906,2.8683,2.9653,2.8455,3.1101,3.2714,3.1581,3.5046,3.6709,3.456,3.4316,3.4871,3.6346,3.4787,3.4421,3.5918,3.5982,3.5982,3.5982,3.5982,3.5982,3.5982,3.5982,3.5982,3.5982,3.5982,3.5982,3.5982,3.5982,3.5982,3.5982,3.5982,3.5982,3.5982,3.5982,3.5982,3.5982,3.5982,3.5982,3.5982,3.5982,3.5982,3.5982,2.2832,2.3142,0.0,2.3826,2.3909,2.3867,2.3764,2.3764,2.3722,2.3658,2.32,2.2866,2.2816,2.3245,2.3858,2.4617,2.5629,2.6014,2.5442,2.5593,0.0,2.3705,2.4154,2.4415,2.4335,2.4562,2.4802,2.5018,2.4864,2.4992,2.5359,2.5097,2.4414,2.3491,2.5707,2.5828,2.443,2.5987,2.7556,2.906,2.952,3.0724,3.2427,3.4085,3.4891,3.5201,3.5356,3.5387,3.5273,3.438,3.2739,3.1103,3.1212,3.0538,2.9517,2.8398,2.8649,2.8868,2.6758,2.6649,2.7015,2.6345,2.7192,2.7986,2.7347,2.7239,2.7217,2.6955,0.0,0.0,0.0,0.0,0.0,0.0,2.8461,2.9206,2.7746,3.035,3.219,3.1626,3.3709,3.5106,3.478,3.4524,3.4936,3.6394,3.4644,3.4227,3.5898,3.5982,3.5982,3.5982,3.5982,3.5982,3.5982,3.5982,3.5982,3.5982,3.5982,3.5982,3.5982,3.5982,3.5982,3.5982,3.5982,3.5982,3.5982,3.5982,3.5982,3.5982,3.5982,3.5982,3.5982,3.5982,3.5982,3.5982,2.2935,0.0,2.3701,2.3701,2.3701,2.3598,2.3266,2.3245,2.3284,2.3319,2.2859,2.2562,2.259,2.3182,2.401,2.5051,2.6478,2.6928,2.5917,2.6396,2.6043,2.4519,2.462,2.5007,2.5655,2.5038,2.4954,2.5401,2.5057,2.4995,2.5189,2.5338,2.4573,2.3237,2.5551,2.61,2.535,2.6474,2.8091,2.9878,3.035,3.1082,3.2106,3.4235,3.5139,3.5263,3.5356,3.5387,3.5314,3.4723,3.283,3.1009,3.2994,3.1491,2.9239,3.0463,3.0253,2.9269,2.762,2.7767,2.8063,2.6628,2.7365,2.8159,2.7042,2.6955,2.702,2.6671,2.6496,0.0,0.0,0.0,2.6693,2.6976,0.0,2.8767,2.7411,2.968,3.1249,3.0679,3.1811,3.3212,3.4657,3.3971,3.4223,3.6035,3.4209,3.3911,3.6029,3.6152,3.6152,3.6152,3.6152,3.6152,3.6152,3.605,3.5982,3.5982,3.5982,3.5982,3.5982,3.5982,3.5982,3.5982,3.5982,3.5982,3.5982,3.5982,3.5982,3.5982,3.5982,3.5982,3.5982,3.5982,3.5982,3.5982,2.2418,2.2894,2.3205,2.3205,2.3205,2.3225,2.3204,2.3366,2.3319,2.2877,2.2741,2.2533,2.2077,2.4724,2.6687,2.698,3.0232,3.0771,2.7271,2.7675,2.7245,2.5444,2.4132,2.4535,2.6802,2.5302,2.4658,2.4935,2.5105,2.5189,2.5189,2.502,2.4767,2.4511,2.582,2.6424,2.6542,2.8,2.9803,3.1745,3.2079,3.1989,3.1892,3.4413,3.5201,3.4953,3.5263,3.5387,3.5086,3.3093,3.2495,3.2196,2.9854,3.0692,3.2106,3.0,3.1079,3.2301,2.943,2.8676,2.8476,2.7475,2.7171,2.7104,2.7238,2.6933,2.6627,2.6606,2.6235,2.5928,2.5906,2.6278,2.6541,0.0,2.7301,0.0,0.0,2.8677,2.9105,2.702,2.8979,3.1303,3.3367,3.1737,3.1857,3.5088,3.3097,3.3153,3.6301,3.6485,3.6485,3.6485,3.6485,3.6485,3.6485,3.6166,3.5982,3.5982,3.5982,3.5982,3.5982,3.5982,3.5982,3.5982,3.5982,3.5982,3.5982,3.5982,3.5982,3.5982,3.5982,3.5982,3.5982,3.5982,3.5982,3.5982,2.2007,2.197,2.205,2.2649,2.2729,2.2625,2.2315,2.2448,2.2882,2.3763,2.399,2.4346,2.4959,2.663,2.7994,2.8737,3.0751,3.0686,2.7679,2.8366,2.806,2.621,2.5122,2.5701,2.8044,2.6032,2.5168,2.5571,2.5189,2.4999,2.4999,2.4935,2.4766,2.4576,2.585,2.7181,2.8482,2.8657,2.9828,3.1487,3.0114,3.0437,3.1802,3.2591,3.2812,3.2954,3.4746,3.5387,3.5314,3.4588,3.3722,3.2996,3.3152,3.2357,3.1419,3.1724,3.1671,3.127,3.0295,3.0805,3.1016,2.858,2.894,2.9382,2.7302,2.6715,2.6693,2.6998,2.6693,2.6453,2.678,2.7217,0.0,0.0,0.0,2.8601,0.0,2.9828,3.014,2.911,3.0632,3.2056,3.2765,3.2884,3.3584,3.518,3.4244,3.4451,3.6394,3.6755,3.6755,3.6519,3.6755,3.6755,3.6519,3.6384,3.6234,3.5982,3.5982,3.5982,3.5982,3.5982,3.5982,3.5982,3.5982,3.5982,3.5982,3.5982,3.5982,3.5982,3.5982,3.5982,3.5982,3.5982,3.5982,3.5982,2.0937,2.1095,2.1372,2.1941,2.2214,2.2207,2.1764,2.1659,2.2279,2.407,2.4363,2.5109,2.6928,2.8309,2.9466,3.0323,3.1752,3.1228,2.7952,2.9396,2.9354,2.7119,2.6784,2.7694,2.9885,2.7215,2.5983,2.6388,2.5289,2.4764,2.4764,2.4764,2.4638,2.4428,2.5156,2.6993,2.9523,2.9044,3.0414,3.2596,2.9365,2.9003,3.0384,3.0276,3.0834,3.2003,3.4507,3.5387,3.5387,3.5387,3.4742,3.4093,3.5076,3.4009,3.2595,3.3617,3.3173,3.2287,3.1912,3.2566,3.2707,3.0065,3.0402,3.0657,2.7859,2.7192,2.7041,2.6431,2.6212,2.6103,2.6016,2.6693,2.7326,0.0,0.0,0.0,0.0,3.0599,3.0995,3.1298,3.146,3.1737,3.2331,3.2136,3.2673,3.4247,3.3978,3.4359,3.5738,3.6756,3.718,3.689,3.7146,3.7112,3.6722,3.6586,3.6316,3.5982,3.5982,3.5982,3.5982,3.5982,3.5982,3.5982,3.5982,3.5982,3.5982,3.5982,3.5982,3.5982,3.5982,3.5982,3.5982,3.5982,3.5982,3.5982,1.9379,2.0313,2.1147,2.1127,2.1645,2.193,2.1567,2.1084,2.1616,2.392,2.4006,2.4959,2.7997,2.9858,3.1112,3.1767,3.3387,3.2534,2.8284,3.0669,3.1079,2.8309,2.8906,3.0214,3.2199,2.8727,2.701,2.7309,2.542,2.4487,2.4508,2.4487,2.4387,2.4178,2.3918,2.5864,2.9392,2.913,3.1345,3.4599,2.9736,2.7804,2.7849,2.7952,2.9604,3.2135,3.455,3.5387,3.5387,3.5387,3.5387,3.5387,3.5387,3.5387,3.5387,3.5387,3.5387,3.5179,3.4139,3.3872,3.3489,3.1894,3.1503,3.0962,2.8935,2.8447,2.7788,2.5366,2.5209,2.5187,2.4144,2.5123,2.6213,0.0,0.0,0.0,3.0685,3.0979,3.1579,3.3193,3.1267,3.0462,3.2062,2.9799,2.951,3.2547,3.2441,3.2965,3.4665,3.65,3.7534,3.7616,3.7616,3.7448,3.7112,3.6722,3.6369,3.5982,3.5982,3.5982,3.5982,3.5982,3.5982,3.5982,3.5982,3.5982,3.5982,3.5982,3.5982,3.5982,3.5982,3.5982,3.5982,3.5982,3.5982,3.5982,1.959,2.0177,2.0411,2.008,2.0812,2.1485,2.1639,2.091,2.1709,2.5473,2.5729,2.7089,3.1095,3.2626,3.3441,3.3619,3.4532,3.3844,3.0831,3.1682,3.1815,3.0724,2.9752,3.0276,3.2522,2.8657,2.6903,2.7523,2.5329,2.4472,2.4807,2.4451,2.4263,2.4199,2.3697,2.472,2.6772,2.6487,2.7668,2.9656,2.8326,2.7994,2.8501,3.005,3.1273,3.2474,3.461,3.5387,3.5387,3.5387,3.5387,3.5387,3.5387,3.5387,3.5387,3.5387,3.5387,3.5355,3.5065,3.4991,3.4616,3.307,3.2917,3.272,3.1004,3.0589,3.0508,3.0222,2.9967,2.9357,2.7919,2.8222,2.8357,2.7304,2.8834,3.0526,3.1557,3.2198,3.2677,3.3133,3.1354,3.068,3.2141,3.1879,3.2309,3.3932,3.311,3.3818,3.6672,3.646,3.6667,3.7575,3.7904,3.7737,3.7112,3.7011,3.664,3.5982,3.5982,3.5982,3.5982,3.5982,3.5982,3.5982,3.5982,3.5982,3.5982,3.5982,3.5982,3.5982,3.5982,3.5982,3.5982,3.5982,3.5982,3.5982,1.8995,1.9497,1.9889,1.998,2.0977,2.187,2.214,2.0812,2.1341,2.5637,2.6203,2.7573,3.1153,3.3366,3.4493,3.437,3.4872,3.4131,3.1649,3.2695,3.2839,3.1525,3.1747,3.2453,3.3628,3.0749,2.8973,2.8471,2.6402,2.5061,2.4408,2.4154,2.3942,2.3852,2.3536,2.4478,2.636,2.8055,2.851,2.8184,2.9097,2.9614,0.0,3.1159,3.2447,3.3796,3.4993,3.5387,3.5387,3.5387,3.5387,3.5387,3.5387,3.5387,3.5387,3.5387,3.5387,3.5387,3.5387,3.5387,3.52,3.4334,3.4301,3.4098,3.2489,3.2123,3.1876,3.1005,3.0778,3.0342,2.9001,2.859,2.8113,2.7151,2.8847,3.0346,3.0559,3.2051,3.2861,3.2225,3.1739,3.1769,3.2562,3.1123,3.0972,3.3038,3.2459,3.2539,3.3751,3.5471,3.636,3.6222,3.6609,3.6929,3.7112,3.6178,3.5837,3.5982,3.5982,3.5982,3.5982,3.5982,3.5982,3.5982,3.5982,3.5982,3.5982,3.5982,3.5982,3.5982,3.5982,3.5982,3.5982,3.5982,3.5982,3.5982,1.8266,1.8769,1.9525,2.0179,2.151,2.264,2.3128,2.1391,2.157,2.579,2.6463,2.7609,3.043,3.3185,3.4735,3.4485,3.4735,3.3994,3.1917,3.3749,3.3983,3.1933,3.4122,3.5263,3.4984,3.3449,3.1657,2.9597,2.7741,2.5799,2.3808,2.3764,2.3627,2.3395,2.3414,2.4667,2.6943,3.0573,3.0679,2.8606,3.0752,3.1586,3.1627,3.1954,3.3464,3.5387,3.5387,3.5387,3.5387,3.5387,3.5387,3.5387,3.5387,3.5387,3.5387,3.5387,3.5387,3.5387,3.5387,3.5428,3.5469,3.5469,3.5531,3.5221,3.3889,3.3592,3.293,3.0658,3.0516,3.0474,2.9358,2.7934,2.6949,2.713,2.8508,2.9583,2.9692,3.1839,3.2892,3.1424,3.2288,0.0,3.2993,2.9492,2.85,3.1643,3.1319,3.0709,3.007,3.4369,3.6239,3.4942,3.5288,3.5903,3.6769,3.5185,3.4824,3.5673,3.5879,3.5982,3.5982,3.5982,3.5982,3.5982,3.5982,3.5982,3.5982,3.5982,3.5982,3.5982,3.5982,3.5982,3.5982,3.5982,3.5982,3.5982,1.8753,1.9086,1.9298,1.927,2.1073,2.3125,2.4926,2.4565,2.5445,2.926,2.8951,2.9862,3.3639,3.4327,3.4579,3.4797,3.4859,3.4727,3.4309,3.4666,3.4831,3.4686,3.5149,3.5356,3.5294,3.3402,3.146,2.9597,2.7568,2.5613,2.3787,2.3581,2.3442,2.3395,2.3568,2.4616,2.6237,2.662,2.7207,2.8142,3.0627,3.1586,3.1836,3.3933,3.5004,3.5387,3.5387,3.5387,3.5387,3.5387,3.5387,3.5387,3.5387,3.5387,3.5387,3.5387,3.5387,3.5387,3.5387,3.5676,3.5997,3.5997,3.6287,3.6473,3.6226,3.6143,3.6019,3.5552,3.5531,3.5011,3.3152,2.9829,2.7968,2.9782,3.0,3.0975,3.3978,3.4823,3.466,3.3221,3.2795,3.253,3.2372,3.1229,3.1386,3.364,3.1692,3.1877,3.5338,3.5171,3.5749,3.7461,3.7594,3.6802,3.5046,3.6051,3.5694,3.3945,3.5342,3.5982,3.5982,3.5982,3.5982,3.5982,3.5982,3.5982,3.5982,3.5982,3.5982,3.5982,3.5982,3.5982,3.5982,3.5982,3.5982,3.5982,1.8807,1.8995,1.9468,2.0485,2.2603,2.5028,2.7596,2.8604,2.9337,3.0004,3.0238,3.0902,3.2295,3.38,3.4579,3.4392,3.4548,3.4641,3.4641,3.4797,3.4984,3.5139,3.5294,3.5387,3.5387,3.4401,3.2413,2.9392,2.8374,2.636,2.3393,2.3511,2.3549,2.3614,2.5069,2.6001,2.6579,2.8564,2.9678,3.0344,3.2656,3.3568,3.3684,3.4921,3.5387,3.5387,3.5387,3.5552,3.5749,3.5469,3.5387,3.5428,3.5707,3.5738,3.58,3.6028,3.6142,3.6142,3.6142,3.6308,3.6473,3.6473,3.6639,3.6804,3.6804,3.6804,3.6804,3.6804,3.6804,3.6164,3.4098,3.0964,2.9333,3.1127,3.0407,3.0646,3.3514,3.4907,3.5097,3.3676,3.2956,3.2771,3.3243,3.2127,3.1492,3.1797,3.0991,3.1065,3.2302,3.3937,3.5249,3.6175,3.6477,3.6432,3.6163,3.5698,3.5344,3.507,3.5675,3.5982,3.5982,3.5982,3.5982,3.5982,3.5982,3.5982,3.5982,3.5982,3.5982,3.5982,3.5982,3.5982,3.5982,3.5982,3.6471,3.7092,1.9241,1.9048,1.9716,2.2455,2.447,2.6716,2.9683,3.1781,3.2427,3.0836,3.1443,3.1808,3.117,3.3316,3.4579,3.4047,3.4298,3.4517,3.4517,3.4766,3.4922,3.5015,3.5263,3.5387,3.5387,3.5387,3.3576,2.9868,2.9517,2.7342,2.3517,2.3771,2.41,2.4608,2.6562,2.7693,2.8364,3.1689,3.304,3.3114,3.4723,3.5387,3.5387,3.5387,3.5449,3.5531,3.5531,3.5842,3.6204,3.58,3.5676,3.5738,3.6142,3.6266,3.6328,3.6701,3.6804,3.6804,3.6804,3.6867,3.6949,3.6949,3.7032,3.7094,3.7094,3.7094,3.7094,3.7094,3.7094,3.6454,3.439,3.2196,3.0942,3.1719,3.0942,3.0857,3.2587,3.498,3.5947,3.4246,3.3754,3.3788,3.4344,3.2694,3.1128,3.0062,3.0949,3.1024,2.9833,3.3131,3.4997,3.4926,3.5182,3.5788,3.6793,3.5369,3.5107,3.5977,3.6051,3.6084,3.5982,3.6084,3.6084,3.6016,3.6321,3.6606,3.691,3.691,3.691,3.691,3.691,3.691,3.691,3.691,3.7595,3.8606,2.0925,1.9697,1.9851,2.4555,2.5557,2.6713,2.9744,3.2244,3.3814,3.3957,3.3522,3.3437,3.3966,3.4271,3.4423,3.436,3.4673,3.4859,3.4859,3.4891,3.5046,3.5325,3.5387,3.5387,3.5387,3.5387,3.4286,3.2016,3.0553,2.8248,2.5164,2.4652,2.5434,2.7206,2.6989,2.8973,3.2553,3.2916,3.3872,3.5128,3.5304,3.5387,3.5387,3.5387,3.5656,3.6007,3.6007,3.6349,3.6742,3.668,3.668,3.668,3.6722,3.6742,3.6742,3.6784,3.6804,3.6804,3.6804,3.7115,3.7425,3.7425,3.7736,3.8046,3.8046,3.8046,3.8046,3.8046,3.8046,3.7429,3.535,3.4085,3.2916,3.1581,3.2447,3.351,3.4135,3.7422,3.8806,3.6156,3.6205,3.5991,3.4873,3.3141,3.1967,3.1623,3.3077,3.4268,3.4854,3.485,3.5407,3.6643,3.6222,3.5415,3.4165,3.5933,3.5937,3.4245,3.5752,3.6302,3.6016,3.6302,3.6302,3.6084,3.7361,3.8639,3.9801,3.9801,3.9801,3.9801,3.9801,3.9801,3.9801,3.9801,3.9866,4.0257,2.3496,2.3169,2.3848,2.7415,2.8242,2.9313,3.2027,3.3088,3.3733,3.4047,3.4047,3.4047,3.4079,3.4267,3.4485,3.4673,3.4828,3.4984,3.5201,3.5201,3.5263,3.5387,3.5387,3.5387,3.5387,3.5387,3.436,3.2295,3.0406,2.8224,2.583,2.5851,2.7161,2.9487,3.0248,3.1527,3.316,3.4093,3.4846,3.5387,3.5387,3.5387,3.5428,3.5697,3.5956,3.6142,3.6432,3.6825,3.7218,3.7218,3.7032,3.6846,3.7136,3.7218,3.7281,3.755,3.7632,3.7632,3.7632,3.7777,3.7902,3.7902,3.8046,3.8191,3.8191,3.8191,3.8191,3.8191,3.8191,3.7935,3.7099,3.5414,3.4411,3.5299,3.4703,3.4715,3.6445,3.8021,3.7974,3.5233,3.3994,3.3734,3.4713,3.1626,3.0943,3.431,3.3619,3.3118,3.3309,3.4268,3.5064,3.5599,3.6756,3.6639,3.5201,3.6479,3.6669,3.5868,3.7146,3.7575,3.7294,3.8486,3.8849,3.854,3.9134,3.967,4.0192,4.0192,4.0399,4.0694,4.0694,4.0869,4.1165,4.1165,4.1672,4.2472,2.6055,2.5957,2.6713,2.9961,3.0263,3.0868,3.3378,3.3544,3.3481,3.3733,3.4047,3.4173,3.3922,3.4298,3.4641,3.4891,3.4984,3.5139,3.5387,3.5387,3.5387,3.5387,3.5387,3.5387,3.5387,3.5387,3.4661,3.321,3.1293,2.9433,2.7717,2.7427,2.8758,3.1454,3.242,3.3186,3.3859,3.494,3.5387,3.5407,3.5531,3.5625,3.5666,3.6142,3.639,3.6556,3.6887,3.7301,3.7695,3.7695,3.7488,3.726,3.7591,3.7695,3.7757,3.8088,3.8191,3.8191,3.8191,3.8191,3.8191,3.8191,3.8191,3.8191,3.8191,3.8191,3.8191,3.8191,3.8191,3.8191,3.8191,3.6725,3.5863,3.6912,3.6206,3.5884,3.6954,3.8079,3.7759,3.502,3.3437,3.3257,3.4989,3.1576,3.127,3.619,3.4819,3.352,3.2948,3.4113,3.5007,3.5391,3.6822,3.715,3.6213,3.7311,3.7829,3.7709,3.8927,3.9289,3.8915,4.0062,4.0777,4.1191,4.1094,4.1377,4.1901,4.1901,4.2103,4.2452,4.2452,4.2655,4.3003,4.3003,4.3598,4.4431,2.8379,2.7162,2.7201,3.1934,3.1025,3.0478,3.3027,3.3386,3.3386,3.3418,3.3702,3.389,3.389,3.4485,3.4891,3.4891,3.5201,3.5387,3.5387,3.5387,3.5387,3.5387,3.5387,3.5387,3.5387,3.5387,3.5387,3.5345,3.3818,3.2525,3.1487,2.9434,3.0111,3.3063,3.2539,3.346,3.5366,3.5387,3.5387,3.5428,3.5883,3.6101,3.6163,3.6618,3.7074,3.7467,3.7488,3.7777,3.8171,3.8171,3.8171,3.8171,3.8171,3.8171,3.8171,3.8191,3.8191,3.8191,3.8191,3.8191,3.8191,3.8191,3.8191,3.8191,3.8191,3.8191,3.8191,3.8191,3.8191,3.8191,3.8191,3.815,3.7357,3.4849,3.6528,3.7295,3.4787,3.7768,3.9159,3.6406,3.6013,3.5978,3.6075,3.3993,3.383,3.6676,3.7293,3.6952,3.5627,3.5057,3.543,3.682,3.6406,3.6205,3.6389,3.8562,3.9485,3.9103,4.0837,4.1309,4.0656,4.0354,4.1398,4.3432,4.3189,4.4135,4.5846,4.5846,4.5846,4.5846,4.5846,4.5846,4.5846,4.5846,4.587,4.5974,3.1348,3.1016,3.1113,3.291,3.2656,3.248,3.3269,3.3386,3.3481,3.3702,3.4047,3.4329,3.4548,3.4766,3.4984,3.5232,3.5325,3.5387,3.5387,3.5387,3.5387,3.5387,3.5387,3.5387,3.5387,3.5387,3.5387,3.5387,3.3489,3.2385,3.2072,3.1395,3.2385,3.4669,3.4493,3.4765,3.5387,3.5387,3.5573,3.5914,3.6059,3.6308,3.6639,3.7094,3.7363,3.7529,3.786,3.8067,3.8191,3.8191,3.8191,3.8191,3.8191,3.8191,3.8191,3.8191,3.8191,3.8191,3.8191,3.8191,3.8191,3.8191,3.8191,3.8191,3.8191,3.8191,3.8191,3.8191,3.8419,3.8613,3.8613,3.8861,3.8812,3.8009,3.8308,3.8336,3.7512,3.675,3.5219,3.2458,3.06,3.0553,3.3237,3.1983,3.2629,3.6541,3.6073,3.5616,3.5609,3.6878,3.6928,3.5496,3.681,3.7537,3.754,3.8993,4.0105,4.0869,4.1447,4.1778,4.1913,4.3636,4.4302,4.4086,4.4748,4.5349,4.5902,4.5902,4.6118,4.6463,4.6463,4.668,4.6992,4.6992,4.6992,4.7016,3.2949,3.3027,3.3105,3.3347,3.3386,3.3386,3.3386,3.3513,3.367,3.3859,3.4298,3.4673,3.4891,3.5015,3.517,3.5387,3.5387,3.5387,3.5387,3.5387,3.5387,3.5387,3.5387,3.5387,3.5387,3.5387,3.5387,3.5387,3.4099,3.3451,3.3451,3.3451,3.4161,3.5387,3.5387,3.5387,3.5407,3.5573,3.5821,3.6142,3.6494,3.6804,3.7115,3.757,3.7757,3.7798,3.8088,3.8191,3.8191,3.8191,3.8191,3.8191,3.8191,3.8191,3.8191,3.8191,3.8191,3.8191,3.8191,3.8191,3.8191,3.8191,3.8191,3.8191,3.8191,3.8191,3.8191,3.8191,3.8398,3.8572,3.8572,3.8799,3.8985,3.8985,3.8758,3.8199,3.7165,3.5458,3.3445,3.1222,2.9533,2.9947,3.339,3.2936,3.3999,3.778,3.7266,3.7142,3.8026,3.8079,3.7491,3.6136,3.8438,3.9375,3.8705,4.0514,4.1591,4.1965,4.2692,4.3546,4.4505,4.5965,4.6327,4.5819,4.6223,4.6504,4.6673,4.6544,4.6704,4.7016,4.7016,4.7209,4.7497,4.7497,4.7497,4.7497,3.3308,3.3386,3.3386,3.3386,3.3418,3.3418,3.3418,3.3733,3.3953,3.3985,3.4517,3.4922,3.4922,3.5201,3.5387,3.5387,3.5387,3.5387,3.5387,3.5387,3.5387,3.5387,3.5387,3.5387,3.5387,3.5387,3.5387,3.5387,3.5387,3.5387,3.5387,3.5387,3.5387,3.5387,3.5387,3.5407,3.5469,3.5904,3.6142,3.6287,3.7156,3.7508,3.7591,3.8026,3.8191,3.8191,3.8191,3.8191,3.8191,3.8191,3.8191,3.8191,3.8191,3.8191,3.8191,3.8191,3.8191,3.8191,3.8191,3.8191,3.8191,3.8191,3.8191,3.8191,3.8191,3.8191,3.8191,3.8191,3.8212,3.8233,3.8233,3.8253,3.8274,3.8274,3.8121,3.7085,3.4546,3.3986,3.3348,3.205,3.2001,3.3128,3.5862,3.6291,3.7466,4.0002,4.0274,4.0829,4.198,3.8944,3.7565,3.8444,4.0904,4.1501,4.004,4.291,4.3789,4.2681,4.4628,4.6294,4.7677,4.7311,4.7513,4.816,4.7555,4.7564,4.8026,4.7663,4.753,4.753,4.7497,4.7497,4.7497,4.7497,4.7497,4.7497,3.3367,3.3386,3.3386,3.3386,3.3607,3.3796,3.3796,3.4079,3.436,3.4641,3.4797,3.5015,3.5263,3.5356,3.5387,3.5387,3.5387,3.5387,3.5387,3.5387,3.5387,3.5387,3.5387,3.5387,3.5387,3.5387,3.5387,3.5387,3.5387,3.5387,3.5387,3.5387,3.5387,3.5387,3.5387,3.5593,3.5956,3.6028,3.6515,3.7177,3.7405,3.7715,3.8026,3.8183,3.8191,3.8191,3.8191,3.8191,3.8191,3.8191,3.8191,3.8191,3.8191,3.8191,3.8191,3.8191,3.8191,3.8191,3.8191,3.8191,3.8191,3.8191,3.8191,3.8191,3.8191,3.8191,3.8191,3.8191,3.846,3.8654,3.8654,3.8944,3.9192,3.9192,3.7286,3.5612,3.4944,3.2895,3.1301,3.0962,3.1837,3.3479,3.609,3.822,3.966,4.0083,4.1105,4.1417,4.0642,4.0801,4.1033,4.1242,4.1875,4.254,4.3201,4.4323,4.4959,4.5078,4.7057,4.7045,4.546,4.7613,4.8109,4.7257,4.7987,4.8322,4.8412,4.8026,4.7894,4.7861,4.7597,4.7497,4.7497,4.7497,4.7497,4.7497,3.3386,3.3386,3.3449,3.3607,3.3796,3.3953,3.411,3.4423,3.4704,3.4891,3.5015,3.5201,3.5387,3.5387,3.5387,3.5387,3.5387,3.5387,3.5387,3.5387,3.5387,3.5387,3.5387,3.5387,3.5387,3.5387,3.5387,3.5387,3.5387,3.5387,3.5387,3.5387,3.5387,3.5407,3.5614,3.5842,3.6142,3.6556,3.7032,3.7508,3.7715,3.7964,3.8191,3.8191,3.8191,3.8191,3.8191,3.8191,3.8191,3.8191,3.8191,3.8191,3.8191,3.8191,3.8191,3.8191,3.8191,3.8191,3.8191,3.8191,3.8191,3.8191,3.8191,3.8191,3.8191,3.8191,3.8191,3.8191,3.8378,3.851,3.851,3.8716,3.8916,3.8916,3.6866,3.535,3.5529,3.3465,3.2428,3.3856,3.4682,3.6136,3.8807,4.0392,4.1476,4.1998,4.214,4.2404,4.2895,4.3069,4.2849,4.2218,4.3655,4.4518,4.4674,4.5413,4.6262,4.7216,4.7878,4.7702,4.6951,4.8574,4.8885,4.8174,4.8616,4.8837,4.8804,4.8223,4.7993,4.796,4.763,4.7597,4.7729,4.7729,4.7828,4.7984,3.3481,3.3481,3.3576,3.3922,3.4016,3.4141,3.4423,3.4766,3.4984,3.4984,3.5232,3.5387,3.5387,3.5387,3.5387,3.5387,3.5387,3.5387,3.5387,3.5387,3.5387,3.5387,3.5387,3.5387,3.5387,3.5387,3.5387,3.5387,3.5387,3.5387,3.5387,3.5469,3.549,3.5511,3.6018,3.6266,3.637,3.7156,3.7529,3.7632,3.8026,3.8191,3.8191,3.8191,3.8191,3.8191,3.8191,3.8191,3.8191,3.8191,3.8191,3.8191,3.8191,3.8191,3.8191,3.8191,3.8191,3.8191,3.8191,3.8191,3.8191,3.8191,3.8191,3.8191,3.8191,3.8191,3.8191,3.8191,3.8191,3.8191,3.8191,3.8191,3.808,3.7698,3.5997,3.4912,3.5483,3.4099,3.4303,3.7725,3.8485,3.9725,4.2286,4.2698,4.3326,4.4497,4.3482,4.3872,4.6305,4.5343,4.4209,4.3097,4.5686,4.6656,4.5663,4.6496,4.7611,4.8912,4.8118,4.8404,4.959,4.959,4.959,4.959,4.9299,4.917,4.9137,4.8453,4.8158,4.8125,4.7795,4.7828,4.8092,4.8092,4.8313,4.8543,3.3765,3.3827,3.3922,3.4267,3.4548,3.4766,3.4797,3.5108,3.5325,3.5325,3.5356,3.5387,3.5387,3.5387,3.5387,3.5387,3.5387,3.5387,3.5387,3.5387,3.5387,3.5387,3.5387,3.5387,3.5387,3.5387,3.5387,3.5387,3.5387,3.5387,3.5407,3.5832,3.5997,3.6018,3.6494,3.6908,3.7281,3.7425,3.7715,3.8088,3.815,3.8191,3.8191,3.8191,3.8191,3.8191,3.8191,3.8191,3.8191,3.8191,3.8191,3.8191,3.8191,3.8191,3.8191,3.8191,3.8191,3.8191,3.8191,3.8191,3.8191,3.8191,3.8191,3.8191,3.8191,3.8191,3.8191,3.8191,3.8191,3.8191,3.8191,3.8191,3.7491,3.5331,3.279,3.1576,3.2941,3.1788,3.2682,3.7748,4.025,4.2195,4.3831,4.5006,4.5762,4.5969,4.5793,4.6077,4.6918,4.679,4.678,4.7016,4.7059,4.7457,4.8233,4.8376,4.8796,4.9464,4.9314,4.9396,4.959,4.959,4.959,4.959,4.9525,4.9525,4.9493,4.9105,4.8942,4.891,4.8576,4.8445,4.851,4.851,4.8567,4.86,3.3922,3.4047,3.4267,3.461,3.4797,3.4953,3.5139,3.5294,3.5387,3.5387,3.5387,3.5387,3.5387,3.5387,3.5387,3.5387,3.5387,3.5387,3.5387,3.5387,3.5387,3.5387,3.5387,3.5387,3.5387,3.5387,3.5387,3.5387,3.5387,3.5511,3.5759,3.6018,3.6246,3.6494,3.697,3.7301,3.7508,3.7757,3.7984,3.8191,3.8191,3.8191,3.8191,3.8191,3.8191,3.8191,3.8191,3.8191,3.8191,3.8191,3.8191,3.8191,3.8191,3.8191,3.8191,3.8191,3.8191,3.8191,3.8191,3.8191,3.8191,3.8191,3.8191,3.8191,3.8191,3.8191,3.8191,3.8191,3.8191,3.8191,3.8191,3.8191,3.7378,3.4807,3.3684,3.3731,3.5501,3.5478,3.7145,4.205,4.3687,4.4675,4.5312,4.6188,4.6722,4.6722,4.7004,4.728,4.75,4.7525,4.7807,4.836,4.8134,4.841,4.9213,4.9213,4.9371,4.959,4.959,4.959,4.959,4.959,4.959,4.959,4.959,4.959,4.9558,4.9234,4.9105,4.9072,4.8739,4.8706,4.8869,4.8869,4.9,4.913,3.4141,3.4329,3.461,3.4953,3.5015,3.5108,3.5356,3.5387,3.5387,3.5387,3.5387,3.5387,3.5387,3.5387,3.5387,3.5387,3.5387,3.5387,3.5387,3.5387,3.5387,3.5387,3.5387,3.5387,3.5387,3.5387,3.5387,3.5387,3.549,3.5738,3.609,3.6328,3.6618,3.6991,3.7446,3.7653,3.7674,3.8026,3.8191,3.8191,3.8191,3.8191,3.8191,3.8191,3.8191,3.8191,3.8191,3.8191,3.8191,3.8191,3.8191,3.8191,3.8191,3.8191,3.8191,3.8191,3.8191,3.8191,3.8191,3.8191,3.8191,3.8191,3.8191,3.8191,3.8191,3.8191,3.8191,3.8191,3.8191,3.8191,3.8191,3.8437,3.7843,3.5286,3.5561,3.6783,3.8624,3.9098,4.1051,4.5895,4.6204,4.6193,4.6647,4.7023,4.7274,4.7274,4.7682,4.7958,4.8109,4.8109,4.836,4.8969,4.8994,4.9163,4.959,4.959,4.959,4.959,4.959,4.959,4.959,4.959,4.959,4.959,4.959,4.959,4.9558,4.9332,4.9234,4.9202,4.8935,4.9,4.9234,4.9234,4.9364,4.9558,3.4704,3.4859,3.4984,3.5294,3.5356,3.5356,3.5387,3.5387,3.5387,3.5387,3.5387,3.5387,3.5387,3.5387,3.5387,3.5387,3.5387,3.5387,3.5387,3.5387,3.5387,3.5387,3.5387,3.5387,3.5387,3.5387,3.5387,3.5387,3.5852,3.608,3.6121,3.6991,3.7405,3.7467,3.7922,3.8129,3.8129,3.8171,3.8191,3.8191,3.8191,3.8191,3.8191,3.8191,3.8191,3.8191,3.8191,3.8191,3.8191,3.8191,3.8191,3.8191,3.8191,3.8191,3.8191,3.8191,3.8191,3.8191,3.8191,3.8191,3.8191,3.8191,3.8191,3.8191,3.8191,3.8191,3.8191,3.8191,3.8191,3.8191,3.8191,3.9221,3.9221,3.6663,3.7184,3.8461,4.0138,3.9126,4.0402,4.6329,4.5926,4.5879,4.7608,4.7832,4.7857,4.7857,4.7883,4.8134,4.8718,4.8743,4.8994,4.9515,4.954,4.9565,4.959,4.959,4.959,4.959,4.959,4.959,4.959,4.959,4.959,4.959,4.959,4.959,4.959,4.9558,4.9558,4.9558,4.9525,4.9525,4.9558,4.9558,4.9558,4.959,3.4891,3.5077,3.5263,3.5387,3.5387,3.5387,3.5387,3.5387,3.5387,3.5387,3.5387,3.5387,3.5387,3.5387,3.5387,3.5387,3.5387,3.5387,3.5387,3.5387,3.5387,3.5387,3.5387,3.5387,3.5387,3.5387,3.5531,3.5821,3.6018,3.6411,3.697,3.7322,3.7653,3.7922,3.8109,3.8191,3.8191,3.8191,3.8191,3.8191,3.8191,3.8191,3.8191,3.8191,3.8191,3.8191,3.8191,3.8191,3.8191,3.8191,3.8191,3.8191,3.8191,3.8191,3.8191,3.8191,3.8191,3.8191,3.8191,3.8191,3.8191,3.8191,3.8191,3.8191,3.8191,3.8191,3.8191,3.8191,3.8191,3.8191,3.8191,3.9287,3.9467,3.7244,3.9295,4.1248,4.1471,4.2324,4.4115,4.7214,4.7147,4.7128,4.782,4.8234,4.8466,4.8466,4.8761,4.9038,4.9264,4.9321,4.9389,4.959,4.959,4.959,4.959,4.959,4.959,4.959,4.959,4.959,4.959,4.959,4.959,4.959,4.959,4.959,4.959,4.959,4.959,4.959,4.959,4.959,4.959,4.959,4.959,4.959,3.5077,3.5232,3.5387,3.5387,3.5387,3.5387,3.5387,3.5387,3.5387,3.5387,3.5387,3.5387,3.5387,3.5387,3.5387,3.5387,3.5387,3.5387,3.5387,3.5387,3.5387,3.5387,3.5387,3.5387,3.5387,3.5387,3.5614,3.6121,3.6266,3.6722,3.7508,3.7653,3.7881,3.8191,3.8191,3.8191,3.8191,3.8191,3.8191,3.8191,3.8191,3.8191,3.8191,3.8191,3.8191,3.8191,3.8191,3.8191,3.8191,3.8191,3.8191,3.8191,3.8191,3.8191,3.8191,3.8191,3.8191,3.8191,3.8191,3.8191,3.8191,3.8191,3.8191,3.8191,3.8191,3.8191,3.8191,3.8191,3.8191,3.8379,3.897,4.017,4.0839,4.0061,4.2576,4.4441,4.3979,4.5447,4.6929,4.8065,4.8184,4.8259,4.8435,4.8786,4.9069,4.9069,4.9389,4.959,4.959,4.959,4.959,4.959,4.959,4.959,4.959,4.959,4.959,4.959,4.959,4.959,4.959,4.959,4.959,4.959,4.959,4.959,4.959,4.959,4.959,4.959,4.959,4.959,4.959,4.959,4.959,4.959,3.5325,3.5387,3.5387,3.5387,3.5387,3.5387,3.5387,3.5387,3.5387,3.5387,3.5387,3.5387,3.5387,3.5387,3.5387,3.5387,3.5387,3.5387,3.5387,3.5387,3.5387,3.5387,3.5387,3.5387,3.5387,3.5387,3.5645,3.6121,3.6577,3.7053,3.7508,3.7964,3.8191,3.8191,3.8191,3.8191,3.8191,3.8191,3.8191,3.8191,3.8191,3.8191,3.8191,3.8191,3.8191,3.8191,3.8191,3.8191,3.8191,3.8191,3.8191,3.8191,3.8191,3.8191,3.8191,3.8191,3.8191,3.8191,3.8191,3.8191,3.8191,3.8191,3.8191,3.8191,3.8191,3.8191,3.8191,3.8191,3.8225,3.8783,4.0682,4.2161,4.3714,4.5614,4.7037,4.7908,4.7908,4.7933,4.8134,4.8743,4.8818,4.9019,4.954,4.959,4.959,4.959,4.959,4.959,4.959,4.959,4.959,4.959,4.959,4.959,4.959,4.959,4.959,4.959,4.959,4.959,4.959,4.959,4.959,4.959,4.959,4.959,4.959,4.959,4.959,4.959,4.959,4.959,4.959,4.959,4.959,4.9615,3.5387,3.5387,3.5387,3.5387,3.5387,3.5387,3.5387,3.5387,3.5387,3.5387,3.5387,3.5387,3.5387,3.5387,3.5387,3.5387,3.5387,3.5387,3.5387,3.5387,3.5387,3.5387,3.5387,3.5387,3.5387,3.5718,3.6121,3.6597,3.7053,3.7529,3.7984,3.8129,3.8191,3.8191,3.8191,3.8191,3.8191,3.8191,3.8191,3.8191,3.8191,3.8191,3.8191,3.8191,3.8191,3.8191,3.8191,3.8191,3.8191,3.8191,3.8191,3.8191,3.8191,3.8191,3.8191,3.8191,3.8191,3.8191,3.8191,3.8191,3.8191,3.8191,3.8191,3.8191,3.8191,3.8419,3.8613,3.8613,3.8882,3.9608,4.1214,4.259,4.4161,4.6133,4.7604,4.8661,4.9038,4.9088,4.9163,4.9339,4.9339,4.9414,4.9565,4.959,4.959,4.959,4.959,4.959,4.959,4.959,4.959,4.959,4.959,4.959,4.959,4.959,4.959,4.959,4.959,4.959,4.959,4.959,4.959,4.959,4.959,4.959,4.959,4.959,4.959,4.959,4.959,4.959,4.959,4.959,4.9841,5.0167,3.5387,3.5387,3.5387,3.5387,3.5387,3.5387,3.5387,3.5387,3.5387,3.5387,3.5387,3.5387,3.5387,3.5387,3.5387,3.5387,3.5387,3.5387,3.5387,3.5387,3.5387,3.5387,3.5573,3.5676,3.5676,3.5945,3.6432,3.7074,3.7363,3.7736,3.8191,3.8191,3.8191,3.8191,3.8191,3.8191,3.8191,3.8191,3.8191,3.8191,3.8191,3.8191,3.8191,3.8191,3.8191,3.8191,3.8191,3.8191,3.8191,3.8191,3.8191,3.8191,3.8191,3.8191,3.8191,3.8191,3.8191,3.8191,3.8191,3.8191,3.8233,3.8398,3.8316,3.8233,3.8398,3.8613,3.8861,3.9047,3.9775,4.0874,4.2537,4.3972,4.5548,4.7524,4.8551,4.9213,4.954,4.959,4.959,4.959,4.959,4.959,4.959,4.959,4.959,4.959,4.959,4.959,4.959,4.959,4.959,4.959,4.959,4.959,4.959,4.959,4.959,4.959,4.959,4.959,4.959,4.959,4.959,4.959,4.959,4.959,4.959,4.959,4.959,4.9615,4.9841,4.9916,4.9941,5.0167,5.0469,5.077,3.5387,3.5387,3.5387,3.5387,3.5387,3.5387,3.5387,3.5387,3.5387,3.5387,3.5387,3.5387,3.5387,3.5387,3.5387,3.5387,3.5387,3.5387,3.5387,3.5387,3.5407,3.5449,3.5862,3.6142,3.6225,3.6246,3.6639,3.7488,3.7529,3.7777,3.8191,3.8191,3.8191,3.8191,3.8191,3.8191,3.8191,3.8191,3.8191,3.8191,3.8191,3.8191,3.8191,3.8191,3.8191,3.8191,3.8191,3.8191,3.8191,3.8191,3.8191,3.8191,3.8191,3.8191,3.8191,3.8191,3.8191,3.8225,3.8233,3.8253,3.8357,3.8758,3.8706,3.8566,3.8812,3.9005,3.9252,3.9688,4.0951,4.2604,4.4497,4.5893,4.7394,4.9264,4.959,4.959,4.959,4.959,4.959,4.959,4.959,4.959,4.959,4.959,4.959,4.959,4.959,4.959,4.959,4.959,4.959,4.959,4.959,4.959,4.959,4.959,4.959,4.959,4.959,4.959,4.959,4.959,4.959,4.959,4.959,4.9615,4.9665,4.9665,4.969,4.9791,5.0293,5.0494,5.0569,5.1096,5.1322,5.1373,3.5387,3.5387,3.5387,3.5387,3.5387,3.5387,3.5387,3.5387,3.5387,3.5387,3.5387,3.5387,3.5387,3.5387,3.5387,3.5387,3.5387,3.5387,3.5387,3.5387,3.5552,3.5924,3.6059,3.6453,3.7177,3.7198,3.7301,3.7488,3.786,3.8088,3.8191,3.8191,3.8191,3.8191,3.8191,3.8191,3.8191,3.8191,3.8191,3.8191,3.8191,3.8191,3.8191,3.8191,3.8191,3.8191,3.8191,3.8191,3.8191,3.8191,3.8191,3.8191,3.8191,3.8191,3.8191,3.8191,3.8191,3.8253,3.8572,3.8675,3.8778,3.9233,4.0142,4.0666,3.9591,4.0536,4.1649,4.1757,4.3204,4.4923,4.648,4.7035,4.7741,4.9339,4.959,4.959,4.959,4.959,4.959,4.959,4.959,4.959,4.959,4.959,4.959,4.959,4.959,4.959,4.959,4.959,4.959,4.959,4.959,4.959,4.959,4.959,4.959,4.959,4.959,4.959,4.959,4.959,4.959,4.959,4.959,4.9841,5.0243,5.0243,5.0519,5.0921,5.1046,5.1096,5.1096,5.1247,5.1548,5.2,3.5387,3.5387,3.5387,3.5387,3.5387,3.5387,3.5387,3.5387,3.5387,3.5387,3.5387,3.5387,3.5387,3.5387,3.5387,3.5387,3.5387,3.5387,3.5387,3.5387,3.5593,3.6101,3.6328,3.6763,3.7488,3.7715,3.7819,3.7819,3.8067,3.8191,3.8191,3.8191,3.8191,3.8191,3.8191,3.8191,3.8191,3.8191,3.8191,3.8191,3.8191,3.8191,3.8191,3.8191,3.8191,3.8191,3.8191,3.8191,3.8191,3.8191,3.8191,3.8191,3.8191,3.8191,3.8191,3.8191,3.8336,3.851,3.8758,3.8985,3.9426,4.0586,4.146,4.1835,4.107,4.2214,4.3511,4.3701,4.5105,4.6502,4.7235,4.7986,4.8698,4.9461,4.959,4.959,4.959,4.959,4.959,4.959,4.959,4.959,4.959,4.959,4.959,4.959,4.959,4.959,4.959,4.959,4.959,4.959,4.959,4.959,4.959,4.959,4.959,4.959,4.959,4.959,4.9615,4.9866,4.9992,4.9992,5.0293,5.0569,5.082,5.082,5.0996,5.1331,5.1574,5.1674,5.1699,5.1975,5.2251,5.2494,3.5387,3.5387,3.5387,3.5387,3.5387,3.5387,3.5387,3.5387,3.5387,3.5387,3.5387,3.5387,3.5387,3.5387,3.5387,3.5387,3.5387,3.5387,3.5387,3.5469,3.5718,3.6204,3.668,3.7136,3.7612,3.7984,3.8191,3.8191,3.8191,3.8191,3.8191,3.8191,3.8191,3.8191,3.8191,3.8191,3.8191,3.8191,3.8191,3.8191,3.8191,3.8191,3.8191,3.8191,3.8191,3.8191,3.8191,3.8191,3.8191,3.8191,3.8191,3.8258,3.847,3.8433,3.8362,3.8595,3.8975,3.9297,3.938,3.9899,4.0792,4.2479,4.3068,4.325,4.325,4.4198,4.5152,4.5501,4.6736,4.7788,4.7788,4.8787,4.959,4.959,4.959,4.959,4.959,4.959,4.959,4.959,4.959,4.959,4.959,4.959,4.959,4.959,4.959,4.959,4.959,4.959,4.959,4.959,4.959,4.959,4.959,4.969,4.9741,4.9741,4.9841,4.9841,4.9766,5.0318,5.0569,5.0594,5.1071,5.1348,5.1423,5.1423,5.1473,5.1599,5.2076,5.2251,5.2302,5.2719,5.2895,5.2895,3.5387,3.5387,3.5387,3.5387,3.5387,3.5387,3.5387,3.5387,3.5387,3.5387,3.5387,3.5387,3.5387,3.5387,3.5387,3.5387,3.5387,3.5387,3.5387,3.5759,3.6225,3.668,3.7156,3.7612,3.8088,3.815,3.8191,3.8191,3.8191,3.8191,3.8191,3.8191,3.8191,3.8191,3.8191,3.8191,3.8191,3.8191,3.8191,3.8191,3.8191,3.8191,3.8191,3.8191,3.8191,3.8191,3.8191,3.8191,3.8191,3.8191,3.8191,3.8404,3.9583,3.9365,3.8953,4.0184,4.0908,4.1419,4.1798,4.2881,4.4051,4.4686,4.5781,4.6741,4.6741,4.6874,4.7031,4.7103,4.8273,4.9299,4.9299,4.9461,4.959,4.959,4.959,4.959,4.959,4.959,4.959,4.959,4.959,4.959,4.959,4.959,4.959,4.959,4.959,4.959,4.959,4.959,4.959,4.959,4.959,4.959,4.959,5.0067,5.0293,5.0318,5.082,5.0795,5.0318,5.0896,5.1205,5.1172,5.1247,5.1548,5.2,5.2,5.2277,5.2669,5.2744,5.277,5.2795,5.287,5.2895,5.2895,3.5387,3.5387,3.5387,3.5387,3.5387,3.5387,3.5387,3.5387,3.5387,3.5387,3.5387,3.5387,3.5387,3.5387,3.5387,3.5387,3.5387,3.549,3.5759,3.5966,3.6432,3.7156,3.7384,3.7715,3.8171,3.8191,3.8191,3.8191,3.8191,3.8191,3.8191,3.8191,3.8191,3.8191,3.8191,3.8191,3.8191,3.8191,3.8191,3.8191,3.8191,3.8191,3.8191,3.8191,3.8191,3.8191,3.8191,3.8191,3.8304,3.9057,3.932,3.9625,4.128,4.1525,4.1386,4.2301,4.2926,4.3354,4.3579,4.4266,4.5182,4.6164,4.6903,4.7623,4.8436,4.8632,4.8632,4.8632,4.9145,4.959,4.959,4.959,4.959,4.959,4.959,4.959,4.959,4.959,4.959,4.959,4.959,4.959,4.959,4.959,4.959,4.959,4.959,4.959,4.959,4.959,4.959,4.959,4.959,4.9741,5.0042,5.0293,5.0569,5.0921,5.1473,5.1448,5.0921,5.1473,5.1749,5.1749,5.2076,5.2352,5.2578,5.2578,5.2669,5.2895,5.2895,5.2895,5.2895,5.2895,5.2895,5.2895]},{"header":{"parameterUnit":"m.s-1","parameterCategory":1,"la1":30.6,"la2":28.766,"lo1":-90.7593,"lo2":-88.6598,"dy":0.0162,"dx":0.0183,"nx":116,"ny":114,"refTime":"2023-04-06T06:00:00:Z","depth":0,"parameterNumber":3,"parameterNumberName":"V-component_of_WINDS"},"data":[0.0,0.0,0.0,0.0,0.0,0.0,0.0,0.0,0.0,0.0,0.0,0.0,0.0,0.0,0.0,0.0,0.0,0.0,0.0,0.0,0.0,0.0,0.0,0.0,0.0,0.0,0.0,0.0,0.0,0.0,0.0,0.0,0.0,0.0,0.0,0.0,0.0,0.0,0.0,0.0,0.0,0.0,0.0,0.0,0.0,0.0,0.0,0.0,0.0,0.0,0.0,0.0,0.0,0.0,0.0,0.0,0.0,0.0,0.0,0.0,0.0,0.0,0.0,0.0,0.0,0.0,0.0,0.0,0.0,0.0,0.0,0.0,0.0,0.0,0.0,0.0,0.0,0.0,0.0,0.0,0.0,0.0,0.0,0.0,0.0,0.0,0.0,0.0,0.0,0.0,0.0,0.0,0.0,0.0,0.0,0.0,0.0,0.0,0.0,0.0,0.0,0.0,0.0,0.0,0.0,0.0,0.0,0.0,0.0,0.0,0.0,0.0,0.0,0.0,0.0,0.0,0.0,0.0,0.0,0.0,0.0,0.0,0.0,0.0,0.0,0.0,0.0,0.0,0.0,0.0,0.0,0.0,0.0,0.0,0.0,0.0,0.0,0.0,0.0,0.0,0.0,0.0,0.0,0.0,0.0,0.0,0.0,0.0,0.0,0.0,0.0,0.0,0.0,0.0,0.0,0.0,0.0,0.0,0.0,0.0,0.0,0.0,0.0,0.0,0.0,0.0,0.0,0.0,0.0,0.0,0.0,0.0,0.0,0.0,0.0,0.0,0.0,0.0,0.0,0.0,0.0,0.0,0.0,0.0,0.0,0.0,0.0,0.0,0.0,0.0,0.0,0.0,0.0,0.0,0.0,0.0,0.0,0.0,0.0,0.0,0.0,0.0,0.0,0.0,0.0,0.0,0.0,0.0,0.0,0.0,0.0,0.0,0.0,0.0,0.0,0.0,0.0,0.0,0.0,0.0,0.0,0.0,0.0,0.0,0.0,0.0,0.0,0.0,0.0,0.0,0.0,0.0,0.0,0.0,0.0,0.0,0.0,0.0,0.0,0.0,0.0,0.0,0.0,0.0,0.0,0.0,0.0,0.0,0.0,0.0,0.0,0.0,0.0,0.0,0.0,0.0,0.0,0.0,0.0,0.0,0.0,0.0,0.0,0.0,0.0,0.0,0.0,0.0,0.0,0.0,0.0,0.0,0.0,0.0,0.0,0.0,0.0,0.0,0.0,0.0,0.0,0.0,0.0,0.0,0.0,0.0,0.0,0.0,0.0,0.0,0.0,0.0,0.0,0.0,0.0,0.0,0.0,0.0,0.0,0.0,0.0,0.0,0.0,0.0,0.0,0.0,0.0,0.0,0.0,0.0,0.0,0.0,0.0,0.0,0.0,0.0,0.0,0.0,0.0,0.0,0.0,0.0,0.0,0.0,0.0,0.0,0.0,0.0,0.0,0.0,0.0,0.0,0.0,0.0,0.0,0.0,0.0,0.0,0.0,0.0,0.0,0.0,0.0,0.0,0.0,0.0,0.0,0.0,0.0,0.0,0.0,0.0,0.0,0.0,0.0,0.0,0.0,0.0,0.0,0.0,0.0,0.0,0.0,0.0,0.0,0.0,0.0,0.0,0.0,0.0,0.0,0.0,0.0,0.0,0.0,0.0,0.0,0.0,0.0,0.0,0.0,0.0,0.0,0.0,0.0,0.0,0.0,0.0,0.0,0.0,0.0,0.0,0.0,0.0,0.0,0.0,0.0,0.0,0.0,0.0,0.0,0.0,0.0,0.0,0.0,0.0,0.0,0.0,0.0,0.0,0.0,0.0,0.0,0.0,0.0,0.0,0.0,0.0,0.0,0.0,0.0,0.0,0.0,0.0,0.0,0.0,0.0,0.0,0.0,0.0,0.0,0.0,0.0,0.0,0.0,0.0,0.0,0.0,0.0,0.0,0.0,0.0,0.0,0.0,0.0,0.0,0.0,0.0,0.0,0.0,0.0,0.0,0.0,0.0,0.0,0.0,0.0,0.0,0.0,0.0,0.0,0.0,0.0,0.0,0.0,0.0,0.0,0.0,0.0,0.0,0.0,0.0,0.0,0.0,0.0,0.0,0.0,0.0,0.0,0.0,0.0,0.0,0.0,0.0,0.0,0.0,0.0,0.0,0.0,0.0,0.0,0.0,0.0,0.0,0.0,0.0,0.0,0.0,0.0,0.0,0.0,0.0,0.0,0.0,0.0,0.0,0.0,0.0,0.0,0.0,0.0,0.0,0.0,0.0,0.0,0.0,0.0,0.0,0.0,0.0,0.0,0.0,0.0,0.0,0.0,0.0,0.0,0.0,0.0,0.0,0.0,0.0,0.0,0.0,0.0,0.0,0.0,0.0,0.0,0.0,0.0,0.0,0.0,0.0,0.0,0.0,0.0,0.0,0.0,0.0,0.0,0.0,0.0,0.0,0.0,0.0,0.0,0.0,0.0,0.0,0.0,0.0,0.0,0.0,0.0,0.0,0.0,0.0,0.0,0.0,0.0,0.0,0.0,0.0,0.0,0.0,0.0,0.0,0.0,0.0,0.0,0.0,0.0,0.0,0.0,0.0,0.0,0.0,0.0,0.0,0.0,0.0,0.0,0.0,0.0,0.0,0.0,0.0,0.0,0.0,0.0,0.0,0.0,0.0,0.0,0.0,0.0,0.0,0.0,0.0,0.0,0.0,0.0,0.0,0.0,0.0,0.0,0.0,0.0,0.0,0.0,0.0,0.0,0.0,0.0,0.0,0.0,0.0,0.0,0.0,0.0,0.0,0.0,0.0,0.0,0.0,0.0,0.0,0.0,0.0,0.0,0.0,0.0,0.0,0.0,0.0,0.0,0.0,0.0,0.0,0.0,0.0,0.0,0.0,0.0,0.0,0.0,0.0,0.0,0.0,0.0,0.0,0.0,0.0,0.0,0.0,0.0,0.0,0.0,0.0,0.0,0.0,0.0,0.0,0.0,0.0,0.0,0.0,0.0,0.0,0.0,0.0,0.0,0.0,0.0,0.0,0.0,0.0,0.0,0.0,0.0,0.0,0.0,0.0,0.0,0.0,0.0,0.0,0.0,0.0,0.0,0.0,0.0,0.0,0.0,0.0,0.0,0.0,0.0,0.0,0.0,0.0,0.0,0.0,0.0,0.0,0.0,0.0,0.0,0.0,0.0,0.0,0.0,0.0,0.0,0.0,0.0,0.0,0.0,0.0,0.0,0.0,0.0,0.0,0.0,0.0,0.0,0.0,0.0,0.0,0.0,0.0,0.0,0.0,0.0,0.0,0.0,0.0,0.0,0.0,0.0,0.0,0.0,0.0,0.0,0.0,0.0,0.0,0.0,0.0,0.0,0.0,0.0,0.0,0.0,0.0,0.0,0.0,0.0,0.0,0.0,0.0,0.0,0.0,0.0,0.0,0.0,0.0,0.0,0.0,0.0,0.0,0.0,0.0,0.0,0.0,0.0,0.0,0.0,0.0,0.0,0.0,0.0,0.0,0.0,0.0,0.0,0.0,0.0,0.0,0.0,0.0,0.0,0.0,0.0,0.0,0.0,0.0,0.0,0.0,0.0,0.0,0.0,0.0,0.0,0.0,0.0,0.0,0.0,0.0,0.0,0.0,0.0,0.0,0.0,0.0,0.0,0.0,0.0,0.0,0.0,0.0,0.0,0.0,0.0,0.0,0.0,0.0,0.0,0.0,0.0,0.0,0.0,0.0,0.0,0.0,0.0,0.0,0.0,0.0,0.0,0.0,0.0,0.0,0.0,0.0,0.0,0.0,0.0,0.0,0.0,0.0,0.0,0.0,0.0,0.0,0.0,0.0,0.0,0.0,0.0,0.0,0.0,0.0,0.0,0.0,0.0,0.0,0.0,0.0,0.0,0.0,0.0,0.0,0.0,0.0,0.0,0.0,0.0,0.0,0.0,0.0,0.0,0.0,0.0,0.0,0.0,0.0,0.0,0.0,0.0,0.0,0.0,0.0,0.0,0.0,0.0,0.0,0.0,0.0,0.0,0.0,0.0,0.0,0.0,0.0,0.0,0.0,0.0,0.0,0.0,0.0,0.0,0.0,0.0,0.0,0.0,0.0,0.0,0.0,0.0,0.0,0.0,0.0,0.0,0.0,0.0,0.0,0.0,0.0,0.0,0.0,0.0,0.0,0.0,0.0,0.0,0.0,0.0,0.0,0.0,0.0,0.0,0.0,0.0,0.0,0.0,0.0,0.0,0.0,0.0,0.0,0.0,0.0,0.0,0.0,0.0,0.0,0.0,0.0,0.0,0.0,0.0,0.0,0.0,0.0,0.0,0.0,0.0,0.0,0.0,0.0,0.0,0.0,0.0,0.0,0.0,0.0,0.0,0.0,0.0,0.0,0.0,0.0,0.0,0.0,0.0,0.0,0.0,0.0,0.0,0.0,0.0,0.0,0.0,0.0,0.0,0.0,0.0,0.0,0.0,0.0,0.0,0.0,0.0,0.0,0.0,0.0,0.0,0.0,0.0,0.0,0.0,0.0,0.0,0.0,0.0,0.0,0.0,0.0,0.0,0.0,0.0,0.0,0.0,0.0,0.0,0.0,0.0,0.0,0.0,0.0,0.0,0.0,0.0,0.0,0.0,0.0,0.0,0.0,0.0,0.0,0.0,0.0,0.0,0.0,0.0,0.0,0.0,0.0,0.0,0.0,0.0,0.0,0.0,0.0,0.0,0.0,0.0,0.0,0.0,0.0,0.0,0.0,0.0,0.0,0.0,0.0,0.0,0.0,0.0,0.0,0.0,0.0,0.0,0.0,0.0,0.0,0.0,0.0,0.0,0.0,0.0,0.0,0.0,0.0,0.0,0.0,0.0,0.0,0.0,0.0,0.0,0.0,0.0,0.0,0.0,0.0,0.0,0.0,0.0,0.0,0.0,0.0,0.0,0.0,0.0,0.0,0.0,0.0,0.0,0.0,0.0,0.0,0.0,0.0,0.0,0.0,0.0,0.0,0.0,0.0,0.0,0.0,0.0,0.0,0.0,0.0,0.0,0.0,0.0,0.0,0.0,0.0,0.0,0.0,0.0,0.0,0.0,0.0,0.0,0.0,0.0,0.0,0.0,0.0,0.0,0.0,0.0,0.0,0.0,0.0,0.0,0.0,0.0,0.0,0.0,0.0,0.0,0.0,0.0,0.0,0.0,0.0,0.0,0.0,0.0,0.0,0.0,0.0,0.0,0.0,0.0,0.0,0.0,0.0,0.0,0.0,0.0,0.0,0.0,0.0,0.0,0.0,0.0,0.0,0.0,0.0,0.0,0.0,0.0,0.0,0.0,0.0,0.0,0.0,0.0,0.0,0.0,0.0,0.0,0.0,0.0,0.0,0.0,0.0,0.0,0.0,0.0,0.0,0.0,0.0,0.0,0.0,0.0,0.0,0.0,0.0,0.0,0.0,0.0,0.0,0.0,0.0,0.0,0.0,0.0,0.0,0.0,0.0,0.0,0.0,0.0,0.0,0.0,0.0,0.0,0.0,0.0,0.0,0.0,0.0,0.0,0.0,0.0,0.0,0.0,0.0,0.0,0.0,0.0,0.0,0.0,0.0,0.0,0.0,0.0,0.0,0.0,0.0,0.0,0.0,0.0,0.0,0.0,0.0,0.0,0.0,0.0,0.0,0.0,0.0,0.0,0.0,0.0,0.0,0.0,0.0,0.0,0.0,0.0,0.0,0.0,0.0,0.0,0.0,0.0,0.0,0.0,0.0,0.0,0.0,0.0,0.0,0.0,0.0,0.0,0.0,0.0,0.0,0.0,0.0,0.0,0.0,0.0,0.0,0.0,0.0,0.0,0.0,0.0,0.0,0.0,0.0,0.0,0.0,0.0,0.0,0.0,0.0,0.0,0.0,0.0,0.0,0.0,0.0,0.0,0.0,0.0,0.0,0.0,0.0,0.0,0.0,0.0,0.0,0.0,0.0,0.0,0.0,0.0,0.0,0.0,0.0,0.0,0.0,0.0,0.0,0.0,0.0,0.0,0.0,0.0,0.0,0.0,0.0,0.0,0.0,0.0,0.0,0.0,0.0,0.0,0.0,0.0,0.0,0.0,0.0,0.0,0.0,3.1768,3.0754,0.0,0.0,0.0,0.0,0.0,0.0,0.0,0.0,0.0,0.0,0.0,0.0,0.0,0.0,0.0,0.0,0.0,0.0,0.0,0.0,0.0,0.0,0.0,0.0,0.0,0.0,0.0,0.0,0.0,0.0,0.0,0.0,0.0,0.0,0.0,0.0,0.0,3.1365,3.2932,3.4679,3.6603,3.7868,3.7457,3.5688,0.0,0.0,0.0,0.0,0.0,0.0,0.0,0.0,0.0,0.0,0.0,0.0,0.0,0.0,0.0,0.0,0.0,0.0,0.0,0.0,0.0,0.0,0.0,0.0,0.0,0.0,0.0,0.0,0.0,0.0,0.0,0.0,0.0,0.0,0.0,0.0,0.0,0.0,0.0,0.0,0.0,0.0,0.0,0.0,0.0,0.0,0.0,0.0,0.0,0.0,0.0,0.0,0.0,0.0,0.0,0.0,0.0,0.0,0.0,0.0,0.0,0.0,0.0,0.0,0.0,0.0,0.0,0.0,0.0,0.0,3.5784,3.3932,0.0,0.0,0.0,0.0,0.0,0.0,0.0,0.0,0.0,0.0,0.0,0.0,0.0,0.0,0.0,0.0,0.0,0.0,0.0,0.0,0.0,0.0,0.0,3.2589,3.2253,3.2394,3.1677,3.1248,0.0,0.0,0.0,0.0,0.0,0.0,3.1188,3.1188,3.1392,3.1763,3.4395,3.7514,4.1065,4.172,4.017,3.678,3.6107,0.0,0.0,0.0,0.0,0.0,0.0,0.0,0.0,0.0,0.0,0.0,0.0,0.0,0.0,0.0,0.0,0.0,0.0,0.0,0.0,0.0,0.0,0.0,0.0,0.0,0.0,0.0,0.0,0.0,0.0,0.0,0.0,0.0,0.0,0.0,0.0,0.0,0.0,0.0,0.0,0.0,0.0,0.0,0.0,0.0,0.0,0.0,0.0,0.0,0.0,0.0,0.0,0.0,0.0,0.0,0.0,0.0,0.0,0.0,0.0,0.0,0.0,0.0,4.1497,4.1348,4.1365,4.2217,4.1879,4.0693,4.185,3.9226,3.4211,3.6327,0.0,0.0,0.0,0.0,0.0,0.0,0.0,0.0,0.0,0.0,0.0,0.0,0.0,0.0,0.0,0.0,0.0,0.0,0.0,3.3643,3.3698,3.3116,3.2717,3.2736,3.1937,3.1151,3.0428,0.0,0.0,0.0,0.0,2.9714,2.993,2.9935,3.1014,3.3204,3.5846,3.8125,4.0088,4.0187,4.0678,4.1542,4.2321,4.137,3.9102,0.0,0.0,0.0,0.0,0.0,0.0,0.0,0.0,0.0,0.0,0.0,0.0,0.0,0.0,0.0,0.0,0.0,0.0,0.0,0.0,0.0,0.0,0.0,0.0,0.0,0.0,0.0,0.0,0.0,0.0,0.0,0.0,0.0,0.0,0.0,0.0,0.0,0.0,0.0,0.0,0.0,4.0127,3.634,0.0,0.0,0.0,0.0,0.0,0.0,0.0,0.0,0.0,0.0,0.0,0.0,0.0,4.2308,4.1029,3.9838,3.9289,3.9289,4.1866,4.3081,4.3199,4.7402,4.9212,4.9009,4.9014,0.0,3.8513,3.5844,0.0,0.0,0.0,0.0,0.0,0.0,0.0,0.0,0.0,0.0,0.0,0.0,0.0,0.0,0.0,0.0,0.0,0.0,0.0,0.0,0.0,3.337,3.3512,3.3639,3.4201,3.3833,3.2168,3.2062,0.0,0.0,2.9535,2.934,2.8989,3.094,3.395,3.8066,3.9204,4.136,4.4385,4.4395,4.5263,4.6792,4.7276,4.5074,4.0922,3.8917,0.0,0.0,0.0,0.0,0.0,0.0,0.0,0.0,0.0,0.0,0.0,0.0,0.0,0.0,0.0,0.0,0.0,0.0,0.0,0.0,0.0,0.0,0.0,0.0,0.0,0.0,0.0,0.0,0.0,0.0,0.0,0.0,0.0,0.0,0.0,0.0,0.0,0.0,0.0,3.8779,3.9123,3.483,3.7164,3.7987,0.0,0.0,0.0,0.0,0.0,0.0,0.0,0.0,0.0,3.8709,4.2574,4.4074,4.277,4.4183,4.5075,4.5452,4.6883,4.7515,4.7531,4.9721,5.0694,5.0721,5.1114,4.9417,4.6199,4.2639,4.089,4.0347,0.0,0.0,0.0,0.0,3.8213,3.7908,0.0,0.0,0.0,0.0,0.0,0.0,0.0,0.0,0.0,0.0,0.0,0.0,3.3463,3.4469,3.5216,3.5382,3.6383,3.6,3.3629,3.3325,3.2076,2.9531,2.9256,2.8847,2.8181,3.226,3.6774,4.16,4.2256,4.4403,4.7893,4.7893,4.8744,5.0265,5.0218,4.7504,4.2797,4.0162,3.9019,3.8776,0.0,0.0,0.0,0.0,0.0,0.0,0.0,0.0,0.0,0.0,0.0,0.0,0.0,0.0,0.0,0.0,0.0,0.0,0.0,0.0,0.0,0.0,0.0,0.0,0.0,0.0,0.0,0.0,0.0,0.0,0.0,0.0,0.0,0.0,0.0,0.0,0.0,3.8625,3.9126,3.4247,3.7045,3.8644,0.0,0.0,0.0,0.0,0.0,0.0,3.7512,4.1442,4.2835,4.0848,4.4742,4.6386,4.5441,4.8408,5.0148,5.0643,5.0945,5.1055,5.0983,5.1275,5.1416,5.1453,5.2029,5.2187,5.1778,4.7907,4.4929,4.2814,4.2559,4.2832,4.3332,4.2446,4.2116,4.1797,0.0,0.0,0.0,0.0,0.0,0.0,0.0,0.0,0.0,0.0,0.0,3.5468,3.5532,3.7173,3.8282,3.838,3.7694,3.6212,3.3677,3.2836,3.1327,2.8785,2.7979,2.7594,2.7546,3.3356,3.807,4.16,4.402,4.6134,4.7893,4.7893,4.8769,5.0363,5.0271,4.8498,4.5584,4.542,4.397,4.148,3.7894,0.0,0.0,0.0,0.0,0.0,0.0,0.0,0.0,0.0,0.0,0.0,0.0,0.0,0.0,0.0,0.0,0.0,0.0,0.0,0.0,0.0,0.0,0.0,0.0,0.0,0.0,0.0,0.0,0.0,0.0,0.0,0.0,0.0,0.0,0.0,0.0,0.0,0.0,3.6994,3.8616,0.0,0.0,0.0,0.0,4.2068,4.245,4.1796,4.0191,4.405,4.5603,4.4015,4.8077,5.0328,5.0445,5.0655,5.0765,5.0792,5.1573,5.194,5.1977,5.2737,5.3067,5.3057,5.2998,5.2955,5.2578,4.7733,4.6895,4.812,4.2748,4.2022,4.3771,4.1461,4.0619,4.0393,0.0,0.0,0.0,0.0,0.0,0.0,0.0,0.0,3.1812,3.2068,3.369,3.4913,3.5082,3.8136,4.0169,4.0229,4.1408,4.1145,3.8695,3.6222,3.3733,3.1286,2.8879,2.9393,3.3328,3.7125,4.0808,4.4292,4.5758,4.7104,4.8219,4.8797,4.9597,5.0577,5.0522,4.9816,4.8498,4.619,4.501,4.4386,4.0958,3.8863,0.0,0.0,0.0,0.0,0.0,0.0,0.0,0.0,0.0,0.0,0.0,0.0,0.0,0.0,0.0,0.0,0.0,0.0,0.0,0.0,0.0,0.0,0.0,0.0,0.0,0.0,0.0,0.0,0.0,0.0,0.0,0.0,0.0,0.0,0.0,0.0,0.0,4.0678,4.279,0.0,4.0806,3.9587,3.9578,4.1074,4.2674,4.3553,4.352,4.7488,4.9657,4.941,5.0665,5.153,5.1888,5.1678,5.183,5.2333,5.2627,5.2784,5.2774,5.2967,5.3114,5.3203,5.2984,5.2915,5.286,5.0924,5.0678,5.1282,4.9211,4.8894,4.9448,4.8613,4.827,4.8134,0.0,0.0,0.0,0.0,0.0,0.0,0.0,3.1423,3.1372,3.2527,3.4242,3.5754,3.6793,4.0185,4.2372,4.2372,4.3911,4.3375,3.9817,3.7233,3.4268,3.071,2.9277,3.1562,3.7912,3.9735,4.2444,4.6229,4.6809,4.7695,4.8856,4.9436,5.0085,5.0769,5.072,5.0556,5.0124,4.7729,4.6973,4.7163,4.3809,4.0934,3.8535,0.0,0.0,0.0,0.0,0.0,0.0,0.0,0.0,0.0,0.0,0.0,0.0,0.0,0.0,0.0,0.0,0.0,0.0,0.0,0.0,0.0,0.0,0.0,0.0,0.0,0.0,0.0,0.0,0.0,0.0,0.0,0.0,0.0,0.0,4.1141,4.2498,4.2771,4.4521,4.5276,4.4172,4.2532,4.225,4.3973,4.5654,4.6915,4.7805,5.0474,5.2222,5.2736,5.2399,5.2422,5.2912,5.2569,5.2674,5.3214,5.3214,5.3214,5.3214,5.3103,5.3114,5.3203,5.2974,5.2904,5.297,5.2772,5.2669,5.2739,5.2694,5.2638,5.257,5.257,5.2561,5.248,0.0,0.0,0.0,0.0,0.0,0.0,3.1096,3.0583,3.1202,3.3814,3.5981,3.8272,4.0829,4.3374,4.4914,4.4914,4.4914,4.2441,3.6716,3.5606,3.2615,2.6867,2.9307,3.3928,4.0549,4.0881,4.3018,4.7119,4.7157,4.8043,4.9703,4.9742,5.0167,5.0894,5.076,5.0577,5.0374,5.0271,5.0082,4.9621,4.6348,4.3521,4.0872,0.0,0.0,0.0,0.0,0.0,0.0,0.0,0.0,0.0,0.0,0.0,0.0,0.0,0.0,0.0,0.0,0.0,0.0,0.0,0.0,0.0,0.0,0.0,0.0,0.0,0.0,0.0,0.0,0.0,0.0,0.0,0.0,0.0,3.7849,4.2895,4.5594,4.3307,4.3731,4.4852,4.6495,4.5196,4.6298,5.127,5.1652,5.1996,5.2811,5.2849,5.3098,5.3631,5.3257,5.3236,5.371,5.3359,5.3214,5.3214,5.3214,5.3214,5.3214,5.3214,5.3214,5.3203,5.306,5.298,5.297,5.2839,5.2728,5.2579,5.2538,5.2491,5.248,5.248,5.248,5.248,0.0,0.0,0.0,0.0,0.0,0.0,3.0365,2.9829,3.0413,3.3138,3.5722,3.8272,4.0829,4.3374,4.4914,4.4914,4.4914,4.3268,3.9436,3.6689,3.3409,2.9427,3.4716,3.8642,4.0517,4.3708,4.5958,4.7119,4.8353,4.9243,4.9703,5.0283,5.0709,5.0894,5.076,5.0577,5.0374,5.0271,5.0082,4.981,4.8887,4.6645,4.3753,0.0,0.0,0.0,0.0,0.0,0.0,0.0,0.0,0.0,0.0,0.0,0.0,0.0,0.0,0.0,0.0,0.0,0.0,0.0,0.0,0.0,0.0,0.0,0.0,0.0,0.0,0.0,0.0,0.0,0.0,0.0,4.1237,4.3568,4.411,4.4457,4.5583,4.7963,4.8416,4.9016,5.0086,4.978,5.0315,5.2308,5.2461,5.2843,5.3683,5.3722,5.3975,5.4465,5.4132,5.3881,5.371,5.3359,5.3214,5.3214,5.3214,5.3214,5.3214,5.3103,5.3103,5.3203,5.2974,5.285,5.2839,5.2728,5.2604,5.2538,5.2559,5.2524,5.248,5.248,5.248,5.248,0.0,0.0,0.0,0.0,0.0,0.0,2.9526,2.9197,3.0337,3.4024,3.6054,3.8516,4.2096,4.3925,4.4914,4.4914,4.3607,4.1456,3.8292,3.4923,3.3482,3.4452,3.8619,4.1629,4.3138,4.6036,4.772,4.8198,4.9204,4.9858,5.0206,5.0614,5.0821,5.0812,5.0635,5.0476,5.0308,5.0242,5.0082,4.9886,4.9886,4.7902,4.4915,4.489,4.3117,4.0636,4.059,4.0916,4.1107,3.9455,0.0,0.0,0.0,0.0,0.0,0.0,0.0,0.0,0.0,0.0,0.0,0.0,0.0,0.0,0.0,0.0,0.0,0.0,0.0,0.0,0.0,0.0,0.0,0.0,4.2832,4.6626,4.8438,4.781,4.8099,5.0544,5.1123,5.1544,5.204,5.2117,5.2461,5.3263,5.3339,5.3633,5.4347,5.4379,5.443,5.4607,5.4245,5.3944,5.371,5.3359,5.3214,5.3214,5.3214,5.3214,5.3214,5.3071,5.306,5.3103,5.2828,5.2728,5.2717,5.2604,5.2549,5.2491,0.0,0.0,0.0,0.0,5.248,5.248,0.0,0.0,0.0,0.0,0.0,0.0,2.8708,2.8846,3.0784,3.5653,3.677,3.8976,4.3864,4.4719,4.4914,4.4914,4.1917,3.8644,3.5338,3.2781,3.409,4.0145,4.1561,4.3718,4.692,4.7833,4.8716,4.9684,4.9776,5.0198,5.0874,5.076,5.0692,5.0668,5.0471,5.0308,5.0194,5.0169,5.0057,4.9886,4.9886,4.8116,4.5458,4.5458,4.3603,4.1029,4.0946,4.0974,4.1063,4.1361,0.0,0.0,0.0,0.0,0.0,0.0,0.0,0.0,0.0,0.0,0.0,0.0,0.0,0.0,0.0,0.0,0.0,0.0,0.0,0.0,0.0,0.0,0.0,0.0,4.3634,4.7461,5.1194,5.1805,5.1843,5.1767,5.2384,5.2849,5.2925,5.2964,5.3301,5.418,5.4256,5.4401,5.4776,5.4799,0.0,0.0,0.0,5.3682,5.3633,5.3339,5.3214,5.3214,5.3214,5.3214,5.3214,5.3071,5.298,5.297,5.2714,5.2613,5.259,5.2549,5.2491,5.248,5.248,5.248,5.248,5.248,5.248,5.248,0.0,0.0,0.0,0.0,0.0,0.0,2.8629,2.932,3.1438,3.5726,3.7279,3.959,4.3939,4.4719,4.4914,4.4914,4.241,3.9478,3.6174,3.7976,3.9718,4.1071,4.4587,4.6844,4.7543,4.8611,4.9246,4.9465,5.027,5.0691,5.0738,5.071,5.0596,5.0466,5.0291,5.023,5.0182,5.0025,4.9926,4.9886,4.9886,4.95,4.8925,4.8925,4.8546,4.7978,4.7971,4.794,4.7561,4.5004,4.4152,4.3629,4.0413,3.7959,0.0,0.0,0.0,0.0,0.0,0.0,0.0,0.0,0.0,0.0,0.0,0.0,0.0,0.0,0.0,0.0,0.0,0.0,0.0,4.1304,4.6926,5.1626,5.2461,5.3187,5.3378,5.2652,5.2696,5.3078,5.3798,5.3836,5.4218,5.5091,5.5129,5.5049,5.4814,5.4799,5.4482,5.3842,5.3748,5.3583,5.3314,5.322,5.3214,5.3214,5.3214,0.0,5.3214,5.3071,5.298,5.298,5.2828,5.2717,5.259,5.2568,5.2536,5.248,5.248,5.248,5.248,5.248,5.248,5.248,0.0,0.0,0.0,0.0,0.0,0.0,2.9676,3.0196,3.1538,3.4433,3.5497,3.7096,3.9972,4.0665,4.0927,4.0956,3.9864,3.8515,3.6869,3.9943,4.2589,4.4277,4.682,4.8218,4.8319,4.9302,4.9846,4.9889,5.0389,5.062,5.0542,5.0466,5.0418,5.0285,5.0132,5.0044,5.0038,4.9933,4.9886,4.9886,4.9886,4.9886,4.9886,4.9886,4.9886,4.9886,4.9886,4.9886,4.9658,4.7964,4.7383,4.6815,4.3444,4.1527,3.9975,0.0,0.0,0.0,0.0,0.0,0.0,0.0,0.0,0.0,0.0,0.0,0.0,0.0,0.0,3.744,3.6604,0.0,4.5507,4.4208,4.9328,5.3454,5.3454,5.4218,5.4448,5.3531,5.3836,5.4256,5.4715,5.4753,5.4842,5.5082,5.5106,5.4867,5.4276,5.425,5.3988,5.3491,5.3471,5.3339,5.3103,5.3103,5.3071,5.3006,5.3006,5.3006,5.2995,5.3299,5.3389,5.3414,5.3727,5.3816,5.3769,5.3769,5.3734,5.3711,5.3711,5.3204,5.248,5.248,5.248,5.248,0.0,0.0,0.0,0.0,0.0,0.0,0.0,3.1057,3.1715,3.3355,3.3987,3.4906,3.6494,3.6934,3.6898,3.6336,3.7521,3.8067,3.7565,4.1358,4.4814,4.7536,4.8483,4.8979,4.9104,4.9832,5.0265,5.0375,5.0407,5.0407,5.0369,5.0265,5.0175,5.0132,4.9966,4.9886,4.9886,4.9886,4.9886,4.9886,4.9886,4.9886,4.9886,4.9886,4.9886,4.9886,4.9886,4.9469,4.9014,4.9696,4.9469,4.8559,4.6506,4.5407,4.4022,3.9594,3.8763,0.0,0.0,0.0,0.0,0.0,0.0,0.0,0.0,3.9011,3.9771,4.1686,4.2598,4.2674,4.1495,4.5436,4.8378,4.6991,5.1047,5.4333,5.4333,5.4976,5.5129,5.4448,5.4976,5.5377,5.528,5.528,5.512,5.4731,5.47,5.4401,5.3748,5.3691,5.3524,5.3156,5.3124,5.3071,5.2948,5.2948,5.2893,5.2794,5.2977,5.305,5.3039,5.3727,5.4044,5.4069,5.4665,5.4894,5.4894,5.4894,5.4894,5.4894,5.4894,5.411,5.2951,5.2951,5.2951,5.2951,0.0,0.0,0.0,0.0,0.0,0.0,0.0,0.0,3.2618,3.4247,3.536,3.6639,3.8228,3.8085,3.6752,3.3971,3.8708,4.0863,3.8591,4.4435,4.818,4.8528,4.9317,4.9786,4.9775,5.0069,5.0206,5.0224,5.0347,5.0341,5.0224,5.0206,5.0101,4.9926,4.9899,4.9886,4.9886,4.9886,4.9886,4.9886,4.9886,4.9886,4.9886,4.9886,4.9886,4.9886,4.9886,4.7991,4.5899,4.89,4.7915,4.5899,4.8521,4.7302,4.4345,4.159,3.8874,3.6321,3.4454,3.6577,3.8692,3.6256,3.9049,4.1571,0.0,3.9045,4.0038,3.9542,3.9508,3.9733,4.0344,4.4546,4.787,4.7679,5.192,5.5244,5.5244,5.532,5.5358,5.5282,5.532,5.526,5.4918,5.4889,5.4716,5.4372,5.4347,5.4167,5.3729,5.3587,5.3387,5.3013,5.2893,5.2828,5.2817,5.2817,5.2806,5.2794,5.3512,5.3877,5.3877,5.4563,5.4868,5.4868,5.4882,5.4894,5.4894,5.4894,5.4894,5.4894,5.4894,5.4798,5.4641,5.4641,5.4641,5.4641,0.0,0.0,0.0,0.0,0.0,0.0,0.0,0.0,3.2774,3.3095,3.3546,3.3938,3.412,3.3703,3.2914,3.1663,3.7,3.9957,3.8914,4.5064,4.8852,4.9113,4.943,4.9705,4.9886,4.9979,5.0018,5.0018,5.0063,5.0063,5.0018,5.0018,4.9973,4.9886,4.9886,4.9886,4.9886,4.9886,4.9886,4.9886,4.9886,4.9886,4.9886,4.9886,4.9886,4.9621,4.7687,4.607,0.0,4.6537,4.607,4.5483,4.8856,4.7592,4.4511,4.2583,4.0317,3.8695,4.0055,4.0444,4.0654,4.1566,4.3362,4.4704,4.3782,4.4126,4.5119,4.6691,4.7417,4.7914,4.8258,5.0468,5.2225,5.2225,5.4021,5.5396,5.5396,5.5396,5.5396,5.5396,5.5102,5.4902,5.4806,5.4546,5.425,5.387,5.3786,5.3604,5.3209,5.3109,5.304,5.2883,5.2817,5.2761,5.2669,5.3131,5.3351,5.3319,5.4143,5.4506,5.4542,5.5257,5.5861,5.6284,5.6235,5.6247,5.6247,5.6247,5.6247,5.6247,5.6247,5.6247,5.6138,5.5233,5.4894,5.4894,0.0,0.0,0.0,0.0,0.0,0.0,0.0,0.0,0.0,0.0,3.2371,3.2097,3.1353,3.0946,3.0723,3.0605,3.5148,3.8417,3.9286,4.4424,4.8013,4.9182,4.9228,4.9346,4.9595,4.9595,4.9595,4.9595,4.9595,4.9595,4.9595,4.9595,4.9595,4.9595,4.9595,4.9595,4.9595,4.9595,4.9595,4.9595,4.9595,4.9595,4.9595,4.9595,4.9072,4.8047,4.5742,4.4454,4.3818,4.3577,4.3035,4.3011,4.612,4.5464,4.3143,4.1325,3.9438,3.8609,4.1919,4.2148,4.2264,4.5392,4.7035,4.8061,4.8711,4.9016,4.9927,5.2589,5.3633,5.4174,5.4384,5.497,5.5396,5.5339,5.539,5.5383,5.5313,5.5253,5.5168,5.5147,5.4655,5.4346,5.4409,5.4129,5.3721,5.334,5.3265,5.3115,5.2817,5.2761,5.275,5.275,5.2935,5.2988,5.2908,5.3695,5.4084,5.4037,5.4834,5.5196,5.5233,5.5993,5.6657,5.7188,5.7188,5.7188,5.7188,5.7188,5.7188,5.7188,5.7188,5.7188,5.7043,5.5957,5.5522,5.5522,0.0,0.0,0.0,0.0,0.0,0.0,0.0,0.0,0.0,0.0,0.0,3.2846,3.222,3.2317,3.2104,3.1353,3.3938,3.6912,3.9976,4.2664,4.5552,4.8676,4.8816,4.8824,4.8842,4.8842,4.8842,4.8842,4.8842,4.8842,4.8842,4.8842,4.8842,4.8842,4.8842,4.8842,4.8842,4.8842,4.8842,4.8842,4.8842,4.8842,4.8842,4.8842,4.701,4.4501,4.4813,4.332,4.1071,4.0242,3.8331,3.6734,3.9318,4.0042,3.9481,3.7029,3.4666,3.338,3.6035,3.9083,4.2111,4.4671,4.8411,5.1461,5.1461,5.2079,5.2901,5.3785,5.4053,5.4314,5.5013,5.5281,5.5377,5.5242,5.5319,5.5313,5.514,5.482,5.4602,5.4554,5.395,5.3528,5.3457,5.3437,5.3244,5.2861,5.2817,5.2806,5.2794,5.2694,5.2602,5.2602,5.3311,5.3687,5.3675,5.4472,5.487,5.4858,5.5595,5.5969,5.6005,5.6802,5.7188,5.7188,5.7188,5.7188,5.7188,5.7188,5.7188,5.7188,5.7188,5.7188,5.7188,5.7152,5.7116,5.7116,0.0,0.0,0.0,0.0,0.0,0.0,0.0,0.0,0.0,0.0,0.0,0.0,0.0,0.0,0.0,0.0,3.3891,3.5708,3.6946,4.1179,4.427,4.5636,4.7314,4.8319,4.8585,4.8585,4.8585,4.8585,4.8585,4.8621,4.8674,4.8674,4.8709,4.8807,4.8807,4.8807,4.8807,4.8807,4.8807,4.8807,4.8807,4.8807,4.8621,4.6979,4.5722,4.4416,0.0,3.8196,3.6831,3.6551,3.5888,3.5689,3.8921,3.8391,3.5975,3.2977,3.3578,3.5755,3.8306,4.1872,4.5583,4.8716,5.0935,5.2463,5.3073,5.3385,5.3778,5.4611,5.3022,5.1604,5.1964,5.2008,5.1984,5.1947,5.357,5.4813,5.4708,5.4387,5.4124,5.4089,5.3645,5.3273,5.3279,5.3099,5.29,5.2669,5.2615,5.2824,5.3357,5.3359,5.3553,5.4097,5.4387,5.4508,5.4508,5.5233,5.5631,5.5631,5.6428,5.6802,5.679,5.708,5.7188,5.7188,5.7188,5.7188,5.7188,5.7188,5.7188,5.7188,5.7188,5.7188,5.7188,5.7188,5.7188,5.7188,0.0,0.0,0.0,0.0,0.0,0.0,0.0,0.0,0.0,0.0,0.0,0.0,0.0,0.0,0.0,0.0,0.0,3.431,3.5613,3.8748,4.1163,4.2448,4.4127,4.5147,4.5359,4.5387,4.5387,4.5359,4.6302,4.6789,4.6781,4.7698,4.8186,4.829,4.8328,4.8337,4.8346,4.8375,4.7924,4.7131,4.7131,4.6616,4.5666,4.4047,4.2603,0.0,3.739,3.4622,3.2687,3.3007,3.3136,3.3521,3.556,3.4811,3.2925,3.2066,3.3794,3.6916,4.1298,4.4439,4.7351,5.1117,5.2615,5.334,5.3887,5.419,5.45,5.5033,5.2488,5.0177,5.0226,4.8985,4.8058,4.8336,4.9707,5.119,5.2429,5.2298,5.2427,5.3487,5.3232,5.3103,5.3353,5.3251,5.312,5.3006,5.2961,5.3277,5.411,5.4146,5.4363,5.487,5.516,5.5305,5.5305,5.6029,5.644,5.644,5.6935,5.7188,5.7188,5.7188,5.7188,5.7188,5.7188,5.7188,5.7188,5.7188,5.7188,5.7188,5.7188,5.7188,5.7188,5.7188,5.7188,5.7188,0.0,0.0,0.0,0.0,0.0,0.0,0.0,0.0,0.0,0.0,0.0,0.0,0.0,0.0,0.0,0.0,0.0,0.0,3.5829,3.5563,3.6542,3.9315,3.9698,3.9769,3.9645,3.9769,3.9769,3.9645,4.2195,4.3386,4.3313,4.5774,4.6927,4.6938,4.7057,4.7111,4.7122,4.7274,4.5997,4.3942,4.3942,4.2556,4.0465,4.0275,3.7948,3.4804,3.5374,3.2736,2.9049,2.9843,3.0324,3.0522,3.0034,3.0124,3.1011,3.4183,3.5358,3.7176,4.4435,4.6591,4.7753,5.1831,5.3512,5.4091,5.4058,5.4603,5.5057,5.4764,5.2075,4.9726,4.9413,4.6327,4.4066,4.477,4.4527,4.5489,4.893,4.9125,4.9945,5.2795,5.2864,5.2933,5.3687,5.3817,5.3841,5.3832,5.3784,5.411,5.4907,5.4979,5.4979,5.5003,5.5703,5.6078,5.6078,5.6826,5.7188,5.7188,5.7188,5.7188,5.7188,5.7188,5.7188,5.7188,5.7188,5.7188,5.7188,5.7188,5.7188,5.7188,5.7188,5.7188,5.7188,5.7188,5.7188,5.7188,0.0,0.0,0.0,0.0,0.0,0.0,0.0,0.0,0.0,0.0,0.0,0.0,0.0,0.0,0.0,0.0,0.0,0.0,3.3759,3.4746,3.5481,3.5894,3.7765,3.8775,3.8743,3.8775,3.8775,3.8743,3.9672,4.0169,4.0243,4.1129,4.1579,4.166,4.189,4.1988,4.2008,4.2245,4.1967,4.1424,4.1424,4.1026,4.0203,3.8355,3.6661,3.5063,3.3365,3.1304,2.9494,2.9997,3.1518,3.3543,3.5715,3.6733,3.7278,3.8079,4.0727,4.3851,4.5788,4.9111,5.224,5.3364,5.4043,5.4428,5.4336,5.4271,5.3524,5.0994,4.8032,4.5138,4.2498,4.3316,4.4372,4.4327,4.7963,5.113,5.1984,5.1773,5.2047,5.3401,5.3454,5.3747,5.4508,5.4605,5.4834,5.539,5.4907,5.4907,5.5667,5.5703,5.5993,5.6573,5.679,5.6899,5.6899,5.708,5.7188,5.7188,5.7188,5.7188,5.7188,5.7188,5.7188,5.7188,5.7188,5.7188,5.7188,5.7188,5.7188,5.7188,5.7188,5.7188,5.7188,5.7188,5.7188,5.7188,0.0,0.0,0.0,0.0,0.0,0.0,0.0,0.0,0.0,0.0,0.0,0.0,0.0,0.0,0.0,0.0,0.0,0.0,0.0,3.3576,3.3768,3.3436,3.454,3.5124,3.5081,3.5124,3.5124,3.5081,3.6427,3.7189,3.738,3.8698,3.9407,3.9555,3.9417,3.9606,4.0033,3.9444,3.9094,0.0,0.0,3.7668,3.6635,3.5118,3.3864,3.2757,3.1571,3.1416,3.1895,3.3168,3.4634,3.6313,3.8081,3.8912,3.9608,4.1341,4.3678,4.6231,4.8665,5.1422,5.3678,5.4056,5.4352,5.4097,5.2427,5.1881,5.0801,4.7482,4.4326,4.156,3.9707,4.0543,4.1604,4.1844,4.5588,4.9146,5.1103,5.1205,5.1833,5.3977,5.4218,5.4544,5.5305,5.5377,5.5703,5.6464,5.5812,5.5703,5.6476,5.6549,5.6717,5.7188,5.7188,5.7188,5.7188,5.7188,5.7188,5.7188,5.7188,5.7188,5.7188,5.7188,5.7188,5.7188,5.7188,5.7188,5.7188,5.7188,5.7188,5.7188,5.7188,5.7188,5.7188,5.7188,5.7188,5.7188,0.0,0.0,0.0,0.0,0.0,0.0,0.0,0.0,0.0,0.0,0.0,0.0,0.0,0.0,0.0,0.0,0.0,0.0,0.0,0.0,3.2137,3.1939,3.1399,3.1018,3.0806,3.0941,3.0885,3.0683,3.3061,3.4281,3.4514,3.6769,3.7993,3.8232,3.7691,3.7977,3.8785,3.733,3.6532,3.6234,3.5258,3.3801,3.2148,0.0,3.0923,2.9781,3.0212,3.2033,3.4623,3.7212,3.848,3.9094,3.9616,3.9995,4.0941,4.4574,4.577,4.6949,5.1794,5.3165,5.3453,5.4212,5.4355,5.3382,4.9733,4.8878,4.7802,4.4048,4.1029,3.8978,3.8775,3.8243,3.8272,3.9549,4.1796,4.4875,4.9175,4.9909,5.1217,5.4641,5.5051,5.5341,5.6078,5.615,5.6428,5.7152,5.6536,5.6476,5.7152,5.7188,5.7188,5.7188,5.7188,5.7188,5.7188,5.7188,5.7188,5.7188,5.7188,5.7188,5.7188,5.7188,5.7188,5.7188,5.7188,5.7188,5.7188,5.7188,5.7188,5.7188,5.7188,5.7188,5.7188,5.7188,5.7188,5.7188,0.0,0.0,0.0,0.0,0.0,0.0,0.0,0.0,0.0,0.0,3.4036,3.4061,0.0,0.0,0.0,0.0,0.0,0.0,0.0,0.0,0.0,3.1999,3.1868,3.1543,3.089,3.0912,3.0641,3.0065,3.0725,3.1091,3.1166,3.1866,3.2253,3.229,3.2413,3.2703,3.3104,3.2655,3.2529,3.2686,3.272,3.2453,3.2024,3.1856,3.1172,0.0,2.9848,3.1231,3.3892,3.7696,4.0384,4.2685,4.6037,4.7309,4.782,4.9216,5.0313,5.1306,5.227,5.306,5.3637,5.3805,5.3654,5.2607,4.9205,4.826,4.6382,4.0321,3.8844,3.7977,3.561,3.7455,4.0174,4.274,4.6208,4.9604,5.2501,5.348,5.4375,5.5679,5.5824,5.6102,5.6899,5.6971,5.7043,5.7188,5.708,5.7043,5.7188,5.7188,5.7188,5.7188,5.7188,5.7188,5.7188,5.7188,5.7188,5.7188,5.7188,5.7188,5.7188,5.7188,5.7188,5.7188,5.7188,5.7188,5.7188,5.7188,5.7188,5.7188,5.7188,5.7188,5.7188,5.7188,5.7188,5.7188,0.0,0.0,0.0,0.0,0.0,0.0,0.0,3.436,3.423,3.4631,3.4327,3.4101,3.4101,3.4275,3.4411,0.0,0.0,0.0,0.0,0.0,0.0,3.259,3.219,3.1822,3.1498,3.1466,3.1304,3.1003,0.0,3.1079,3.088,3.104,3.1008,3.0781,3.0517,3.0784,3.1357,3.03,3.0875,3.2487,3.2092,3.2139,3.2409,3.2365,3.1334,0.0,3.007,3.1418,3.3553,3.6406,4.0086,4.4101,4.7751,4.9287,4.9904,5.0742,5.1365,5.195,5.2589,5.3065,5.3407,5.3407,5.3285,5.184,4.6618,4.536,4.3446,3.6888,3.602,3.6019,3.4748,3.7527,4.049,4.1994,4.6545,5.0462,5.2121,5.4158,5.574,5.6549,5.6609,5.6802,5.7152,5.7188,5.7188,5.7188,5.7188,5.7188,5.7188,5.7188,5.7188,5.7188,5.7188,5.7188,5.7188,5.7188,5.7188,5.7188,5.7188,5.7188,5.7188,5.7188,5.7188,5.7188,5.7188,5.7188,5.7188,5.7188,5.7188,5.7188,5.7188,5.7188,5.7188,5.7188,5.7188,5.7188,0.0,0.0,0.0,0.0,0.0,0.0,0.0,3.4457,3.436,3.5085,3.4567,3.4165,3.4327,3.4198,3.4101,0.0,0.0,0.0,0.0,0.0,0.0,0.0,0.0,0.0,3.2255,0.0,0.0,3.1984,3.1984,0.0,0.0,0.0,0.0,0.0,3.047,3.0677,3.1385,2.9785,3.061,0.0,0.0,3.2009,3.2645,0.0,0.0,0.0,0.0,3.1776,3.315,3.5243,3.8975,4.3293,4.6401,4.817,4.9267,5.0245,5.0427,5.0685,5.2477,5.2976,5.2976,5.2976,5.2976,5.1198,4.4387,4.2854,4.1135,3.4842,3.398,3.4524,3.5004,3.753,3.9824,4.0646,4.5038,4.9042,5.0893,5.3495,5.5752,5.7043,5.7188,5.7188,5.7188,5.7188,5.7188,5.7188,5.7188,5.7188,5.7188,5.7188,5.7188,5.7188,5.7188,5.7188,5.7188,5.7188,5.7188,5.7188,5.7188,5.7188,5.7188,5.7188,5.7188,5.7188,5.7188,5.7188,5.7188,5.7188,5.7188,5.7188,5.7188,5.7188,5.7188,5.7188,5.7188,5.7176,0.0,0.0,0.0,0.0,0.0,0.0,0.0,3.4133,3.436,3.5085,3.4567,3.4372,3.502,3.4489,3.4101,0.0,0.0,0.0,0.0,0.0,0.0,0.0,0.0,0.0,0.0,0.0,0.0,3.1984,3.1984,0.0,0.0,0.0,0.0,0.0,0.0,3.2014,3.2341,3.1755,0.0,0.0,0.0,0.0,0.0,0.0,0.0,0.0,0.0,3.1826,3.2473,3.566,3.7549,3.9092,4.1578,4.3923,4.6033,4.758,4.7518,4.7746,5.1522,5.2549,5.2549,5.2549,5.2549,5.087,4.4377,4.2892,4.127,3.5483,3.4341,3.4807,3.6106,3.6706,3.798,4.0949,4.2556,4.527,5.0538,5.2154,5.3892,5.6862,5.7188,5.7188,5.7188,5.7188,5.7188,5.7188,5.7188,5.7188,5.7188,5.7188,5.7188,5.7188,5.7188,5.7188,5.7188,5.7188,5.7188,5.7188,5.7188,5.7188,5.7188,5.7188,5.7188,5.7188,5.7188,5.7188,5.7188,5.7188,5.7188,5.7188,5.7188,5.7188,5.7188,5.7188,5.7188,5.7125,0.0,0.0,0.0,0.0,0.0,0.0,3.4696,3.4405,3.436,3.5085,3.4955,3.4858,3.5163,3.4923,3.4599,3.4133,0.0,0.0,0.0,0.0,0.0,0.0,0.0,0.0,0.0,0.0,3.355,3.3259,3.3259,0.0,0.0,0.0,0.0,0.0,0.0,3.2066,3.2183,3.1904,0.0,0.0,0.0,0.0,0.0,0.0,0.0,0.0,0.0,0.0,3.2329,3.5131,3.6963,3.8,3.7561,3.8753,4.1261,4.624,4.7471,4.7978,5.1538,5.248,5.248,5.248,5.1031,4.8413,4.3884,4.1415,3.8881,3.4625,3.4446,3.5271,3.5866,3.6663,3.7703,3.9121,4.1602,4.417,4.6581,4.8789,5.1365,5.4713,5.4605,5.5039,5.7007,5.7188,5.7188,5.7188,5.7188,5.7188,5.7188,5.7188,5.7188,5.7188,5.7188,5.7188,5.7188,5.7188,5.7188,5.7188,5.7188,5.7188,5.7188,5.7188,5.7188,5.7188,5.7188,5.7188,5.7163,5.6793,5.6648,5.6621,5.627,5.6097,5.6097,5.6097,5.6352,5.6621,0.0,0.0,0.0,0.0,0.0,3.4262,3.4793,3.4424,3.436,3.5085,3.502,3.5053,3.5474,3.515,3.4761,3.4469,3.423,0.0,0.0,0.0,0.0,0.0,0.0,0.0,0.0,0.0,3.4101,3.4101,3.4101,3.3841,0.0,0.0,3.3129,3.2611,0.0,0.0,0.0,0.0,0.0,0.0,0.0,0.0,0.0,0.0,0.0,0.0,0.0,0.0,0.0,0.0,0.0,3.7455,3.5543,3.5747,3.7748,4.3281,4.5371,4.6675,5.0162,5.1792,5.248,5.248,5.009,4.6845,4.3585,4.0429,3.7324,3.4264,3.4626,3.5594,3.5887,3.6921,3.7757,3.7925,4.0442,4.2763,4.3878,4.609,4.8759,5.1832,5.1664,5.2448,5.5449,5.6633,5.7188,5.7188,5.7188,5.7188,5.7188,5.7188,5.7188,5.7188,5.7188,5.7188,5.7188,5.7188,5.7188,5.7188,5.7023,5.6946,5.6946,5.674,5.6674,5.6674,5.6674,5.6674,5.6635,5.6215,5.6288,5.6591,5.6184,5.6268,5.6624,5.6422,5.661,5.692,0.0,0.0,0.0,0.0,0.0,0.0,3.4101,3.4101,3.436,3.5085,3.4554,3.4683,3.6141,3.4975,3.4392,3.513,3.4534,0.0,0.0,0.0,0.0,0.0,0.0,0.0,0.0,0.0,3.4101,3.4101,3.4101,3.4101,3.4101,3.4101,3.4101,3.4068,0.0,0.0,0.0,0.0,0.0,0.0,0.0,0.0,3.1206,0.0,0.0,0.0,0.0,0.0,0.0,0.0,0.0,0.0,0.0,3.5804,3.6138,3.782,3.994,4.2646,4.6675,5.009,5.248,5.248,5.009,4.6856,4.3616,4.0464,3.7469,3.4906,3.5019,3.5832,3.6541,3.7401,3.801,3.8019,3.8715,4.0366,4.3633,4.4748,4.6096,4.8453,4.8789,4.9775,5.2135,5.5292,5.7188,5.7188,5.7188,5.7188,5.7188,5.7188,5.7188,5.7188,5.7188,5.7188,5.7188,5.7188,5.7188,5.7188,5.6582,5.6311,5.6284,5.5708,5.5432,5.5432,5.5432,5.5432,5.5432,5.5417,5.6218,5.7495,5.7481,5.8327,5.9486,5.8815,5.8588,5.838,0.0,0.0,0.0,0.0,0.0,0.0,0.0,3.3752,3.3584,3.3788,3.3698,3.3949,3.485,3.454,3.4507,3.5156,3.4534,0.0,0.0,0.0,0.0,0.0,0.0,0.0,0.0,0.0,3.4101,3.4101,3.4101,3.4101,3.4101,3.4101,3.4101,3.4101,3.4101,3.4101,0.0,0.0,0.0,0.0,0.0,3.1571,3.1641,0.0,0.0,0.0,0.0,0.0,0.0,0.0,0.0,0.0,0.0,0.0,0.0,3.6391,3.8204,4.0754,4.4183,4.5446,4.5818,4.5879,4.3457,4.0827,3.9912,3.7204,3.4834,3.4578,3.5102,3.5864,3.6752,3.7471,3.8175,3.8847,3.9463,4.0509,4.2238,4.3966,4.6199,4.9274,5.2554,5.4834,5.5594,5.6596,5.7188,5.7188,5.7188,5.7188,5.7188,5.7188,5.7188,5.7188,5.7188,5.7188,5.7188,5.7188,5.7188,5.7188,5.701,5.7221,5.77,5.7069,5.7071,5.7554,5.7098,5.6886,5.6856,5.6422,5.6463,5.683,5.6436,5.6526,5.6896,5.6702,5.6879,5.7181,0.0,0.0,0.0,0.0,0.0,0.0,0.0,3.3121,3.2975,3.3169,3.3266,3.356,3.423,3.4049,3.4165,3.481,3.4195,0.0,0.0,0.0,0.0,0.0,0.0,0.0,0.0,3.4101,3.4101,3.4101,3.4101,3.4101,3.4101,3.4101,3.4075,3.4025,3.4075,3.4075,0.0,0.0,0.0,0.0,3.1659,3.1904,3.2683,0.0,0.0,0.0,0.0,0.0,0.0,0.0,0.0,0.0,0.0,0.0,0.0,0.0,3.743,3.8877,4.1438,4.2684,4.3146,4.2876,4.0438,3.8087,3.8174,3.5936,3.4001,3.4508,3.541,3.6298,3.6878,3.78,3.866,3.9288,4.014,4.1284,4.2854,4.4472,4.6523,4.9274,5.3013,5.5365,5.5365,5.6488,5.71,5.6894,5.6845,5.6884,5.6922,5.6944,5.7074,5.7347,5.7247,5.7232,5.7264,5.7287,5.7289,5.7333,5.7077,5.7228,5.7712,5.7068,5.7009,5.7499,5.7057,5.6898,0.0,5.6436,5.6574,5.7015,5.6645,5.6833,5.7278,5.7004,5.7141,5.7428,0.0,0.0,0.0,0.0,0.0,0.0,0.0,3.2355,3.252,3.2997,3.3037,3.3275,3.4008,3.3513,3.3427,3.4175,0.0,0.0,0.0,0.0,0.0,0.0,0.0,0.0,0.0,3.4101,3.4101,3.4101,3.4101,3.4101,3.4101,3.4101,3.4025,3.3911,3.4038,3.3993,0.0,0.0,0.0,0.0,3.1787,3.2433,0.0,0.0,0.0,0.0,0.0,0.0,0.0,0.0,0.0,0.0,0.0,0.0,0.0,0.0,0.0,0.0,0.0,4.1215,4.3288,4.2498,4.0185,3.8101,3.8037,3.6363,0.0,3.4762,3.6009,3.7104,3.7104,3.8363,3.9414,3.9486,4.0637,4.2426,4.5009,4.623,4.7478,4.9197,5.1304,5.2653,5.2653,5.5401,5.6972,5.6478,5.6396,5.6439,5.6636,5.6596,5.6901,5.7572,5.7342,5.7306,5.7412,5.7412,5.7467,5.7592,5.6958,5.67,5.6736,5.6098,5.5871,5.5922,5.5903,5.5868,5.5868,5.5868,5.6644,5.7807,5.7807,5.8639,5.9757,5.9096,5.8841,5.8737,0.0,0.0,0.0,0.0,0.0,0.0,0.0,0.0,0.0,0.0,3.1493,3.1437,3.2091,3.2419,3.281,0.0,0.0,0.0,0.0,0.0,0.0,0.0,0.0,0.0,0.0,3.4101,3.4101,3.4101,3.4101,3.4101,3.4101,3.4101,3.4025,3.3911,3.4038,3.3734,0.0,0.0,0.0,0.0,3.2146,3.2806,0.0,0.0,0.0,0.0,3.7694,3.8019,0.0,0.0,0.0,0.0,0.0,0.0,0.0,0.0,3.8012,3.7814,3.7458,0.0,3.7507,3.7369,3.725,3.6977,0.0,3.687,3.7168,3.6552,3.724,3.7937,3.7937,3.8726,3.9586,4.0157,4.0537,4.2048,4.5697,4.9524,5.2771,5.4991,5.5715,5.6041,5.6041,5.6741,5.7391,5.7877,5.7437,5.7426,5.8067,5.7615,5.7432,5.7607,5.7545,5.7529,5.7555,5.7555,5.7585,5.7607,5.7452,5.7704,5.8263,5.7546,5.7569,5.8119,5.7609,5.7374,5.7374,5.7374,5.7584,5.7881,5.7881,5.8108,5.8386,5.8209,5.8137,5.8101,0.0,0.0,0.0,0.0,0.0,0.0,0.0,0.0,0.0,0.0,0.0,3.1131,3.1465,3.1794,0.0,0.0,0.0,0.0,0.0,0.0,0.0,0.0,0.0,3.4101,3.4101,3.4101,3.4101,3.4101,3.4101,3.4101,3.4101,3.4101,3.4,3.3809,3.3886,3.3718,0.0,0.0,3.2983,3.3107,3.3017,0.0,0.0,0.0,0.0,0.0,3.7933,3.8297,0.0,3.8631,3.9084,3.959,0.0,0.0,0.0,0.0,3.843,3.8101,3.7589,3.6816,3.6177,3.6186,3.6535,3.6893,3.6898,3.7856,3.8508,3.772,3.8182,3.8762,3.8762,3.8483,3.8755,4.0257,4.1107,4.2934,4.6938,4.8808,5.1049,5.4556,5.4641,5.5206,5.709,5.7293,5.7352,5.7554,5.7243,5.7261,5.7733,5.7431,5.739,5.7735,5.7735,5.7695,5.7658,5.7658,5.7686,5.7735,5.7735,5.7977,5.8356,5.7964,5.8029,5.8423,5.8081,5.79,5.79,5.79,5.79,5.79,5.79,5.79,5.79,5.79,5.79,5.79,0.0,0.0,0.0,0.0,0.0,0.0,0.0,0.0,0.0,0.0,0.0,0.0,0.0,0.0,0.0,0.0,0.0,0.0,0.0,0.0,0.0,0.0,0.0,3.4424,3.4424,3.4327,3.4262,3.4262,3.4165,3.4101,3.4101,3.4101,3.4039,3.3918,3.3797,3.3784,0.0,0.0,3.3665,3.4541,3.3957,0.0,0.0,0.0,0.0,0.0,0.0,0.0,0.0,3.9364,3.9805,4.0342,4.0253,0.0,0.0,0.0,0.0,0.0,3.8363,3.8227,3.7957,3.7339,3.7444,3.782,3.8291,3.9088,3.945,3.84,3.8834,3.926,3.889,3.7936,3.7785,3.9651,4.2092,4.4967,4.8506,4.774,4.8338,5.2438,5.2378,5.3439,5.7085,5.7434,5.7282,5.6967,5.6822,5.6883,5.7114,5.704,5.7239,5.79,5.79,5.7831,5.7724,5.7741,5.779,5.79,5.79,5.79,5.79,5.79,5.79,5.79,5.79,5.79,5.79,5.79,5.79,5.79,5.79,5.79,5.79,5.79,5.79,5.79,0.0,0.0,0.0,0.0,0.0,0.0,0.0,0.0,0.0,0.0,0.0,0.0,0.0,0.0,0.0,0.0,0.0,0.0,0.0,0.0,0.0,3.5979,3.5966,3.5966,3.5966,3.5344,3.502,3.502,3.4405,3.4101,3.4101,3.4101,3.4412,3.4923,3.4214,3.3873,3.3911,0.0,3.3642,3.3279,3.4052,0.0,0.0,0.0,0.0,0.0,0.0,0.0,0.0,4.0066,4.0539,4.1,4.0414,0.0,0.0,0.0,0.0,0.0,3.9233,4.108,4.2348,3.9686,4.0003,4.0664,3.9486,4.0311,4.0736,3.8653,3.8834,3.8745,3.6652,3.7441,3.8205,3.7569,4.3368,4.8506,5.0078,5.279,5.4906,5.5764,5.5762,5.6177,5.7444,5.7585,5.7825,5.8409,5.7863,5.7842,5.8548,5.8038,5.778,5.79,5.79,5.7868,5.7875,5.7875,5.7889,5.79,5.79,5.79,5.79,5.79,5.79,5.79,5.79,5.79,5.79,5.79,5.79,5.79,5.79,5.79,5.79,5.79,5.79,5.79,0.0,0.0,0.0,0.0,0.0,0.0,0.0,0.0,0.0,0.0,0.0,0.0,0.0,0.0,0.0,0.0,0.0,0.0,0.0,0.0,3.6357,3.6465,3.7072,3.6886,3.572,3.4988,3.4599,3.4599,3.4262,3.4101,3.4101,3.4426,3.4549,3.4484,3.4485,3.4491,3.4472,3.4212,3.4183,3.4385,0.0,0.0,0.0,0.0,0.0,0.0,0.0,0.0,0.0,0.0,4.1,4.1222,4.0912,0.0,0.0,0.0,0.0,0.0,3.9876,4.1062,4.223,4.252,4.4104,4.5516,4.5246,4.5717,4.5259,4.1768,4.1521,4.0709,3.6698,3.7709,3.9969,4.2557,4.4973,4.7436,5.0122,5.0091,5.0824,5.3509,5.3815,5.4815,5.7385,5.7647,5.7847,5.8272,5.798,5.7976,5.8352,5.8047,5.79,5.79,5.79,5.79,5.79,5.79,5.79,5.79,5.79,5.79,5.79,5.79,5.79,5.79,5.79,5.79,5.79,5.79,5.79,5.79,5.79,5.79,5.79,5.79,5.79,5.79,0.0,0.0,0.0,0.0,0.0,0.0,0.0,0.0,0.0,0.0,0.0,0.0,0.0,0.0,0.0,0.0,0.0,0.0,0.0,0.0,3.6593,3.6741,3.7643,3.7436,3.5992,3.5072,3.4619,3.4619,3.4262,3.4101,3.4101,3.4581,3.4575,3.4239,3.4801,3.5039,3.5039,3.4742,3.4973,3.5507,0.0,0.0,0.0,0.0,0.0,0.0,0.0,0.0,0.0,0.0,0.0,0.0,0.0,0.0,0.0,4.0221,4.0185,4.0057,4.0628,4.1316,4.2511,4.4983,4.6179,4.733,4.9354,4.9166,4.7782,4.5038,4.4618,4.3142,3.7994,3.8302,4.1093,4.6434,4.6647,4.7416,5.0885,4.8951,4.8577,5.2364,5.2749,5.4046,5.7398,5.7758,5.7773,5.7902,5.79,5.79,5.79,5.79,5.79,5.79,5.79,5.79,5.79,5.79,5.79,5.79,5.79,5.79,5.79,5.79,5.79,5.79,5.79,5.79,5.79,5.79,5.79,5.79,5.79,5.79,5.79,5.79,5.79,5.79,0.0,0.0,0.0,0.0,0.0,0.0,0.0,0.0,0.0,0.0,0.0,0.0,0.0,0.0,0.0,0.0,0.0,0.0,0.0,0.0,3.7247,3.7238,3.733,3.7617,3.8149,3.6853,3.6141,3.6141,3.4781,3.4101,3.4101,3.4153,3.4509,3.5104,3.5169,3.5182,3.5234,3.5882,3.5798,3.5285,3.5883,0.0,0.0,0.0,0.0,0.0,0.0,0.0,0.0,0.0,0.0,0.0,0.0,0.0,4.032,4.0401,4.0944,4.156,4.1596,4.3778,4.6132,4.6359,4.345,4.205,4.7712,4.6388,4.4637,4.6943,4.698,4.5172,4.0398,3.9194,4.0239,4.4211,4.8404,5.1923,5.3989,5.5121,5.5887,5.6384,5.6431,5.6804,5.7803,5.7905,5.7887,5.79,5.79,5.79,5.79,5.79,5.79,5.79,5.79,5.79,5.79,5.79,5.79,5.79,5.79,5.79,5.79,5.79,5.79,5.79,5.79,5.79,5.79,5.79,5.79,5.79,5.79,5.79,5.79,5.79,5.79,5.79,0.0,0.0,0.0,0.0,0.0,0.0,0.0,0.0,0.0,0.0,0.0,0.0,0.0,0.0,0.0,0.0,0.0,0.0,0.0,3.5806,3.6717,3.6872,3.7141,3.7649,3.8375,3.6575,3.5396,3.4943,3.436,3.4101,3.4101,3.4567,3.4923,3.5228,3.5701,3.6108,3.6497,3.6354,3.64,3.6604,3.7675,3.8196,0.0,0.0,0.0,0.0,0.0,0.0,0.0,0.0,4.0977,4.0164,4.1078,4.0625,3.9959,4.0926,4.1098,4.1153,4.211,4.3667,4.5058,4.5228,4.3137,4.2931,5.0198,5.0271,4.8951,4.9575,4.9397,4.7927,4.3904,4.3602,4.4892,4.7585,5.1089,5.393,5.5126,5.6113,5.6726,5.6801,5.7205,5.7577,5.7866,5.79,5.79,5.79,5.79,5.79,5.79,5.79,5.79,5.79,5.79,5.79,5.79,5.79,5.79,5.79,5.79,5.79,5.79,5.79,5.79,5.79,5.79,5.79,5.79,5.79,5.79,5.79,5.79,5.79,5.79,5.79,5.79,5.79,0.0,0.0,0.0,0.0,0.0,0.0,0.0,0.0,0.0,0.0,0.0,0.0,0.0,0.0,0.0,0.0,0.0,0.0,3.3546,3.5043,3.6007,3.6158,3.669,3.7099,3.7371,3.596,3.5085,3.4781,3.4327,3.4101,3.4133,3.4858,3.5195,3.5228,3.5979,3.6548,3.6969,3.671,3.7048,3.7754,3.8824,3.9192,0.0,0.0,0.0,0.0,0.0,0.0,0.0,0.0,4.0306,3.9707,4.0532,4.0488,4.0293,4.1034,4.0887,4.0691,4.1588,4.1941,4.239,4.374,4.2904,4.3745,5.1391,5.147,5.0406,5.1974,5.1297,4.966,4.72,4.7456,4.8587,5.02,5.3179,5.548,5.5987,5.6697,5.7137,5.7137,5.7577,5.79,5.79,5.79,5.79,5.79,5.79,5.79,5.79,5.79,5.79,5.79,5.79,5.79,5.79,5.79,5.79,5.79,5.79,5.79,5.79,5.79,5.79,5.79,5.79,5.79,5.79,5.79,5.79,5.79,5.79,5.79,5.79,5.79,5.79,5.79,0.0,0.0,0.0,0.0,0.0,0.0,0.0,0.0,0.0,0.0,0.0,0.0,0.0,0.0,0.0,0.0,0.0,0.0,3.3487,3.4575,3.5195,3.5195,3.5882,3.5946,3.5228,3.5195,3.5539,3.6289,3.4813,3.4101,3.4133,3.4858,3.5215,3.5247,3.5979,3.6335,3.6367,3.7048,3.7754,3.8539,3.897,3.9996,4.1189,0.0,0.0,0.0,0.0,0.0,0.0,0.0,4.0208,4.0245,3.9615,4.0477,4.1501,4.0588,4.0388,4.042,3.9938,3.8773,3.8568,4.2253,4.2567,4.3687,5.0291,4.8531,4.7424,5.4002,5.2535,5.0051,5.0106,5.015,5.0371,5.11,5.4363,5.6799,5.6799,5.7442,5.79,5.79,5.79,5.79,5.79,5.79,5.79,5.79,5.79,5.79,5.79,5.79,5.79,5.79,5.79,5.79,5.7934,5.7934,5.7934,5.7934,5.7934,5.7934,5.79,5.79,5.79,5.79,5.79,5.79,5.79,5.79,5.79,5.79,5.79,5.79,5.79,5.79,5.79,5.79,0.0,0.0,0.0,0.0,0.0,0.0,0.0,0.0,0.0,0.0,0.0,0.0,0.0,0.0,0.0,0.0,0.0,0.0,3.3899,3.4729,3.5195,3.5195,3.5409,3.5668,3.5979,3.5474,3.5053,3.4748,3.4327,3.436,3.4891,3.5098,3.5733,3.6691,3.6904,3.7492,3.8308,3.7939,3.8153,3.8808,4.0064,4.0202,3.9836,0.0,0.0,0.0,0.0,0.0,0.0,0.0,0.0,0.0,4.0297,4.075,4.0753,4.1073,4.0782,4.0328,4.0116,4.2159,4.4003,4.2555,4.4876,4.7934,4.9487,4.9274,4.9741,5.3327,5.3608,5.2595,5.0487,5.2266,5.3619,5.2282,5.4702,5.6968,5.7476,5.7764,5.79,5.79,5.79,5.79,5.79,5.79,5.79,5.79,5.79,5.79,5.79,5.79,5.79,5.79,5.79,5.8152,5.8693,5.8693,5.893,5.9438,5.9438,5.8896,5.79,5.79,5.79,5.79,5.79,5.79,5.79,5.79,5.79,5.79,5.79,5.79,5.79,5.79,5.79,5.7949,0.0,0.0,0.0,0.0,0.0,0.0,0.0,0.0,0.0,0.0,0.0,0.0,0.0,0.0,0.0,0.0,0.0,0.0,0.0,3.4534,3.4761,3.4761,3.4761,3.4988,3.5428,3.5558,3.5279,3.4534,3.4534,3.4761,3.5215,3.5765,3.6335,3.6904,3.7196,3.7726,3.8392,3.782,3.7962,3.861,3.9698,3.9811,3.9376,0.0,0.0,0.0,0.0,0.0,0.0,0.0,0.0,0.0,4.0032,4.0595,4.0696,4.0369,3.9529,3.8908,3.9896,4.1553,4.3242,4.4195,4.6789,4.9486,5.0907,5.1555,5.2282,5.3653,5.4532,5.4566,5.3044,5.46,5.5818,5.4753,5.6072,5.7374,5.7832,5.79,5.79,5.79,5.79,5.79,5.79,5.79,5.79,5.79,5.79,5.79,5.79,5.8186,5.8355,5.8355,5.8626,5.8998,5.9419,5.9419,5.9674,6.0114,6.0114,5.9641,5.8761,5.8761,5.8761,5.8761,5.8761,5.8761,5.8761,5.8761,5.8761,5.8761,5.8761,5.8761,5.8761,5.8761,5.8761,5.8829,0.0,0.0,0.0,0.0,0.0,0.0,0.0,0.0,0.0,0.0,0.0,0.0,0.0,0.0,0.0,0.0,0.0,0.0,0.0,0.0,3.4101,3.4101,3.4165,3.4198,3.4198,3.559,3.6011,3.5377,3.5312,3.5312,3.5409,3.6678,3.7002,3.6529,3.7066,3.7348,3.7419,3.7089,3.7388,3.8117,3.8388,3.8898,3.941,3.8844,0.0,0.0,0.0,0.0,0.0,0.0,0.0,0.0,3.9258,4.0051,4.0916,3.9089,3.7749,3.7411,3.9672,3.9158,3.9615,4.668,4.8477,4.9578,5.3653,5.4719,5.4769,5.4702,5.5277,5.6003,5.6697,5.6867,5.7103,5.7798,5.79,5.79,5.79,5.79,5.79,5.79,5.79,5.79,5.79,5.79,5.79,5.79,5.7967,5.8001,5.8001,5.8693,5.9081,5.9081,5.9742,6.0148,6.0216,6.0216,6.025,6.0317,6.0317,6.0317,6.0317,6.0148,6.0114,6.0114,6.0114,6.0114,6.0114,6.0114,6.0114,6.0114,6.0114,6.0114,6.0114,6.0114,6.0114,6.0114,0.0,0.0,0.0,0.0,0.0,0.0,0.0,0.0,0.0,0.0,0.0,0.0,0.0,0.0,0.0,0.0,0.0,0.0,0.0,0.0,3.4101,3.4101,3.4664,3.4955,3.4955,3.5849,3.6497,3.684,3.6335,3.6322,3.684,3.7163,3.7519,3.7922,3.7487,3.7747,3.8397,3.7199,3.7228,3.8133,3.8314,3.8188,3.781,3.7883,3.8288,0.0,0.0,0.0,0.0,0.0,0.0,0.0,3.9691,3.9758,3.969,3.971,4.0586,4.1591,4.1788,4.4477,4.7495,4.8595,5.1044,5.3416,5.4363,5.548,5.6156,5.5564,5.6055,5.663,5.6765,5.7273,5.773,5.7866,5.79,5.79,5.79,5.79,5.79,5.79,5.79,5.79,5.79,5.79,5.79,5.79,5.8457,5.8743,5.8743,5.9471,5.9877,5.9877,6.0013,6.0419,6.1028,6.1028,6.1332,6.1927,6.1927,6.1927,6.1839,6.0655,6.0114,6.0114,6.0114,6.0114,6.0114,6.0114,6.0114,6.0114,6.0114,6.0114,6.0114,6.0114,6.0114,6.0182,0.0,0.0,0.0,0.0,0.0,0.0,0.0,0.0,0.0,0.0,0.0,0.0,0.0,0.0,0.0,0.0,0.0,0.0,0.0,0.0,3.4262,3.4631,3.5331,3.5571,3.5215,3.6594,3.7145,3.6807,3.7145,3.7293,3.7325,3.7649,3.7681,3.7404,3.7325,3.7208,3.702,3.6489,3.6468,3.6835,3.7161,3.7502,3.7774,3.7943,3.8253,3.8502,3.7737,0.0,0.0,0.0,0.0,0.0,0.0,0.0,3.9256,3.9539,3.9804,4.0653,4.3429,4.5614,4.7855,5.0927,5.3145,5.4769,5.548,5.6258,5.6799,5.6765,5.707,5.734,5.734,5.7645,5.79,5.79,5.79,5.79,5.79,5.79,5.79,5.79,5.79,5.79,5.79,5.822,5.8423,5.8423,5.9099,5.9539,5.9539,6.025,6.0689,6.0689,6.1028,6.14,6.1806,6.1839,6.2009,6.24,6.24,6.24,6.2367,6.1569,6.1197,6.1197,6.1197,6.1197,6.1197,6.1197,6.1197,6.1197,6.1197,6.1197,6.1197,6.1197,6.1197,6.1264,0.0,0.0,0.0,0.0,0.0,0.0,0.0,0.0,0.0,0.0,0.0,0.0,0.0,0.0,0.0,0.0,0.0,0.0,0.0,0.0,0.0,3.4988,3.572,3.5817,3.5215,3.7048,3.7469,3.6289,3.7598,3.7908,3.7325,3.8051,3.7728,3.6484,3.6937,3.644,3.5349,3.5687,3.578,3.5791,3.6177,3.7224,3.8501,3.8222,3.825,3.8414,3.8099,3.81,3.8196,3.7739,0.0,0.0,0.0,0.0,3.9076,3.9249,3.8575,3.8857,4.3986,4.5145,4.6459,5.2975,5.4786,5.5277,5.6528,5.69,5.7171,5.7764,5.79,5.79,5.79,5.79,5.79,5.79,5.79,5.79,5.79,5.79,5.79,5.79,5.8035,5.8084,5.8084,5.8761,5.9182,5.9182,5.9877,6.0317,6.0317,6.1061,6.1501,6.1501,6.2076,6.24,6.24,6.24,6.24,6.24,6.24,6.24,6.24,6.24,6.24,6.24,6.24,6.24,6.24,6.24,6.24,6.24,6.24,6.24,6.24,6.24,6.24,6.24,0.0,0.0,0.0,0.0,0.0,0.0,0.0,0.0,0.0,0.0,0.0,0.0,0.0,0.0,0.0,0.0,0.0,0.0,0.0,0.0,0.0,3.423,3.4955,3.5279,3.5195,3.6108,3.6484,3.6289,3.7066,3.739,3.7325,3.8051,3.794,3.7163,3.6645,3.6196,3.5778,3.5567,3.6096,3.7139,3.7271,3.8157,3.9272,3.7923,3.8482,3.9795,3.8033,3.8772,4.0339,3.9026,3.9149,0.0,0.0,0.0,3.8711,3.9811,4.0779,4.1588,4.1999,4.5462,4.9843,5.3653,5.5547,5.6562,5.6765,5.7273,5.778,5.79,5.79,5.79,5.79,5.79,5.79,5.79,5.79,5.79,5.79,5.79,5.79,5.79,5.8457,5.8844,5.8844,5.9539,5.9945,5.9945,6.0689,6.1129,6.1129,6.1839,6.2245,6.2245,6.2367,6.24,6.24,6.24,6.24,6.24,6.24,6.24,6.24,6.24,6.24,6.24,6.24,6.24,6.24,6.24,6.24,6.24,6.24,6.24,6.24,6.24,6.24,6.24,0.0,0.0,0.0,0.0,0.0,0.0,0.0,0.0,0.0,0.0,0.0,0.0,0.0,0.0,0.0,0.0,0.0,0.0,0.0,0.0,0.0,3.5299,3.5247,3.5377,3.5817,3.6141,3.6108,3.5701,3.6837,3.7375,3.7325,3.8121,3.7894,3.6743,3.6419,3.6013,3.554,3.5802,3.6534,3.7478,3.6932,3.87,4.1335,3.8436,3.917,4.1481,3.8902,3.8645,3.9509,3.9266,3.94,3.9754,4.0261,0.0,0.0,0.0,4.0489,4.0974,4.4045,4.7528,5.1194,5.4903,5.6325,5.69,5.7306,5.7663,5.79,5.79,5.79,5.79,5.79,5.79,5.79,5.79,5.79,5.79,5.79,5.79,5.8051,5.8457,5.8776,5.9148,5.9573,6.0317,6.0757,6.0757,6.1467,6.1907,6.1907,6.2231,6.24,6.24,6.24,6.24,6.24,6.24,6.24,6.24,6.24,6.24,6.24,6.24,6.24,6.24,6.24,6.24,6.24,6.24,6.24,6.24,6.24,6.24,6.24,6.24,6.24,6.24,0.0,0.0,0.0,0.0,0.0,0.0,0.0,0.0,0.0,0.0,0.0,0.0,0.0,0.0,0.0,0.0,0.0,0.0,0.0,0.0,0.0,3.5946,3.5474,3.5539,3.6289,3.6289,3.6044,3.5474,3.6812,3.7416,3.7325,3.7954,3.7662,3.6548,3.6548,3.6141,3.5506,3.6149,3.684,3.7449,3.7486,3.9808,4.2852,3.9404,3.9968,4.2173,0.0,3.788,3.8167,3.8951,3.9387,3.9755,4.0525,4.0171,0.0,0.0,0.0,3.9832,4.4985,4.7605,5.0024,5.468,5.5829,5.6203,5.7577,5.79,5.79,5.79,5.79,5.79,5.79,5.79,5.79,5.79,5.79,5.79,5.79,5.8051,5.8389,5.8912,5.9351,5.9791,6.0351,6.1129,6.1569,6.1569,6.2076,6.24,6.24,6.24,6.24,6.24,6.24,6.24,6.24,6.24,6.24,6.24,6.24,6.24,6.24,6.24,6.24,6.24,6.24,6.24,6.24,6.24,6.24,6.24,6.24,6.24,6.24,6.24,6.24,6.24,0.0,0.0,0.0,0.0,0.0,0.0,0.0,0.0,0.0,0.0,0.0,0.0,0.0,0.0,0.0,3.4497,3.4497,3.4386,3.4126,3.4101,3.4469,3.5215,3.5228,0.0,3.6289,3.6289,3.6289,3.6225,3.695,3.7293,3.7293,3.7358,3.7325,3.7261,3.7261,3.6872,3.6265,3.6613,3.6896,3.7377,4.0193,4.201,4.2828,4.0963,4.0794,4.1074,3.7089,3.6262,3.7201,3.8121,3.9093,4.006,4.1169,4.0592,3.9635,0.0,0.0,0.0,4.252,4.3528,4.5227,5.1614,5.3209,5.4018,5.7185,5.79,5.79,5.79,5.79,5.79,5.79,5.79,5.79,5.79,5.79,5.79,5.79,5.849,5.8945,5.9013,6.0283,6.1197,6.1231,6.1907,6.2347,6.2347,6.24,6.24,6.24,6.24,6.24,6.24,6.24,6.24,6.24,6.24,6.24,6.24,6.24,6.24,6.24,6.24,6.24,6.24,6.24,6.24,6.24,6.24,6.24,6.24,6.24,6.24,6.24,6.24,6.24,6.24,0.0,0.0,0.0,0.0,0.0,0.0,0.0,0.0,0.0,0.0,0.0,0.0,0.0,3.4739,3.4763,3.4631,3.4898,3.5255,3.5745,3.5597,3.5817,3.6529,3.6141,3.6238,3.6937,3.6516,3.6289,3.6289,3.7078,3.7389,3.7325,3.7862,3.8089,3.7973,3.7519,3.7163,3.695,3.7067,3.7341,3.7923,4.0013,4.238,4.4354,4.0837,4.2441,4.5839,4.0059,3.8631,3.9561,4.0388,3.9892,3.918,4.0492,4.056,4.0121,4.0014,3.9621,3.9935,4.3232,4.4348,4.5596,4.9576,5.2149,5.3914,5.4608,5.6403,5.79,5.79,5.79,5.79,5.79,5.79,5.79,5.79,5.79,5.79,5.79,5.8524,5.9182,5.9641,6.0655,6.1501,6.1941,6.2245,6.24,6.24,6.24,6.24,6.24,6.24,6.24,6.24,6.24,6.24,6.24,6.24,6.24,6.24,6.24,6.24,6.24,6.24,6.24,6.24,6.24,6.24,6.24,6.24,6.24,6.24,6.24,6.24,6.24,6.24,6.24,6.24,0.0,0.0,0.0,0.0,0.0,0.0,0.0,0.0,0.0,0.0,0.0,0.0,0.0,0.0,3.5571,3.5399,3.5613,3.6,3.6529,3.6409,3.6613,3.7261,3.6872,3.6969,3.7649,3.7002,3.6743,3.7015,3.7305,3.7519,3.7681,3.8265,3.8492,3.8375,3.7617,3.7293,3.7293,3.7293,3.7232,3.7399,4.0613,4.318,4.4726,4.1566,4.3267,4.6553,4.0923,3.9449,4.05,4.24,4.2357,4.1486,4.1621,4.1123,4.0395,3.9859,4.0033,4.0906,4.3166,4.4036,4.4973,4.7768,4.9693,5.1345,5.3041,5.4844,5.6466,5.766,5.7845,5.7808,5.7881,5.79,5.79,5.79,5.79,5.7983,5.822,5.8896,5.9674,6.0419,6.1197,6.1873,6.2367,6.24,6.24,6.24,6.24,6.24,6.24,6.24,6.24,6.24,6.24,6.24,6.24,6.24,6.24,6.24,6.24,6.24,6.24,6.24,6.24,6.24,6.24,6.24,6.24,6.24,6.24,6.24,6.24,6.24,6.24,6.24,6.24,6.24,0.0,0.0,0.0,0.0,0.0,0.0,0.0,0.0,0.0,0.0,0.0,0.0,0.0,0.0,0.0,3.6744,3.6601,3.6443,3.6348,3.6335,3.6613,3.7293,3.7325,3.7681,3.8375,3.7728,3.7695,3.8422,3.7695,3.7728,3.8422,3.8422,3.8375,3.8343,3.7617,3.7293,3.7261,3.7261,3.6465,3.5779,4.2235,4.4437,4.3764,4.3394,4.3325,4.2953,3.946,3.8697,3.9967,4.4122,4.634,4.6913,4.4575,4.2302,0.0,0.0,4.0732,4.1855,0.0,0.0,0.0,4.6048,4.575,4.6308,5.2588,5.3273,5.3587,5.7029,5.76,5.756,5.7845,5.7881,5.79,5.79,5.79,5.8152,5.8878,5.9622,6.0385,6.1197,6.1941,6.24,6.24,6.24,6.24,6.24,6.24,6.24,6.24,6.24,6.24,6.24,6.24,6.24,6.24,6.24,6.24,6.24,6.24,6.24,6.24,6.24,6.24,6.24,6.24,6.24,6.24,6.24,6.24,6.24,6.24,6.24,6.24,6.24,6.24,6.24,0.0,0.0,0.0,0.0,0.0,0.0,3.5893,0.0,0.0,0.0,0.0,0.0,0.0,0.0,0.0,3.6988,3.6782,3.6823,3.7293,3.7124,3.7358,3.807,3.82,3.8279,3.8408,3.839,3.8446,3.8548,3.8446,3.8432,3.8548,3.8548,3.82,3.7584,3.739,3.6743,3.5798,3.5798,3.5571,3.5701,4.1544,4.3868,4.4012,4.5712,4.8386,5.0707,4.6871,4.622,4.7322,4.8397,4.6011,4.2337,4.0513,4.0274,0.0,0.0,0.0,0.0,4.2017,0.0,0.0,0.0,0.0,0.0,4.7101,4.8795,5.0909,5.3589,5.4215,5.4959,5.7257,5.7808,5.79,5.79,5.79,5.8152,5.8878,5.9622,6.0385,6.1197,6.1941,6.24,6.24,6.24,6.24,6.24,6.24,6.24,6.24,6.24,6.24,6.24,6.24,6.24,6.24,6.24,6.24,6.24,6.24,6.24,6.24,6.24,6.24,6.24,6.24,6.24,6.24,6.24,6.24,6.24,6.24,6.24,6.24,6.24,6.24,6.24,0.0,0.0,0.0,0.0,0.0,3.5876,3.5976,3.6274,0.0,0.0,0.0,0.0,0.0,0.0,0.0,3.7398,3.696,3.6816,3.7109,3.6967,3.7196,3.7908,3.8061,3.8223,3.8408,3.8376,3.8431,3.852,3.8431,3.8417,3.8534,3.8576,3.8144,3.7293,3.7002,3.627,3.5195,3.5195,3.5195,3.5734,4.1686,4.4329,4.503,4.7892,5.0605,5.2572,5.0158,4.9743,5.0472,5.1596,4.8117,4.3143,4.2422,4.1531,4.072,4.0735,0.0,0.0,0.0,0.0,4.258,4.1832,0.0,0.0,4.6166,4.777,5.0039,5.383,5.4655,5.5247,5.7137,5.7569,5.7643,5.7643,5.7643,5.8069,5.9299,5.9844,6.052,6.1637,6.2144,6.24,6.24,6.24,6.24,6.24,6.24,6.24,6.24,6.24,6.24,6.24,6.24,6.24,6.24,6.24,6.24,6.24,6.24,6.24,6.24,6.24,6.24,6.24,6.24,6.24,6.24,6.24,6.24,6.24,6.24,6.24,6.24,6.24,6.24,6.24,0.0,0.0,3.6042,3.6108,3.6605,3.6791,3.6208,3.6758,0.0,0.0,0.0,0.0,0.0,0.0,0.0,0.0,3.7,3.6444,3.6213,3.6173,3.6497,3.7163,3.7313,3.7633,3.8177,3.7946,3.8006,3.8348,3.8006,3.8025,3.8432,3.84,3.795,3.7163,3.6581,3.5882,3.5228,3.5292,3.5578,3.6481,4.2561,4.5402,4.638,5.0022,5.1446,5.148,5.1279,5.1142,5.1386,5.3651,5.1233,4.7243,4.6898,4.4393,4.1449,4.075,4.188,0.0,0.0,0.0,0.0,4.1191,4.0965,0.0,4.7158,4.7984,4.9234,5.471,5.5644,5.5655,5.6259,5.6382,5.6382,5.6382,5.6702,5.7637,5.9764,6.0038,6.0598,6.2192,6.2361,6.2361,6.24,6.24,6.24,6.24,6.24,6.24,6.24,6.24,6.24,6.24,6.24,6.24,6.24,6.24,6.24,6.24,6.24,6.24,6.24,6.24,6.24,6.24,6.24,6.24,6.24,6.24,6.24,6.24,6.24,6.24,6.24,6.24,6.24,6.24,0.0,3.6009,3.6208,3.6791,3.6493,3.6373,3.6837,3.752,3.7983,3.7983,3.8626,3.9149,0.0,0.0,0.0,0.0,3.6207,3.5629,3.5577,3.5474,3.5733,3.6451,3.6612,3.673,3.6793,3.7557,3.7985,3.8096,3.7985,3.8214,3.8706,3.7481,3.6774,3.6484,3.6354,3.5882,3.5247,3.5817,3.7921,4.1107,4.4271,4.5729,4.6629,5.2336,5.4877,5.538,5.5183,5.535,5.5299,5.2705,5.147,5.0028,4.4106,4.4455,4.5996,4.0598,4.1796,4.4292,4.1767,4.1154,4.1205,4.1031,4.1292,0.0,4.2302,4.2246,4.2949,4.5963,4.6272,4.6912,4.9954,5.0656,5.0758,5.0758,5.2843,5.5673,5.9141,5.963,6.0245,6.1868,6.2076,6.2169,6.2381,6.24,6.24,6.24,6.24,6.24,6.24,6.24,6.24,6.24,6.24,6.24,6.24,6.24,6.24,6.24,6.24,6.24,6.24,6.24,6.24,6.24,6.24,6.24,6.24,6.24,6.24,6.24,6.24,6.24,6.24,6.24,6.24,6.24,0.0,3.6009,3.6241,3.6957,3.7089,3.7222,3.7586,3.8261,3.8758,3.8758,3.8758,3.8758,3.8758,0.0,0.0,0.0,0.0,0.0,0.0,3.4702,3.4988,3.572,3.5864,3.6065,3.635,3.7013,3.7452,3.7652,3.7813,3.8133,3.86,3.7883,3.6749,3.5363,3.6019,3.5545,3.4348,3.5727,3.8525,4.2309,4.524,4.7647,4.9991,5.4706,5.6731,5.7031,5.6828,5.6857,5.6701,5.4612,5.19,4.9056,4.7144,4.6273,4.5373,4.2618,4.3479,4.462,4.1501,4.0504,4.0246,3.9801,4.043,0.0,0.0,4.2868,4.3893,4.5898,4.6127,4.6388,4.7918,4.8315,4.8513,4.8844,5.1179,5.3208,5.3956,5.7215,5.9954,6.1165,6.1635,6.1911,6.203,6.213,6.2249,6.2381,6.24,6.24,6.24,6.24,6.24,6.24,6.24,6.24,6.24,6.24,6.24,6.24,6.24,6.24,6.24,6.24,6.24,6.24,6.24,6.24,6.24,6.24,6.24,6.24,6.24,6.24,6.24,6.24,6.24,6.24,3.5876,3.6009,3.6274,3.7156,3.7785,3.8248,3.8394,3.8904,3.9249,3.9116,3.8414,3.7891,3.7746,3.6949,3.6341,0.0,0.0,0.0,3.5019,3.5013,3.5032,3.4988,3.5246,3.5629,3.6155,3.6653,3.7091,3.7416,3.7652,3.7984,3.8418,3.827,3.6971,3.4846,3.6671,3.6046,3.3828,3.6365,3.9555,4.3126,4.5914,4.9392,5.3222,5.6334,5.7514,5.7458,5.7252,5.7082,5.6811,5.5923,5.2137,4.8035,4.937,4.7589,4.4794,4.3804,4.4588,4.4899,4.1181,3.9816,3.9367,3.8742,3.957,4.1089,0.0,0.0,0.0,4.6748,4.6814,4.6503,4.6029,4.6012,4.6225,4.6799,4.905,5.0007,4.785,5.3488,5.7969,5.8313,6.0324,6.1381,6.0698,6.0776,6.1276,6.2254,6.1646,6.1598,6.2367,6.24,6.24,6.24,6.24,6.24,6.24,6.24,6.24,6.24,6.24,6.24,6.24,6.24,6.24,6.24,6.24,6.24,6.24,6.24,6.24,6.24,6.24,6.24,6.24,6.24,6.24,6.24,3.5976,3.6009,3.6439,3.7818,3.8149,3.8427,3.907,3.9249,3.907,3.8427,3.7575,3.6785,3.6133,3.7558,3.8542,3.8529,4.0951,4.1237,3.837,3.833,3.7196,3.434,3.4986,3.5504,3.5671,3.6987,3.7774,3.7919,3.766,3.7897,3.8558,3.7329,3.6495,3.6259,4.002,3.9204,3.5279,3.9663,4.3449,4.6537,4.6758,4.9094,5.2817,5.6077,5.7233,5.7044,5.6834,5.6757,5.6202,5.2861,5.1722,5.0567,4.371,4.6068,4.9556,4.0503,4.2362,4.6094,4.0355,3.8767,3.8837,3.9261,4.0032,4.0903,4.169,0.0,4.1221,4.1366,0.0,3.9743,4.031,0.0,0.0,4.0699,4.3645,4.5391,4.4027,4.8409,5.1412,5.0418,5.6911,6.0198,5.7024,5.6761,5.8251,6.1781,5.8982,5.8654,6.2212,6.24,6.24,6.24,6.24,6.24,6.24,6.24,6.24,6.24,6.24,6.24,6.24,6.24,6.24,6.24,6.24,6.24,6.24,6.24,6.24,6.24,6.24,6.24,6.24,6.24,6.24,6.24,3.6539,3.699,0.0,3.8083,3.8215,3.8149,3.803,3.803,3.7871,3.7496,3.6815,3.6241,3.5857,3.6138,3.7091,3.8969,4.0085,4.0395,3.9602,3.9458,0.0,3.5604,3.6149,3.6539,3.6592,3.7285,3.7875,3.8341,3.7788,3.7938,3.8678,3.8008,3.7149,3.6259,4.0498,4.0885,3.8487,4.0644,4.3674,4.7018,4.673,4.8695,5.2146,5.5758,5.7006,5.6815,5.6719,5.6699,5.6448,5.4887,5.1951,4.9057,4.9588,4.8166,4.5945,4.4203,4.4274,4.4084,4.0188,4.012,4.0767,3.9242,4.0744,4.2233,4.0734,4.043,4.0398,4.0009,0.0,0.0,0.0,0.0,0.0,0.0,4.2949,4.4283,4.197,4.6569,4.9985,4.9465,5.3232,5.6045,5.6478,5.6131,5.7573,6.1708,5.8522,5.8179,6.2178,6.24,6.24,6.24,6.24,6.24,6.24,6.24,6.24,6.24,6.24,6.24,6.24,6.24,6.24,6.24,6.24,6.24,6.24,6.24,6.24,6.24,6.24,6.24,6.24,6.24,6.24,6.24,3.6659,0.0,3.7884,3.7884,3.7884,3.7719,3.7189,3.7064,3.6947,3.6647,3.5968,3.5416,3.512,3.604,3.7597,3.9896,4.1814,4.2268,4.0828,4.0939,3.9864,3.722,3.7153,3.7647,3.8669,3.8234,3.8243,3.8697,3.8128,3.8169,3.8788,3.8738,3.7885,3.6607,4.0643,4.182,4.0815,4.1908,4.4629,4.8165,4.7869,4.9024,5.138,5.5391,5.6853,5.6776,5.6719,5.6699,5.6514,5.5502,5.2032,4.8792,5.2482,4.9551,4.5241,4.7473,4.6865,4.4802,4.1679,4.205,4.265,3.9711,4.1051,4.2493,4.028,4.0009,4.0106,3.9588,3.9329,0.0,0.0,0.0,3.9667,4.0183,0.0,4.3308,4.0879,4.4578,4.7381,4.6961,4.8927,5.1696,5.5128,5.4037,5.5169,6.0195,5.7145,5.714,6.2012,6.2302,6.2302,6.2302,6.2302,6.2302,6.2302,6.2361,6.24,6.24,6.24,6.24,6.24,6.24,6.24,6.24,6.24,6.24,6.24,6.24,6.24,6.24,6.24,6.24,6.24,6.24,6.24,6.24,3.5876,3.6638,3.7135,3.7135,3.7135,3.7122,3.7089,3.6988,3.6647,3.591,3.4976,3.4084,3.3355,3.8577,4.2144,4.2096,4.9094,5.0276,4.2652,4.3599,4.2715,3.8809,3.7518,3.8559,4.2071,4.0246,3.9175,3.8999,3.8843,3.8788,3.8788,3.8944,3.855,3.7879,4.112,4.2032,4.1263,4.4271,4.7752,5.1236,5.1027,5.0577,5.0545,5.5005,5.6815,5.6968,5.6776,5.6699,5.615,5.2513,5.1689,5.1461,4.7258,4.8762,5.138,4.7951,4.9257,5.0702,4.5536,4.421,4.364,4.1071,4.0617,4.0756,4.0525,3.9977,3.9523,3.9491,3.894,3.844,3.8408,3.9005,3.9534,0.0,4.0859,0.0,0.0,4.1482,4.1518,4.0012,4.3731,4.7859,5.1689,4.8696,4.9409,5.6425,5.3615,5.4634,6.1627,6.2017,6.2017,6.2017,6.2017,6.2017,6.2017,6.2249,6.24,6.24,6.24,6.24,6.24,6.24,6.24,6.24,6.24,6.24,6.24,6.24,6.24,6.24,6.24,6.24,6.24,6.24,6.24,6.24,3.6221,3.6563,3.6743,3.6423,3.6373,3.6208,3.5711,3.5535,3.6092,3.7891,3.7748,3.8216,4.0138,4.2411,4.4691,4.6895,4.9692,4.9227,4.4242,4.4687,4.3677,4.0408,3.8272,3.9201,4.3548,4.0569,3.9175,3.9612,3.9161,3.8912,3.8912,3.8999,3.8921,3.8903,4.147,4.3817,4.5859,4.575,4.7967,5.1257,4.8018,4.8415,5.1017,5.1905,5.232,5.2738,5.5672,5.6699,5.6514,5.5218,5.364,5.2296,5.2798,5.1221,4.9319,5.0097,4.9714,4.8672,4.693,4.7949,4.8278,4.3385,4.4037,4.4868,4.0764,3.9653,3.962,4.0074,3.962,3.9264,3.9703,4.0398,0.0,0.0,0.0,4.2055,0.0,4.1339,4.0918,3.9929,4.3595,4.6696,4.801,4.8354,5.0801,5.6368,5.5202,5.6496,6.1708,6.1857,6.1857,6.1997,6.1857,6.1857,6.1997,6.2076,6.2209,6.24,6.24,6.24,6.24,6.24,6.24,6.24,6.24,6.24,6.24,6.24,6.24,6.24,6.24,6.24,6.24,6.24,6.24,6.24,3.6265,3.6264,3.6101,3.5804,3.5636,3.5409,3.5041,3.4369,3.5225,3.8897,3.9037,4.0183,4.3835,4.5691,4.7501,4.9543,5.1186,4.9855,4.4624,4.6254,4.591,4.2517,4.1293,4.2798,4.7193,4.2873,4.0786,4.1222,3.9792,3.9107,3.9107,3.9107,3.9002,3.8904,4.0015,4.3197,4.765,4.6199,4.8614,5.2868,4.6597,4.5856,4.8448,4.7869,4.8811,5.1029,5.5222,5.6699,5.6699,5.6699,5.5397,5.4099,5.6065,5.3967,5.1163,5.3152,5.2323,5.0619,4.9792,5.0996,5.1277,4.6241,4.6815,4.7208,4.1942,4.0744,4.0422,3.9232,3.8861,3.8699,3.8616,3.962,4.056,0.0,0.0,0.0,0.0,4.121,4.0668,3.9791,4.2614,4.5063,4.6173,4.6594,4.9014,5.4278,5.4309,5.5728,5.9552,6.0946,6.1648,6.1777,6.1669,6.1689,6.1877,6.1957,6.2116,6.24,6.24,6.24,6.24,6.24,6.24,6.24,6.24,6.24,6.24,6.24,6.24,6.24,6.24,6.24,6.24,6.24,6.24,6.24,3.5971,3.5722,3.5326,3.5292,3.4977,3.4799,3.4979,3.3578,3.4259,3.9081,3.8983,4.0138,4.4642,4.8545,5.0708,5.0347,5.3757,5.2447,4.4183,4.8315,4.9257,4.5139,4.6147,4.8646,5.2608,4.6764,4.3647,4.3598,4.068,3.9235,3.9269,3.9235,3.8791,3.7953,3.7052,4.0259,4.6303,4.5451,4.932,5.5303,4.6732,4.3331,4.3348,4.3561,4.6862,5.1867,5.5426,5.6699,5.6699,5.6699,5.6699,5.6699,5.6699,5.6699,5.6699,5.6699,5.6699,5.623,5.3977,5.336,5.2631,4.9525,4.8801,4.7848,4.4134,4.3286,4.2083,3.7829,3.7418,3.7385,3.5921,3.7334,3.8908,0.0,0.0,0.0,4.0999,4.0925,4.0464,3.9253,4.0656,4.2854,4.5789,4.346,4.4269,5.0358,5.0983,5.25,5.5814,5.9272,6.125,6.1383,6.1383,6.1486,6.1689,6.1877,6.213,6.24,6.24,6.24,6.24,6.24,6.24,6.24,6.24,6.24,6.24,6.24,6.24,6.24,6.24,6.24,6.24,6.24,6.24,6.24,3.6079,3.5844,3.5486,3.4955,3.5025,3.4846,3.3966,3.318,3.5167,4.1977,4.2141,4.4423,5.1815,5.3766,5.4504,5.4394,5.5667,5.4162,4.8628,5.0031,5.0363,4.8695,4.6814,4.7869,5.2363,4.5473,4.2331,4.3464,3.9998,3.8599,3.908,3.8566,3.8223,3.7939,3.6404,3.7975,4.1672,4.0787,4.2861,4.6551,4.4249,4.3627,4.4416,4.7226,4.9504,5.1656,5.5388,5.6699,5.6699,5.6699,5.6699,5.6699,5.6699,5.6699,5.6699,5.6699,5.6699,5.6581,5.5979,5.5795,5.5062,5.1972,5.1607,5.1176,4.7914,4.7159,4.6979,4.6372,4.598,4.4884,4.2231,4.2639,4.269,4.0575,4.0752,4.0972,4.0481,4.0073,3.9684,3.9355,3.9996,4.076,4.1511,4.2789,4.5663,5.0663,5.0925,5.3533,5.9625,5.8562,5.8893,6.1317,6.1252,6.1355,6.1689,6.175,6.1971,6.24,6.24,6.24,6.24,6.24,6.24,6.24,6.24,6.24,6.24,6.24,6.24,6.24,6.24,6.24,6.24,6.24,6.24,6.24,3.644,3.5863,3.5199,3.4562,3.579,3.6669,3.5865,3.3838,3.5255,4.32,4.3772,4.6002,5.269,5.519,5.6425,5.65,5.6697,5.5088,5.102,5.2577,5.281,5.0821,5.0498,5.1623,5.4343,4.8911,4.5643,4.4852,4.1492,3.9243,3.7991,3.7597,3.7222,3.6816,3.5856,3.7247,4.0543,4.3355,4.427,4.3922,4.5564,4.6485,0.0,4.9206,5.1488,5.3824,5.5932,5.6699,5.6699,5.6699,5.6699,5.6699,5.6699,5.6699,5.6699,5.6699,5.6699,5.6699,5.6699,5.6699,5.6263,5.4547,5.4429,5.3911,5.0814,5.0121,4.9676,4.8146,4.7735,4.6947,4.4604,4.3659,4.2524,4.0395,4.0071,4.0179,4.0508,3.9891,3.9379,3.9398,3.959,3.9716,3.9677,4.1208,4.3977,4.8296,4.8123,4.9571,5.3622,5.5212,5.6731,5.825,5.8515,5.9604,6.1689,6.0063,6.0312,6.24,6.24,6.24,6.24,6.24,6.24,6.24,6.24,6.24,6.24,6.24,6.24,6.24,6.24,6.24,6.24,6.24,6.24,6.24,3.6636,3.5721,3.4732,3.4129,3.6791,3.9116,3.951,3.6044,3.6301,4.4333,4.5207,4.6754,5.1212,5.4889,5.7101,5.7252,5.7101,5.5677,5.2597,5.5277,5.5592,5.2495,5.514,5.6776,5.6949,5.3856,5.0416,4.6682,4.3649,4.0301,3.6705,3.6593,3.6123,3.5388,3.5375,3.7356,4.1096,4.7588,4.7984,4.458,4.8446,5.0,5.0066,5.0644,5.3294,5.6699,5.6699,5.6699,5.6699,5.6699,5.6699,5.6699,5.6699,5.6699,5.6699,5.6699,5.6699,5.6699,5.6699,5.6766,5.6832,5.6832,5.6931,5.6296,5.3581,5.2983,5.1876,4.7951,4.7671,4.7605,4.5861,4.3015,4.0764,4.0221,3.9738,4.0116,4.1964,4.1399,4.0618,4.004,4.0051,0.0,3.932,3.9404,4.1082,4.5034,4.4162,4.4113,4.5538,5.1498,5.4946,5.5179,5.5793,5.7666,6.0893,5.8198,5.8461,6.1631,6.2144,6.24,6.24,6.24,6.24,6.24,6.24,6.24,6.24,6.24,6.24,6.24,6.24,6.24,6.24,6.24,6.24,6.24,3.5597,3.5153,3.4635,3.3844,3.6638,4.0054,4.3118,4.2334,4.3359,4.8817,4.9272,5.0821,5.5436,5.6709,5.7195,5.7063,5.7025,5.6739,5.6125,5.6639,5.663,5.5847,5.6387,5.6719,5.6757,5.3195,4.9801,4.6682,4.3065,3.9724,3.6672,3.5967,3.5544,3.5388,3.5272,3.7015,4.0018,4.0747,4.1996,4.3857,4.8249,5.0,5.0396,5.4107,5.6017,5.6699,5.6699,5.6699,5.6699,5.6699,5.6699,5.6699,5.6699,5.6699,5.6699,5.6699,5.6699,5.6699,5.6699,5.7163,5.7608,5.7608,5.8071,5.8369,5.7833,5.7701,5.7502,5.6688,5.6655,5.569,5.229,4.6208,4.2105,4.3282,4.2894,4.3879,4.8023,4.8428,4.7001,4.3441,4.3421,4.2346,3.8923,3.8998,4.0811,4.4642,4.2296,4.4484,5.32,5.2513,5.4333,5.9733,6.0018,5.9039,5.6773,5.941,5.9625,5.7483,6.083,6.24,6.24,6.24,6.24,6.24,6.24,6.24,6.24,6.24,6.24,6.24,6.24,6.24,6.24,6.24,6.24,6.24,3.4638,3.4312,3.4719,3.6253,3.9497,4.324,4.726,4.9294,5.0495,5.0873,5.0826,5.1749,5.4283,5.6114,5.7195,5.7308,5.7214,5.7158,5.7158,5.7063,5.6949,5.6853,5.6757,5.6699,5.6699,5.492,5.1371,4.6025,4.4218,4.059,3.5342,3.5311,3.5285,3.5383,3.7652,3.9284,4.054,4.4142,4.6306,4.7688,5.1819,5.346,5.371,5.5885,5.6699,5.6699,5.6699,5.6964,5.721,5.6832,5.6699,5.6766,5.7144,5.7263,5.7362,5.7727,5.7839,5.7839,5.7839,5.8104,5.8369,5.8369,5.8634,5.8899,5.8899,5.8899,5.8899,5.8899,5.8899,5.7734,5.3911,4.8312,4.49,4.6806,4.4606,4.4538,4.9862,5.0377,4.9432,4.7376,4.5101,4.3194,4.1839,3.9629,3.9238,4.1579,3.9981,4.1886,4.8745,4.9669,5.232,5.7404,5.7952,5.8303,5.8654,5.8756,5.8969,5.9314,6.1404,6.24,6.24,6.24,6.24,6.24,6.24,6.24,6.24,6.24,6.24,6.24,6.24,6.24,6.24,6.24,6.207,6.1656,3.4711,3.3969,3.4848,3.9537,4.2705,4.6099,5.0518,5.4496,5.5883,5.2876,5.2654,5.2937,5.3314,5.5585,5.7195,5.7514,5.7364,5.7233,5.7233,5.7082,5.6987,5.693,5.6776,5.6699,5.6699,5.6699,5.3408,4.6602,4.5945,4.2002,3.5072,3.5325,3.5856,3.6786,4.0178,4.2239,4.3573,4.9563,5.2176,5.2546,5.5502,5.6699,5.6699,5.6699,5.6799,5.6931,5.6931,5.7428,5.7939,5.7362,5.7163,5.7263,5.7839,5.8038,5.8138,5.8734,5.8899,5.8899,5.8899,5.8999,5.9131,5.9131,5.9264,5.9363,5.9363,5.9363,5.9363,5.9363,5.9363,5.8197,5.4373,5.0537,4.8279,4.9312,4.6694,4.6235,5.1029,5.1982,5.1938,5.1252,4.6887,4.4433,4.5628,4.0827,3.8226,3.9758,3.9568,4.0891,4.4334,4.7425,5.0742,5.4495,5.5026,5.6447,5.8953,5.7858,5.8428,6.0774,6.1818,6.2341,6.24,6.2341,6.2341,6.2381,6.2203,6.1991,6.181,6.181,6.181,6.181,6.181,6.181,6.181,6.181,6.135,6.0673,3.7126,3.4904,3.5041,4.2746,4.4378,4.6327,5.1388,5.5221,5.7334,5.6794,5.7052,5.7193,5.688,5.7107,5.7289,5.7327,5.7139,5.7025,5.7025,5.7006,5.6911,5.6738,5.6699,5.6699,5.6699,5.6699,5.4669,5.0559,4.7786,4.3602,3.8245,3.685,3.8019,4.125,4.1019,4.4668,5.1098,5.1792,5.3684,5.6216,5.6567,5.6699,5.6699,5.6699,5.713,5.7693,5.7693,5.8171,5.88,5.8701,5.8701,5.8701,5.8767,5.88,5.88,5.8866,5.8899,5.8899,5.8899,5.9396,5.9893,5.9893,6.039,6.0887,6.0887,6.0887,6.0887,6.0887,6.0887,5.9753,5.5892,5.3826,5.1792,4.9215,5.0748,5.2664,5.3841,5.6739,5.76,5.4626,5.0177,4.7762,4.8777,4.2466,3.9608,4.2834,4.3746,4.5734,4.9317,4.9368,5.1218,5.5428,5.5051,5.357,5.1071,5.7785,5.9661,5.6713,6.0318,6.2169,6.2381,6.2169,6.2169,6.2341,6.1493,6.0652,5.9849,5.9849,5.9849,5.9849,5.9849,5.9849,5.9849,5.9849,5.9805,5.9684,4.1057,4.0434,4.162,4.7545,4.8917,5.0644,5.4849,5.6808,5.7698,5.7514,5.7514,5.7514,5.7495,5.7383,5.7252,5.7139,5.7044,5.6949,5.6815,5.6815,5.6776,5.6699,5.6699,5.6699,5.6699,5.6699,5.4854,5.1122,4.7556,4.3618,3.935,3.9102,4.128,4.5406,4.6914,4.925,5.2239,5.4099,5.5563,5.6699,5.6699,5.6699,5.6766,5.7196,5.7541,5.7839,5.8303,5.8933,5.9562,5.9562,5.9264,5.8966,5.9429,5.9562,5.9661,6.0092,6.0225,6.0225,6.0225,6.0456,6.0655,6.0655,6.0887,6.1119,6.1119,6.1119,6.1119,6.1119,6.1119,6.0634,5.9084,5.6128,5.4406,5.5878,5.4868,5.4953,5.7972,5.961,5.9037,5.504,5.0339,4.7622,4.8219,4.1169,3.8426,4.3037,4.1888,4.2484,4.6004,4.8153,5.0077,5.1797,5.6195,5.669,5.2869,5.8734,6.0953,5.9474,6.0617,6.1317,6.1534,6.0703,6.0471,6.0715,6.0333,5.9935,5.9587,5.9587,5.9824,6.019,6.019,6.0449,6.0815,6.0815,6.0421,5.9958,4.5128,4.4959,4.6327,5.1894,5.2351,5.3264,5.7091,5.7808,5.7845,5.7698,5.7514,5.7439,5.7588,5.7364,5.7158,5.7006,5.6949,5.6853,5.6699,5.6699,5.6699,5.6699,5.6699,5.6699,5.6699,5.6699,5.5402,5.2762,4.9121,4.5813,4.2783,4.2133,4.4389,4.9018,5.0951,5.2407,5.3599,5.5781,5.6699,5.6732,5.6931,5.7011,5.7077,5.7839,5.8237,5.8502,5.9032,5.9694,6.0324,6.0324,5.9993,5.9628,6.0158,6.0324,6.0423,6.0953,6.1119,6.1119,6.1119,6.1119,6.1119,6.1119,6.1119,6.1119,6.1119,6.1119,6.1119,6.1119,6.1119,6.1119,6.1119,5.8488,5.6908,5.8786,5.7522,5.6941,5.8852,5.9989,5.9128,5.5037,5.0101,4.7718,4.9509,4.2333,4.016,4.6478,4.3529,4.2615,4.5349,4.788,4.9879,5.1135,5.6432,5.7895,5.5103,5.9135,6.1206,6.1235,6.0374,6.014,6.0428,5.9674,5.9331,5.9377,5.9444,5.9437,5.9357,5.9357,5.9644,6.0068,6.0068,6.0355,6.0778,6.0778,6.0353,5.984,4.9154,4.7105,4.7173,5.531,5.367,5.2723,5.7205,5.79,5.79,5.7881,5.7717,5.7606,5.7606,5.7252,5.7006,5.7006,5.6815,5.6699,5.6699,5.6699,5.6699,5.6699,5.6699,5.6699,5.6699,5.6699,5.6699,5.6633,5.3533,5.13,4.9784,4.6091,4.7095,5.2023,5.1384,5.3159,5.6666,5.6699,5.6699,5.6766,5.7495,5.7773,5.7873,5.8601,5.933,5.996,5.9993,6.0456,6.1086,6.1086,6.1086,6.1086,6.1086,6.1086,6.1086,6.1119,6.1119,6.1119,6.1119,6.1119,6.1119,6.1119,6.1119,6.1119,6.1119,6.1119,6.1119,6.1119,6.1119,6.1119,6.1119,6.1053,5.9567,5.5099,5.8104,5.9468,5.5,5.74,5.8399,5.5069,5.0026,4.8844,5.4117,4.7437,4.635,5.489,5.127,4.9092,5.0062,4.9604,5.125,5.5498,5.5069,5.5155,5.5968,5.8608,6.0011,6.0214,5.9004,5.8722,5.9224,5.9477,5.9328,5.8829,5.9105,5.9037,5.8812,5.8812,5.8812,5.8812,5.8812,5.8812,5.8812,5.8812,5.8843,5.891,5.4296,5.3721,5.389,5.7002,5.6562,5.6258,5.7697,5.79,5.7845,5.7717,5.7514,5.7346,5.7214,5.7082,5.6949,5.6796,5.6738,5.6699,5.6699,5.6699,5.6699,5.6699,5.6699,5.6699,5.6699,5.6699,5.6699,5.6699,5.314,5.1204,5.0709,4.9519,5.1204,5.5213,5.5,5.5568,5.6699,5.6699,5.6998,5.7475,5.7707,5.8104,5.8634,5.9363,5.9794,6.0059,6.0589,6.092,6.1119,6.1119,6.1119,6.1119,6.1119,6.1119,6.1119,6.1119,6.1119,6.1119,6.1119,6.1119,6.1119,6.1119,6.1119,6.1119,6.1119,6.1119,6.1119,6.1119,6.1483,6.1869,6.1869,6.2266,6.2113,6.068,6.1231,6.1351,5.9886,5.7548,5.4492,5.0462,4.5796,4.4507,4.8587,4.4071,4.3497,4.9836,4.6223,4.5638,4.9979,5.1761,5.2252,5.1347,5.6346,5.7458,5.4113,5.7946,5.9598,5.8982,5.8578,5.8774,5.9444,5.897,5.9058,5.9511,5.9114,5.89,5.8818,5.8818,5.9095,5.947,5.947,5.9747,6.0147,6.0147,6.0147,6.0178,5.707,5.7205,5.734,5.7832,5.79,5.79,5.79,5.7827,5.7735,5.7625,5.7364,5.7139,5.7006,5.693,5.6834,5.6699,5.6699,5.6699,5.6699,5.6699,5.6699,5.6699,5.6699,5.6699,5.6699,5.6699,5.6699,5.6699,5.4372,5.321,5.321,5.321,5.4471,5.6699,5.6699,5.6699,5.6732,5.6998,5.7395,5.7839,5.8403,5.8899,5.9396,6.0125,6.0423,6.049,6.0953,6.1119,6.1119,6.1119,6.1119,6.1119,6.1119,6.1119,6.1119,6.1119,6.1119,6.1119,6.1119,6.1119,6.1119,6.1119,6.1119,6.1119,6.1119,6.1119,6.1119,6.1119,6.145,6.1803,6.1803,6.2167,6.2465,6.2465,6.2101,6.1206,5.9549,5.647,5.2752,4.8424,4.5423,4.5245,4.9097,4.7037,4.7337,5.1881,4.9736,4.9682,5.3005,5.2292,5.2379,5.37,5.78,5.8583,5.5729,5.7658,5.8714,5.8832,5.8694,5.8648,5.866,5.8372,5.8633,5.9377,5.9162,5.919,5.9405,5.9506,5.9778,6.0178,6.0178,6.0424,6.0794,6.0794,6.0794,6.0794,5.7764,5.79,5.79,5.79,5.7881,5.7881,5.7881,5.7698,5.7569,5.7551,5.7233,5.6987,5.6987,5.6815,5.6699,5.6699,5.6699,5.6699,5.6699,5.6699,5.6699,5.6699,5.6699,5.6699,5.6699,5.6699,5.6699,5.6699,5.6699,5.6699,5.6699,5.6699,5.6699,5.6699,5.6699,5.6732,5.6832,5.7528,5.7839,5.8071,5.9463,6.0026,6.0158,6.0854,6.1119,6.1119,6.1119,6.1119,6.1119,6.1119,6.1119,6.1119,6.1119,6.1119,6.1119,6.1119,6.1119,6.1119,6.1119,6.1119,6.1119,6.1119,6.1119,6.1119,6.1119,6.1119,6.1119,6.1119,6.1152,6.1185,6.1185,6.1218,6.1251,6.1251,6.0933,5.9277,5.5152,5.4258,5.2536,4.8537,4.8007,4.9697,5.4118,5.4442,5.5677,5.8819,5.9012,5.8582,5.7714,5.1504,5.1941,6.0637,5.91,5.8587,5.9642,5.766,5.7586,5.9425,5.9156,5.846,5.7389,5.7842,5.8282,5.8813,5.9253,5.9796,6.0377,6.0664,6.0768,6.0768,6.0794,6.0794,6.0794,6.0794,6.0794,6.0794,5.7866,5.79,5.79,5.79,5.7772,5.7662,5.7662,5.7495,5.7327,5.7158,5.7063,5.693,5.6776,5.6719,5.6699,5.6699,5.6699,5.6699,5.6699,5.6699,5.6699,5.6699,5.6699,5.6699,5.6699,5.6699,5.6699,5.6699,5.6699,5.6699,5.6699,5.6699,5.6699,5.6699,5.6699,5.7031,5.7541,5.7727,5.8436,5.9496,5.986,6.0357,6.0854,6.1032,6.1119,6.1119,6.1119,6.1119,6.1119,6.1119,6.1119,6.1119,6.1119,6.1119,6.1119,6.1119,6.1119,6.1119,6.1119,6.1119,6.1119,6.1119,6.1119,6.1119,6.1119,6.1119,6.1119,6.1119,6.155,6.1935,6.1935,6.2399,6.2797,6.2797,5.9381,5.6373,5.5317,5.1759,4.8838,4.7848,4.7035,4.8372,5.2882,5.1947,5.1744,5.3434,5.2849,5.2655,5.3206,5.095,5.246,5.8627,5.8369,5.7885,5.7394,5.7373,5.7869,5.8813,5.8501,5.9011,6.0191,5.9457,5.9609,6.0486,6.0058,5.994,6.0118,6.0377,6.0481,6.0508,6.0716,6.0794,6.0794,6.0794,6.0794,6.0794,5.79,5.79,5.7863,5.7772,5.7662,5.7569,5.7476,5.7289,5.712,5.7006,5.693,5.6815,5.6699,5.6699,5.6699,5.6699,5.6699,5.6699,5.6699,5.6699,5.6699,5.6699,5.6699,5.6699,5.6699,5.6699,5.6699,5.6699,5.6699,5.6699,5.6699,5.6699,5.6699,5.6732,5.7064,5.7428,5.7839,5.8502,5.9264,6.0026,6.0357,6.0755,6.1119,6.1119,6.1119,6.1119,6.1119,6.1119,6.1119,6.1119,6.1119,6.1119,6.1119,6.1119,6.1119,6.1119,6.1119,6.1119,6.1119,6.1119,6.1119,6.1119,6.1119,6.1119,6.1119,6.1119,6.1119,6.1119,6.1417,6.1703,6.1703,6.2034,6.2278,6.2278,5.7937,5.45,5.4384,4.9848,4.7294,4.9204,4.8961,5.037,5.4847,5.4276,5.3748,5.3937,5.3876,5.3668,5.3326,5.3186,5.466,5.7976,5.754,5.7173,5.7051,5.806,5.8486,5.8372,5.8993,5.9636,6.0229,5.9584,5.9633,6.0158,5.9902,5.9773,5.98,6.0219,6.0403,6.0429,6.069,6.0716,6.0612,6.0612,6.0534,6.046,5.7845,5.7845,5.779,5.7588,5.7532,5.7458,5.7289,5.7082,5.6949,5.6949,5.6796,5.6699,5.6699,5.6699,5.6699,5.6699,5.6699,5.6699,5.6699,5.6699,5.6699,5.6699,5.6699,5.6699,5.6699,5.6699,5.6699,5.6699,5.6699,5.6699,5.6699,5.6832,5.6865,5.6898,5.7641,5.8038,5.8204,5.9463,6.0059,6.0225,6.0854,6.1119,6.1119,6.1119,6.1119,6.1119,6.1119,6.1119,6.1119,6.1119,6.1119,6.1119,6.1119,6.1119,6.1119,6.1119,6.1119,6.1119,6.1119,6.1119,6.1119,6.1119,6.1119,6.1119,6.1119,6.1119,6.1119,6.1119,6.1119,6.1119,6.1119,6.1119,6.0866,6.0183,5.5896,5.2498,5.2114,4.8416,4.7214,5.1099,5.2188,5.3992,5.7539,5.7769,5.73,5.6445,5.7181,5.6981,5.543,5.6119,5.6968,5.7911,5.6796,5.6661,5.7664,5.8848,5.9058,5.8291,5.9753,5.9974,5.9099,5.9099,5.9099,5.9099,5.9342,5.9449,5.9476,6.0035,6.0272,6.0298,6.056,6.0534,6.0324,6.0324,6.0197,6.0012,5.768,5.7643,5.7588,5.7383,5.7214,5.7082,5.7063,5.6872,5.6738,5.6738,5.6719,5.6699,5.6699,5.6699,5.6699,5.6699,5.6699,5.6699,5.6699,5.6699,5.6699,5.6699,5.6699,5.6699,5.6699,5.6699,5.6699,5.6699,5.6699,5.6699,5.6732,5.7342,5.7608,5.7641,5.8403,5.9065,5.9661,5.9893,6.0357,6.0953,6.1053,6.1119,6.1119,6.1119,6.1119,6.1119,6.1119,6.1119,6.1119,6.1119,6.1119,6.1119,6.1119,6.1119,6.1119,6.1119,6.1119,6.1119,6.1119,6.1119,6.1119,6.1119,6.1119,6.1119,6.1119,6.1119,6.1119,6.1119,6.1119,6.1119,6.1119,6.1119,5.9852,5.5996,5.1595,4.8334,4.7319,4.735,4.8397,5.113,5.4769,5.7023,5.6865,5.614,5.5576,5.5456,5.5551,5.5772,5.6038,5.6196,5.6559,5.7225,5.6582,5.6809,5.7993,5.823,5.8541,5.8949,5.9228,5.9261,5.9099,5.9099,5.9099,5.9099,5.9153,5.9153,5.918,5.9503,5.9636,5.9663,5.9986,6.0092,6.0039,6.0039,6.0043,6.0016,5.7588,5.7514,5.7383,5.7176,5.7063,5.6968,5.6853,5.6757,5.6699,5.6699,5.6699,5.6699,5.6699,5.6699,5.6699,5.6699,5.6699,5.6699,5.6699,5.6699,5.6699,5.6699,5.6699,5.6699,5.6699,5.6699,5.6699,5.6699,5.6699,5.6898,5.7296,5.7641,5.8005,5.8403,5.9164,5.9694,6.0026,6.0423,6.0788,6.1119,6.1119,6.1119,6.1119,6.1119,6.1119,6.1119,6.1119,6.1119,6.1119,6.1119,6.1119,6.1119,6.1119,6.1119,6.1119,6.1119,6.1119,6.1119,6.1119,6.1119,6.1119,6.1119,6.1119,6.1119,6.1119,6.1119,6.1119,6.1119,6.1119,6.1119,6.1119,6.1119,5.96,5.5033,5.2368,5.0422,4.9144,4.9112,5.0313,5.3101,5.5293,5.6354,5.5893,5.5782,5.5743,5.5743,5.6017,5.6346,5.6671,5.6701,5.6974,5.7633,5.7363,5.7693,5.865,5.865,5.8773,5.9099,5.9099,5.9099,5.9099,5.9099,5.9099,5.9099,5.9099,5.9099,5.9126,5.9395,5.9503,5.9529,5.9853,5.988,5.9747,5.9747,5.964,5.9533,5.7458,5.7346,5.7176,5.6968,5.693,5.6872,5.6719,5.6699,5.6699,5.6699,5.6699,5.6699,5.6699,5.6699,5.6699,5.6699,5.6699,5.6699,5.6699,5.6699,5.6699,5.6699,5.6699,5.6699,5.6699,5.6699,5.6699,5.6699,5.6865,5.7263,5.7826,5.8138,5.8601,5.9198,5.9926,6.0258,6.0291,6.0854,6.1119,6.1119,6.1119,6.1119,6.1119,6.1119,6.1119,6.1119,6.1119,6.1119,6.1119,6.1119,6.1119,6.1119,6.1119,6.1119,6.1119,6.1119,6.1119,6.1119,6.1119,6.1119,6.1119,6.1119,6.1119,6.1119,6.1119,6.1119,6.1119,6.1119,6.1119,6.1119,6.1119,6.0919,5.926,5.4728,5.3474,5.2593,5.1256,5.0896,5.1899,5.506,5.5616,5.5726,5.5653,5.6102,5.6402,5.6402,5.6825,5.7154,5.7334,5.7334,5.7633,5.8294,5.8324,5.859,5.9099,5.9099,5.9099,5.9099,5.9099,5.9099,5.9099,5.9099,5.9099,5.9099,5.9099,5.9099,5.9126,5.9315,5.9395,5.9422,5.9693,5.964,5.9395,5.9395,5.9288,5.9126,5.712,5.7025,5.6949,5.6757,5.6719,5.6719,5.6699,5.6699,5.6699,5.6699,5.6699,5.6699,5.6699,5.6699,5.6699,5.6699,5.6699,5.6699,5.6699,5.6699,5.6699,5.6699,5.6699,5.6699,5.6699,5.6699,5.6699,5.6699,5.7376,5.774,5.7806,5.9198,5.986,5.996,6.0688,6.102,6.102,6.1086,6.1119,6.1119,6.1119,6.1119,6.1119,6.1119,6.1119,6.1119,6.1119,6.1119,6.1119,6.1119,6.1119,6.1119,6.1119,6.1119,6.1119,6.1119,6.1119,6.1119,6.1119,6.1119,6.1119,6.1119,6.1119,6.1119,6.1119,6.1119,6.1119,6.1119,6.1119,6.1119,6.1119,6.0323,5.8216,5.3721,5.231,5.133,5.0179,5.0874,5.2653,5.5766,5.6904,5.7292,5.6989,5.7004,5.7034,5.7034,5.7064,5.7363,5.7995,5.8025,5.8324,5.9009,5.9039,5.9069,5.9099,5.9099,5.9099,5.9099,5.9099,5.9099,5.9099,5.9099,5.9099,5.9099,5.9099,5.9099,5.9099,5.9126,5.9126,5.9126,5.9153,5.9153,5.9126,5.9126,5.9126,5.9099,5.7006,5.6891,5.6776,5.6699,5.6699,5.6699,5.6699,5.6699,5.6699,5.6699,5.6699,5.6699,5.6699,5.6699,5.6699,5.6699,5.6699,5.6699,5.6699,5.6699,5.6699,5.6699,5.6699,5.6699,5.6699,5.6699,5.6931,5.7395,5.7641,5.827,5.9164,5.9728,6.0258,6.0688,6.0986,6.1119,6.1119,6.1119,6.1119,6.1119,6.1119,6.1119,6.1119,6.1119,6.1119,6.1119,6.1119,6.1119,6.1119,6.1119,6.1119,6.1119,6.1119,6.1119,6.1119,6.1119,6.1119,6.1119,6.1119,6.1119,6.1119,6.1119,6.1119,6.1119,6.1119,6.1119,6.1119,6.1119,6.1119,6.1119,6.1119,6.0281,5.8238,5.4127,5.5027,5.505,5.1614,5.3929,5.6149,5.6706,5.7067,5.7234,5.7116,5.7483,5.7696,5.7696,5.8112,5.8441,5.871,5.8713,5.886,5.9099,5.9099,5.9099,5.9099,5.9099,5.9099,5.9099,5.9099,5.9099,5.9099,5.9099,5.9099,5.9099,5.9099,5.9099,5.9099,5.9099,5.9099,5.9099,5.9099,5.9099,5.9099,5.9099,5.9099,5.9099,5.6891,5.6796,5.6699,5.6699,5.6699,5.6699,5.6699,5.6699,5.6699,5.6699,5.6699,5.6699,5.6699,5.6699,5.6699,5.6699,5.6699,5.6699,5.6699,5.6699,5.6699,5.6699,5.6699,5.6699,5.6699,5.6699,5.7064,5.7806,5.8038,5.8767,6.0026,6.0258,6.0622,6.1119,6.1119,6.1119,6.1119,6.1119,6.1119,6.1119,6.1119,6.1119,6.1119,6.1119,6.1119,6.1119,6.1119,6.1119,6.1119,6.1119,6.1119,6.1119,6.1119,6.1119,6.1119,6.1119,6.1119,6.1119,6.1119,6.1119,6.1119,6.1119,6.1119,6.1119,6.1119,6.1119,6.1119,6.1119,6.1119,6.1048,6.095,6.0119,5.8527,5.5776,5.7081,5.7332,5.4007,5.6186,5.7952,5.7472,5.7423,5.7513,5.7723,5.8141,5.8414,5.8414,5.886,5.9099,5.9099,5.9099,5.9099,5.9099,5.9099,5.9099,5.9099,5.9099,5.9099,5.9099,5.9099,5.9099,5.9099,5.9099,5.9099,5.9099,5.9099,5.9099,5.9099,5.9099,5.9099,5.9099,5.9099,5.9099,5.9099,5.9099,5.9099,5.9099,5.6738,5.6699,5.6699,5.6699,5.6699,5.6699,5.6699,5.6699,5.6699,5.6699,5.6699,5.6699,5.6699,5.6699,5.6699,5.6699,5.6699,5.6699,5.6699,5.6699,5.6699,5.6699,5.6699,5.6699,5.6699,5.6699,5.7044,5.7806,5.8535,5.9297,6.0026,6.0755,6.1119,6.1119,6.1119,6.1119,6.1119,6.1119,6.1119,6.1119,6.1119,6.1119,6.1119,6.1119,6.1119,6.1119,6.1119,6.1119,6.1119,6.1119,6.1119,6.1119,6.1119,6.1119,6.1119,6.1119,6.1119,6.1119,6.1119,6.1119,6.1119,6.1119,6.1119,6.1119,6.1119,6.1119,6.1119,6.1119,6.1098,6.1023,6.067,5.9795,5.9009,5.8646,5.7763,5.7094,5.7094,5.7124,5.7363,5.8025,5.8115,5.8354,5.9039,5.9099,5.9099,5.9099,5.9099,5.9099,5.9099,5.9099,5.9099,5.9099,5.9099,5.9099,5.9099,5.9099,5.9099,5.9099,5.9099,5.9099,5.9099,5.9099,5.9099,5.9099,5.9099,5.9099,5.9099,5.9099,5.9099,5.9099,5.9099,5.9099,5.9099,5.9099,5.9099,5.9129,5.6699,5.6699,5.6699,5.6699,5.6699,5.6699,5.6699,5.6699,5.6699,5.6699,5.6699,5.6699,5.6699,5.6699,5.6699,5.6699,5.6699,5.6699,5.6699,5.6699,5.6699,5.6699,5.6699,5.6699,5.6699,5.7229,5.7806,5.8568,5.9297,6.0059,6.0788,6.102,6.1119,6.1119,6.1119,6.1119,6.1119,6.1119,6.1119,6.1119,6.1119,6.1119,6.1119,6.1119,6.1119,6.1119,6.1119,6.1119,6.1119,6.1119,6.1119,6.1119,6.1119,6.1119,6.1119,6.1119,6.1119,6.1119,6.1119,6.1119,6.1119,6.1119,6.1119,6.1119,6.1119,6.1483,6.1869,6.1869,6.23,6.2397,6.1536,6.0544,5.9748,5.9381,5.846,5.7992,5.8441,5.8501,5.859,5.88,5.88,5.889,5.9069,5.9099,5.9099,5.9099,5.9099,5.9099,5.9099,5.9099,5.9099,5.9099,5.9099,5.9099,5.9099,5.9099,5.9099,5.9099,5.9099,5.9099,5.9099,5.9099,5.9099,5.9099,5.9099,5.9099,5.9099,5.9099,5.9099,5.9099,5.9099,5.9099,5.9099,5.9099,5.9398,5.9787,5.6699,5.6699,5.6699,5.6699,5.6699,5.6699,5.6699,5.6699,5.6699,5.6699,5.6699,5.6699,5.6699,5.6699,5.6699,5.6699,5.6699,5.6699,5.6699,5.6699,5.6699,5.6699,5.6998,5.7163,5.7163,5.7594,5.8303,5.933,5.9794,6.039,6.1119,6.1119,6.1119,6.1119,6.1119,6.1119,6.1119,6.1119,6.1119,6.1119,6.1119,6.1119,6.1119,6.1119,6.1119,6.1119,6.1119,6.1119,6.1119,6.1119,6.1119,6.1119,6.1119,6.1119,6.1119,6.1119,6.1119,6.1119,6.1119,6.1119,6.1185,6.145,6.1318,6.1185,6.145,6.1869,6.2266,6.2565,6.266,6.2417,6.1675,6.0661,5.9831,5.9478,5.8897,5.865,5.9039,5.9099,5.9099,5.9099,5.9099,5.9099,5.9099,5.9099,5.9099,5.9099,5.9099,5.9099,5.9099,5.9099,5.9099,5.9099,5.9099,5.9099,5.9099,5.9099,5.9099,5.9099,5.9099,5.9099,5.9099,5.9099,5.9099,5.9099,5.9099,5.9099,5.9099,5.9099,5.9099,5.9129,5.9398,5.9488,5.9518,5.9787,6.0146,6.0505,5.6699,5.6699,5.6699,5.6699,5.6699,5.6699,5.6699,5.6699,5.6699,5.6699,5.6699,5.6699,5.6699,5.6699,5.6699,5.6699,5.6699,5.6699,5.6699,5.6699,5.6732,5.6799,5.7461,5.7839,5.7972,5.8005,5.8634,5.9993,6.0059,6.0456,6.1119,6.1119,6.1119,6.1119,6.1119,6.1119,6.1119,6.1119,6.1119,6.1119,6.1119,6.1119,6.1119,6.1119,6.1119,6.1119,6.1119,6.1119,6.1119,6.1119,6.1119,6.1119,6.1119,6.1119,6.1119,6.1119,6.1119,6.1098,6.1185,6.1218,6.1384,6.2101,6.1718,6.1345,6.2113,6.2269,6.2437,6.3131,6.246,6.1629,6.1245,6.0353,5.9582,5.9168,5.9099,5.9099,5.9099,5.9099,5.9099,5.9099,5.9099,5.9099,5.9099,5.9099,5.9099,5.9099,5.9099,5.9099,5.9099,5.9099,5.9099,5.9099,5.9099,5.9099,5.9099,5.9099,5.9099,5.9099,5.9099,5.9099,5.9099,5.9099,5.9099,5.9099,5.9099,5.9129,5.9189,5.9189,5.9219,5.9338,5.9937,6.0176,6.0266,6.0894,6.1164,6.1224,5.6699,5.6699,5.6699,5.6699,5.6699,5.6699,5.6699,5.6699,5.6699,5.6699,5.6699,5.6699,5.6699,5.6699,5.6699,5.6699,5.6699,5.6699,5.6699,5.6699,5.6964,5.7561,5.7707,5.8336,5.9496,5.9529,5.9694,5.9993,6.0589,6.0953,6.1119,6.1119,6.1119,6.1119,6.1119,6.1119,6.1119,6.1119,6.1119,6.1119,6.1119,6.1119,6.1119,6.1119,6.1119,6.1119,6.1119,6.1119,6.1119,6.1119,6.1119,6.1119,6.1119,6.1119,6.1119,6.1119,6.1119,6.1218,6.1803,6.1968,6.2134,6.2863,6.2333,6.1806,6.2823,6.2869,6.2701,6.2864,6.2497,6.1902,6.0986,6.0609,6.0154,5.9258,5.9099,5.9099,5.9099,5.9099,5.9099,5.9099,5.9099,5.9099,5.9099,5.9099,5.9099,5.9099,5.9099,5.9099,5.9099,5.9099,5.9099,5.9099,5.9099,5.9099,5.9099,5.9099,5.9099,5.9099,5.9099,5.9099,5.9099,5.9099,5.9099,5.9099,5.9099,5.9398,5.9877,5.9877,6.0206,6.0685,6.0835,6.0894,6.0894,6.1074,6.1433,6.1972,5.6699,5.6699,5.6699,5.6699,5.6699,5.6699,5.6699,5.6699,5.6699,5.6699,5.6699,5.6699,5.6699,5.6699,5.6699,5.6699,5.6699,5.6699,5.6699,5.6699,5.7031,5.7773,5.8138,5.8833,5.9993,6.0357,6.0523,6.0523,6.092,6.1119,6.1119,6.1119,6.1119,6.1119,6.1119,6.1119,6.1119,6.1119,6.1119,6.1119,6.1119,6.1119,6.1119,6.1119,6.1119,6.1119,6.1119,6.1119,6.1119,6.1119,6.1119,6.1119,6.1119,6.1119,6.1119,6.1119,6.1351,6.1703,6.2101,6.2465,6.2789,6.3023,6.2639,6.2389,6.2942,6.2511,6.214,6.2484,6.201,6.1362,6.08,6.0259,5.9736,5.9207,5.9099,5.9099,5.9099,5.9099,5.9099,5.9099,5.9099,5.9099,5.9099,5.9099,5.9099,5.9099,5.9099,5.9099,5.9099,5.9099,5.9099,5.9099,5.9099,5.9099,5.9099,5.9099,5.9099,5.9099,5.9099,5.9099,5.9129,5.9428,5.9578,5.9578,5.9937,6.0266,6.0565,6.0565,6.0775,6.1106,6.1463,6.1583,6.1613,6.1942,6.2271,6.2629,5.6699,5.6699,5.6699,5.6699,5.6699,5.6699,5.6699,5.6699,5.6699,5.6699,5.6699,5.6699,5.6699,5.6699,5.6699,5.6699,5.6699,5.6699,5.6699,5.6832,5.7229,5.7939,5.8701,5.9429,6.0191,6.0788,6.1119,6.1119,6.1119,6.1119,6.1119,6.1119,6.1119,6.1119,6.1119,6.1119,6.1119,6.1119,6.1119,6.1119,6.1119,6.1119,6.1119,6.1119,6.1119,6.1119,6.1119,6.1119,6.1119,6.1119,6.1119,6.1077,6.0898,6.106,6.1243,6.1096,6.1549,6.2131,6.2263,6.2628,6.289,6.2756,6.2591,6.2417,6.2417,6.175,6.1298,6.1914,6.1184,6.0416,6.0416,5.9713,5.9099,5.9099,5.9099,5.9099,5.9099,5.9099,5.9099,5.9099,5.9099,5.9099,5.9099,5.9099,5.9099,5.9099,5.9099,5.9099,5.9099,5.9099,5.9099,5.9099,5.9099,5.9099,5.9099,5.9219,5.9279,5.9279,5.9398,5.9398,5.9308,5.9967,6.0266,6.0296,6.0864,6.1194,6.1283,6.1283,6.1343,6.1493,6.2061,6.2271,6.2331,6.2898,6.3108,6.3108,5.6699,5.6699,5.6699,5.6699,5.6699,5.6699,5.6699,5.6699,5.6699,5.6699,5.6699,5.6699,5.6699,5.6699,5.6699,5.6699,5.6699,5.6699,5.6699,5.7296,5.7972,5.8701,5.9463,6.0191,6.0953,6.1053,6.1119,6.1119,6.1119,6.1119,6.1119,6.1119,6.1119,6.1119,6.1119,6.1119,6.1119,6.1119,6.1119,6.1119,6.1119,6.1119,6.1119,6.1119,6.1119,6.1119,6.1119,6.1119,6.1119,6.1119,6.1119,6.094,6.0087,6.0835,6.1886,6.1,6.1223,6.1915,6.2555,6.2102,6.1615,6.2216,6.1659,6.0983,6.0983,6.0881,6.081,6.0902,6.0079,5.9342,5.9342,5.9207,5.9099,5.9099,5.9099,5.9099,5.9099,5.9099,5.9099,5.9099,5.9099,5.9099,5.9099,5.9099,5.9099,5.9099,5.9099,5.9099,5.9099,5.9099,5.9099,5.9099,5.9099,5.9099,5.9099,5.9668,5.9937,5.9967,6.0565,6.0535,5.9967,6.0655,6.0956,6.0984,6.1074,6.1433,6.1972,6.1972,6.2301,6.2838,6.2928,6.2958,6.2988,6.3078,6.3108,6.3108,5.6699,5.6699,5.6699,5.6699,5.6699,5.6699,5.6699,5.6699,5.6699,5.6699,5.6699,5.6699,5.6699,5.6699,5.6699,5.6699,5.6699,5.6865,5.7296,5.7627,5.8303,5.9463,5.9827,6.0357,6.1086,6.1119,6.1119,6.1119,6.1119,6.1119,6.1119,6.1119,6.1119,6.1119,6.1119,6.1119,6.1119,6.1119,6.1119,6.1119,6.1119,6.1119,6.1119,6.1119,6.1119,6.1119,6.1119,6.1119,6.1002,6.043,6.0259,6.0152,5.9505,5.9858,6.0428,6.0412,6.088,6.1487,6.1806,6.1845,6.1761,6.1471,6.1056,6.0546,5.9948,5.9789,5.9789,5.9789,5.9419,5.9099,5.9099,5.9099,5.9099,5.9099,5.9099,5.9099,5.9099,5.9099,5.9099,5.9099,5.9099,5.9099,5.9099,5.9099,5.9099,5.9099,5.9099,5.9099,5.9099,5.9099,5.9099,5.9099,5.9099,5.9279,5.9638,5.9937,6.0266,6.0685,6.1343,6.1313,6.0685,6.1343,6.1672,6.1672,6.2061,6.2391,6.266,6.266,6.2838,6.3108,6.3108,6.3108,6.3108,6.3108,6.3108,6.3108]}]]